<?xml version="1.0" encoding="UTF-8" standalone="no" ?>
<gpx xmlns="http://www.topografix.com/GPX/1/1" xmlns:xsi="http://www.w3.org/2001/XMLSchema-instance" xsi:schemaLocation="http://www.topografix.com/GPX/1/1 http://www.topografix.com/GPX/1/1/gpx.xsd" version="1.1" creator="VisuGPX - https://www.visugpx.com">
  <metadata>
    <name>sortie du 11/03/2017</name>
    <desc><![CDATA[sortie ensoleillé avec de gros dénivelés!]]></desc>
  </metadata>
  <trk>
    <name><![CDATA[Tracé actuel: 11 MARS 2017 07:31]]></name>
    <trkseg>
      <trkpt lat="43.35219" lon="-0.55322">
        <ele>120.78</ele>
        <time>2017-03-11T06:31:13Z</time>
      </trkpt>
      <trkpt lat="43.3522" lon="-0.55322">
        <ele>120.78</ele>
        <time>2017-03-11T06:31:45Z</time>
      </trkpt>
      <trkpt lat="43.35224" lon="-0.55323">
        <ele>120.78</ele>
        <time>2017-03-11T06:32:32Z</time>
      </trkpt>
      <trkpt lat="43.35223" lon="-0.55324">
        <ele>127.51</ele>
        <time>2017-03-11T06:33:21Z</time>
      </trkpt>
      <trkpt lat="43.35219" lon="-0.55324">
        <ele>127.03</ele>
        <time>2017-03-11T06:33:58Z</time>
      </trkpt>
      <trkpt lat="43.3522" lon="-0.55322">
        <ele>127.51</ele>
        <time>2017-03-11T06:34:01Z</time>
      </trkpt>
      <trkpt lat="43.35221" lon="-0.55285">
        <ele>127.03</ele>
        <time>2017-03-11T06:34:15Z</time>
      </trkpt>
      <trkpt lat="43.35214" lon="-0.55229">
        <ele>126.55</ele>
        <time>2017-03-11T06:34:30Z</time>
      </trkpt>
      <trkpt lat="43.35187" lon="-0.55175">
        <ele>127.51</ele>
        <time>2017-03-11T06:34:45Z</time>
      </trkpt>
      <trkpt lat="43.35153" lon="-0.55128">
        <ele>129.43</ele>
        <time>2017-03-11T06:34:59Z</time>
      </trkpt>
      <trkpt lat="43.35101" lon="-0.55104">
        <ele>129.43</ele>
        <time>2017-03-11T06:35:13Z</time>
      </trkpt>
      <trkpt lat="43.35044" lon="-0.55073">
        <ele>127.99</ele>
        <time>2017-03-11T06:35:26Z</time>
      </trkpt>
      <trkpt lat="43.3504" lon="-0.5507">
        <ele>127.99</ele>
        <time>2017-03-11T06:35:27Z</time>
      </trkpt>
      <trkpt lat="43.35036" lon="-0.55066">
        <ele>127.99</ele>
        <time>2017-03-11T06:35:28Z</time>
      </trkpt>
      <trkpt lat="43.34979" lon="-0.54994">
        <ele>127.99</ele>
        <time>2017-03-11T06:35:45Z</time>
      </trkpt>
      <trkpt lat="43.34946" lon="-0.54931">
        <ele>130.4</ele>
        <time>2017-03-11T06:36:00Z</time>
      </trkpt>
      <trkpt lat="43.34916" lon="-0.54906">
        <ele>129.92</ele>
        <time>2017-03-11T06:36:11Z</time>
      </trkpt>
      <trkpt lat="43.34888" lon="-0.54895">
        <ele>131.36</ele>
        <time>2017-03-11T06:36:18Z</time>
      </trkpt>
      <trkpt lat="43.34856" lon="-0.54888">
        <ele>131.84</ele>
        <time>2017-03-11T06:36:25Z</time>
      </trkpt>
      <trkpt lat="43.34852" lon="-0.54885">
        <ele>131.84</ele>
        <time>2017-03-11T06:36:26Z</time>
      </trkpt>
      <trkpt lat="43.34848" lon="-0.54882">
        <ele>131.84</ele>
        <time>2017-03-11T06:36:27Z</time>
      </trkpt>
      <trkpt lat="43.34844" lon="-0.54878">
        <ele>131.84</ele>
        <time>2017-03-11T06:36:28Z</time>
      </trkpt>
      <trkpt lat="43.34841" lon="-0.54873">
        <ele>131.36</ele>
        <time>2017-03-11T06:36:29Z</time>
      </trkpt>
      <trkpt lat="43.34838" lon="-0.54868">
        <ele>131.36</ele>
        <time>2017-03-11T06:36:30Z</time>
      </trkpt>
      <trkpt lat="43.34834" lon="-0.54863">
        <ele>130.88</ele>
        <time>2017-03-11T06:36:31Z</time>
      </trkpt>
      <trkpt lat="43.3483" lon="-0.54851">
        <ele>129.92</ele>
        <time>2017-03-11T06:36:33Z</time>
      </trkpt>
      <trkpt lat="43.34828" lon="-0.54844">
        <ele>129.92</ele>
        <time>2017-03-11T06:36:34Z</time>
      </trkpt>
      <trkpt lat="43.34828" lon="-0.54839">
        <ele>129.43</ele>
        <time>2017-03-11T06:36:35Z</time>
      </trkpt>
      <trkpt lat="43.34828" lon="-0.54833">
        <ele>129.43</ele>
        <time>2017-03-11T06:36:36Z</time>
      </trkpt>
      <trkpt lat="43.34829" lon="-0.54828">
        <ele>128.95</ele>
        <time>2017-03-11T06:36:37Z</time>
      </trkpt>
      <trkpt lat="43.3483" lon="-0.54822">
        <ele>128.95</ele>
        <time>2017-03-11T06:36:38Z</time>
      </trkpt>
      <trkpt lat="43.34831" lon="-0.54817">
        <ele>128.95</ele>
        <time>2017-03-11T06:36:39Z</time>
      </trkpt>
      <trkpt lat="43.34832" lon="-0.54813">
        <ele>128.95</ele>
        <time>2017-03-11T06:36:40Z</time>
      </trkpt>
      <trkpt lat="43.34833" lon="-0.54809">
        <ele>128.95</ele>
        <time>2017-03-11T06:36:41Z</time>
      </trkpt>
      <trkpt lat="43.34857" lon="-0.5478">
        <ele>131.36</ele>
        <time>2017-03-11T06:36:53Z</time>
      </trkpt>
      <trkpt lat="43.34887" lon="-0.54749">
        <ele>135.2</ele>
        <time>2017-03-11T06:37:11Z</time>
      </trkpt>
      <trkpt lat="43.34909" lon="-0.54705">
        <ele>137.61</ele>
        <time>2017-03-11T06:37:28Z</time>
      </trkpt>
      <trkpt lat="43.34924" lon="-0.54661">
        <ele>140.97</ele>
        <time>2017-03-11T06:37:44Z</time>
      </trkpt>
      <trkpt lat="43.34943" lon="-0.54636">
        <ele>143.85</ele>
        <time>2017-03-11T06:38:00Z</time>
      </trkpt>
      <trkpt lat="43.34967" lon="-0.54632">
        <ele>147.7</ele>
        <time>2017-03-11T06:38:19Z</time>
      </trkpt>
      <trkpt lat="43.34987" lon="-0.54636">
        <ele>150.58</ele>
        <time>2017-03-11T06:38:36Z</time>
      </trkpt>
      <trkpt lat="43.35008" lon="-0.54641">
        <ele>152.03</ele>
        <time>2017-03-11T06:38:52Z</time>
      </trkpt>
      <trkpt lat="43.35029" lon="-0.54647">
        <ele>154.91</ele>
        <time>2017-03-11T06:39:09Z</time>
      </trkpt>
      <trkpt lat="43.3503" lon="-0.54648">
        <ele>154.91</ele>
        <time>2017-03-11T06:39:10Z</time>
      </trkpt>
      <trkpt lat="43.35031" lon="-0.54648">
        <ele>154.91</ele>
        <time>2017-03-11T06:39:11Z</time>
      </trkpt>
      <trkpt lat="43.35033" lon="-0.54648">
        <ele>155.39</ele>
        <time>2017-03-11T06:39:12Z</time>
      </trkpt>
      <trkpt lat="43.35034" lon="-0.54648">
        <ele>155.39</ele>
        <time>2017-03-11T06:39:13Z</time>
      </trkpt>
      <trkpt lat="43.35036" lon="-0.54649">
        <ele>155.39</ele>
        <time>2017-03-11T06:39:14Z</time>
      </trkpt>
      <trkpt lat="43.35037" lon="-0.54648">
        <ele>155.39</ele>
        <time>2017-03-11T06:39:15Z</time>
      </trkpt>
      <trkpt lat="43.35039" lon="-0.54648">
        <ele>155.39</ele>
        <time>2017-03-11T06:39:16Z</time>
      </trkpt>
      <trkpt lat="43.3507" lon="-0.54652">
        <ele>157.79</ele>
        <time>2017-03-11T06:39:34Z</time>
      </trkpt>
      <trkpt lat="43.35086" lon="-0.54659">
        <ele>160.2</ele>
        <time>2017-03-11T06:39:49Z</time>
      </trkpt>
      <trkpt lat="43.35106" lon="-0.54643">
        <ele>161.16</ele>
        <time>2017-03-11T06:40:03Z</time>
      </trkpt>
      <trkpt lat="43.35127" lon="-0.54625">
        <ele>161.16</ele>
        <time>2017-03-11T06:40:15Z</time>
      </trkpt>
      <trkpt lat="43.3514" lon="-0.54619">
        <ele>164.52</ele>
        <time>2017-03-11T06:40:23Z</time>
      </trkpt>
      <trkpt lat="43.35142" lon="-0.54618">
        <ele>164.52</ele>
        <time>2017-03-11T06:40:24Z</time>
      </trkpt>
      <trkpt lat="43.35144" lon="-0.54616">
        <ele>165</ele>
        <time>2017-03-11T06:40:25Z</time>
      </trkpt>
      <trkpt lat="43.35161" lon="-0.54591">
        <ele>162.6</ele>
        <time>2017-03-11T06:40:37Z</time>
      </trkpt>
      <trkpt lat="43.35165" lon="-0.54571">
        <ele>166.45</ele>
        <time>2017-03-11T06:40:49Z</time>
      </trkpt>
      <trkpt lat="43.35167" lon="-0.54553">
        <ele>167.41</ele>
        <time>2017-03-11T06:40:58Z</time>
      </trkpt>
      <trkpt lat="43.35167" lon="-0.54551">
        <ele>167.41</ele>
        <time>2017-03-11T06:40:59Z</time>
      </trkpt>
      <trkpt lat="43.35167" lon="-0.54536">
        <ele>167.41</ele>
        <time>2017-03-11T06:41:06Z</time>
      </trkpt>
      <trkpt lat="43.35166" lon="-0.54503">
        <ele>173.17</ele>
        <time>2017-03-11T06:41:19Z</time>
      </trkpt>
      <trkpt lat="43.35167" lon="-0.54471">
        <ele>177.98</ele>
        <time>2017-03-11T06:41:36Z</time>
      </trkpt>
      <trkpt lat="43.35176" lon="-0.54441">
        <ele>179.9</ele>
        <time>2017-03-11T06:41:51Z</time>
      </trkpt>
      <trkpt lat="43.35187" lon="-0.54386">
        <ele>179.42</ele>
        <time>2017-03-11T06:42:06Z</time>
      </trkpt>
      <trkpt lat="43.35201" lon="-0.54315">
        <ele>176.54</ele>
        <time>2017-03-11T06:42:21Z</time>
      </trkpt>
      <trkpt lat="43.35202" lon="-0.54309">
        <ele>176.54</ele>
        <time>2017-03-11T06:42:22Z</time>
      </trkpt>
      <trkpt lat="43.35201" lon="-0.54303">
        <ele>176.54</ele>
        <time>2017-03-11T06:42:23Z</time>
      </trkpt>
      <trkpt lat="43.352" lon="-0.54297">
        <ele>176.54</ele>
        <time>2017-03-11T06:42:24Z</time>
      </trkpt>
      <trkpt lat="43.35199" lon="-0.54292">
        <ele>176.54</ele>
        <time>2017-03-11T06:42:25Z</time>
      </trkpt>
      <trkpt lat="43.35198" lon="-0.54287">
        <ele>177.02</ele>
        <time>2017-03-11T06:42:26Z</time>
      </trkpt>
      <trkpt lat="43.35184" lon="-0.54226">
        <ele>179.9</ele>
        <time>2017-03-11T06:42:43Z</time>
      </trkpt>
      <trkpt lat="43.3517" lon="-0.54181">
        <ele>183.75</ele>
        <time>2017-03-11T06:43:01Z</time>
      </trkpt>
      <trkpt lat="43.35169" lon="-0.5417">
        <ele>184.23</ele>
        <time>2017-03-11T06:43:07Z</time>
      </trkpt>
      <trkpt lat="43.35169" lon="-0.54168">
        <ele>184.71</ele>
        <time>2017-03-11T06:43:08Z</time>
      </trkpt>
      <trkpt lat="43.35169" lon="-0.54166">
        <ele>184.71</ele>
        <time>2017-03-11T06:43:09Z</time>
      </trkpt>
      <trkpt lat="43.35176" lon="-0.54131">
        <ele>189.04</ele>
        <time>2017-03-11T06:43:29Z</time>
      </trkpt>
      <trkpt lat="43.35186" lon="-0.54096">
        <ele>191.44</ele>
        <time>2017-03-11T06:43:49Z</time>
      </trkpt>
      <trkpt lat="43.3519" lon="-0.54075">
        <ele>192.88</ele>
        <time>2017-03-11T06:44:02Z</time>
      </trkpt>
      <trkpt lat="43.35191" lon="-0.54074">
        <ele>192.88</ele>
        <time>2017-03-11T06:44:03Z</time>
      </trkpt>
      <trkpt lat="43.3519" lon="-0.54065">
        <ele>193.84</ele>
        <time>2017-03-11T06:44:08Z</time>
      </trkpt>
      <trkpt lat="43.35168" lon="-0.54045">
        <ele>196.25</ele>
        <time>2017-03-11T06:44:23Z</time>
      </trkpt>
      <trkpt lat="43.35158" lon="-0.54039">
        <ele>197.21</ele>
        <time>2017-03-11T06:44:29Z</time>
      </trkpt>
      <trkpt lat="43.35157" lon="-0.54039">
        <ele>197.69</ele>
        <time>2017-03-11T06:44:30Z</time>
      </trkpt>
      <trkpt lat="43.35155" lon="-0.54038">
        <ele>197.69</ele>
        <time>2017-03-11T06:44:31Z</time>
      </trkpt>
      <trkpt lat="43.35128" lon="-0.54031">
        <ele>200.09</ele>
        <time>2017-03-11T06:44:43Z</time>
      </trkpt>
      <trkpt lat="43.35098" lon="-0.54001">
        <ele>199.13</ele>
        <time>2017-03-11T06:44:54Z</time>
      </trkpt>
      <trkpt lat="43.35076" lon="-0.53953">
        <ele>197.21</ele>
        <time>2017-03-11T06:45:02Z</time>
      </trkpt>
      <trkpt lat="43.35074" lon="-0.53946">
        <ele>196.73</ele>
        <time>2017-03-11T06:45:03Z</time>
      </trkpt>
      <trkpt lat="43.35073" lon="-0.53938">
        <ele>196.73</ele>
        <time>2017-03-11T06:45:04Z</time>
      </trkpt>
      <trkpt lat="43.35072" lon="-0.53924">
        <ele>195.77</ele>
        <time>2017-03-11T06:45:06Z</time>
      </trkpt>
      <trkpt lat="43.35074" lon="-0.53907">
        <ele>195.28</ele>
        <time>2017-03-11T06:45:09Z</time>
      </trkpt>
      <trkpt lat="43.35074" lon="-0.53894">
        <ele>194.8</ele>
        <time>2017-03-11T06:45:11Z</time>
      </trkpt>
      <trkpt lat="43.35063" lon="-0.5382">
        <ele>192.4</ele>
        <time>2017-03-11T06:45:23Z</time>
      </trkpt>
      <trkpt lat="43.35045" lon="-0.53734">
        <ele>188.56</ele>
        <time>2017-03-11T06:45:33Z</time>
      </trkpt>
      <trkpt lat="43.35043" lon="-0.53727">
        <ele>188.56</ele>
        <time>2017-03-11T06:45:34Z</time>
      </trkpt>
      <trkpt lat="43.35042" lon="-0.53722">
        <ele>188.56</ele>
        <time>2017-03-11T06:45:35Z</time>
      </trkpt>
      <trkpt lat="43.3504" lon="-0.5372">
        <ele>189.04</ele>
        <time>2017-03-11T06:45:36Z</time>
      </trkpt>
      <trkpt lat="43.35037" lon="-0.53719">
        <ele>188.56</ele>
        <time>2017-03-11T06:45:37Z</time>
      </trkpt>
      <trkpt lat="43.35034" lon="-0.5372">
        <ele>188.56</ele>
        <time>2017-03-11T06:45:38Z</time>
      </trkpt>
      <trkpt lat="43.35031" lon="-0.53721">
        <ele>188.08</ele>
        <time>2017-03-11T06:45:39Z</time>
      </trkpt>
      <trkpt lat="43.35027" lon="-0.53725">
        <ele>187.59</ele>
        <time>2017-03-11T06:45:40Z</time>
      </trkpt>
      <trkpt lat="43.35023" lon="-0.5373">
        <ele>187.11</ele>
        <time>2017-03-11T06:45:41Z</time>
      </trkpt>
      <trkpt lat="43.34979" lon="-0.53779">
        <ele>177.02</ele>
        <time>2017-03-11T06:45:51Z</time>
      </trkpt>
      <trkpt lat="43.34977" lon="-0.53783">
        <ele>176.06</ele>
        <time>2017-03-11T06:45:52Z</time>
      </trkpt>
      <trkpt lat="43.34974" lon="-0.53789">
        <ele>174.62</ele>
        <time>2017-03-11T06:45:53Z</time>
      </trkpt>
      <trkpt lat="43.34972" lon="-0.53796">
        <ele>174.14</ele>
        <time>2017-03-11T06:45:54Z</time>
      </trkpt>
      <trkpt lat="43.34971" lon="-0.53805">
        <ele>173.17</ele>
        <time>2017-03-11T06:45:55Z</time>
      </trkpt>
      <trkpt lat="43.34971" lon="-0.53814">
        <ele>172.69</ele>
        <time>2017-03-11T06:45:56Z</time>
      </trkpt>
      <trkpt lat="43.34972" lon="-0.53824">
        <ele>172.21</ele>
        <time>2017-03-11T06:45:57Z</time>
      </trkpt>
      <trkpt lat="43.34971" lon="-0.53833">
        <ele>172.21</ele>
        <time>2017-03-11T06:45:58Z</time>
      </trkpt>
      <trkpt lat="43.3497" lon="-0.53864">
        <ele>172.21</ele>
        <time>2017-03-11T06:46:02Z</time>
      </trkpt>
      <trkpt lat="43.34986" lon="-0.53955">
        <ele>173.66</ele>
        <time>2017-03-11T06:46:16Z</time>
      </trkpt>
      <trkpt lat="43.34994" lon="-0.53982">
        <ele>174.14</ele>
        <time>2017-03-11T06:46:21Z</time>
      </trkpt>
      <trkpt lat="43.35001" lon="-0.54016">
        <ele>173.66</ele>
        <time>2017-03-11T06:46:26Z</time>
      </trkpt>
      <trkpt lat="43.35001" lon="-0.54024">
        <ele>173.17</ele>
        <time>2017-03-11T06:46:27Z</time>
      </trkpt>
      <trkpt lat="43.35" lon="-0.54032">
        <ele>172.69</ele>
        <time>2017-03-11T06:46:28Z</time>
      </trkpt>
      <trkpt lat="43.34999" lon="-0.54039">
        <ele>172.69</ele>
        <time>2017-03-11T06:46:29Z</time>
      </trkpt>
      <trkpt lat="43.34998" lon="-0.54046">
        <ele>172.69</ele>
        <time>2017-03-11T06:46:30Z</time>
      </trkpt>
      <trkpt lat="43.34996" lon="-0.54052">
        <ele>172.69</ele>
        <time>2017-03-11T06:46:31Z</time>
      </trkpt>
      <trkpt lat="43.34994" lon="-0.5406">
        <ele>172.69</ele>
        <time>2017-03-11T06:46:32Z</time>
      </trkpt>
      <trkpt lat="43.34993" lon="-0.54066">
        <ele>172.69</ele>
        <time>2017-03-11T06:46:33Z</time>
      </trkpt>
      <trkpt lat="43.34991" lon="-0.54158">
        <ele>172.69</ele>
        <time>2017-03-11T06:46:45Z</time>
      </trkpt>
      <trkpt lat="43.34992" lon="-0.54164">
        <ele>172.69</ele>
        <time>2017-03-11T06:46:46Z</time>
      </trkpt>
      <trkpt lat="43.34997" lon="-0.54177">
        <ele>173.17</ele>
        <time>2017-03-11T06:46:48Z</time>
      </trkpt>
      <trkpt lat="43.34999" lon="-0.54184">
        <ele>172.69</ele>
        <time>2017-03-11T06:46:49Z</time>
      </trkpt>
      <trkpt lat="43.35007" lon="-0.54211">
        <ele>171.25</ele>
        <time>2017-03-11T06:46:53Z</time>
      </trkpt>
      <trkpt lat="43.35008" lon="-0.54218">
        <ele>170.29</ele>
        <time>2017-03-11T06:46:54Z</time>
      </trkpt>
      <trkpt lat="43.35008" lon="-0.54225">
        <ele>169.81</ele>
        <time>2017-03-11T06:46:55Z</time>
      </trkpt>
      <trkpt lat="43.35007" lon="-0.54231">
        <ele>168.85</ele>
        <time>2017-03-11T06:46:56Z</time>
      </trkpt>
      <trkpt lat="43.35004" lon="-0.54237">
        <ele>167.89</ele>
        <time>2017-03-11T06:46:57Z</time>
      </trkpt>
      <trkpt lat="43.34999" lon="-0.54244">
        <ele>166.93</ele>
        <time>2017-03-11T06:46:58Z</time>
      </trkpt>
      <trkpt lat="43.34994" lon="-0.5425">
        <ele>165.96</ele>
        <time>2017-03-11T06:46:59Z</time>
      </trkpt>
      <trkpt lat="43.34988" lon="-0.54258">
        <ele>165</ele>
        <time>2017-03-11T06:47:00Z</time>
      </trkpt>
      <trkpt lat="43.34917" lon="-0.5435">
        <ele>156.35</ele>
        <time>2017-03-11T06:47:10Z</time>
      </trkpt>
      <trkpt lat="43.3491" lon="-0.54359">
        <ele>155.87</ele>
        <time>2017-03-11T06:47:11Z</time>
      </trkpt>
      <trkpt lat="43.34904" lon="-0.54365">
        <ele>155.87</ele>
        <time>2017-03-11T06:47:12Z</time>
      </trkpt>
      <trkpt lat="43.34898" lon="-0.54369">
        <ele>155.87</ele>
        <time>2017-03-11T06:47:13Z</time>
      </trkpt>
      <trkpt lat="43.34891" lon="-0.54371">
        <ele>155.87</ele>
        <time>2017-03-11T06:47:14Z</time>
      </trkpt>
      <trkpt lat="43.34884" lon="-0.54371">
        <ele>155.39</ele>
        <time>2017-03-11T06:47:15Z</time>
      </trkpt>
      <trkpt lat="43.34876" lon="-0.54373">
        <ele>154.43</ele>
        <time>2017-03-11T06:47:16Z</time>
      </trkpt>
      <trkpt lat="43.34869" lon="-0.54376">
        <ele>153.95</ele>
        <time>2017-03-11T06:47:17Z</time>
      </trkpt>
      <trkpt lat="43.34862" lon="-0.5438">
        <ele>153.47</ele>
        <time>2017-03-11T06:47:18Z</time>
      </trkpt>
      <trkpt lat="43.34854" lon="-0.54386">
        <ele>152.99</ele>
        <time>2017-03-11T06:47:19Z</time>
      </trkpt>
      <trkpt lat="43.34848" lon="-0.54392">
        <ele>152.51</ele>
        <time>2017-03-11T06:47:20Z</time>
      </trkpt>
      <trkpt lat="43.34775" lon="-0.54475">
        <ele>148.18</ele>
        <time>2017-03-11T06:47:32Z</time>
      </trkpt>
      <trkpt lat="43.34696" lon="-0.54567">
        <ele>140.01</ele>
        <time>2017-03-11T06:47:43Z</time>
      </trkpt>
      <trkpt lat="43.34659" lon="-0.54617">
        <ele>134.72</ele>
        <time>2017-03-11T06:47:52Z</time>
      </trkpt>
      <trkpt lat="43.34657" lon="-0.54619">
        <ele>134.24</ele>
        <time>2017-03-11T06:47:53Z</time>
      </trkpt>
      <trkpt lat="43.34655" lon="-0.54618">
        <ele>133.76</ele>
        <time>2017-03-11T06:47:54Z</time>
      </trkpt>
      <trkpt lat="43.34654" lon="-0.54617">
        <ele>133.28</ele>
        <time>2017-03-11T06:47:55Z</time>
      </trkpt>
      <trkpt lat="43.34653" lon="-0.54615">
        <ele>133.28</ele>
        <time>2017-03-11T06:47:56Z</time>
      </trkpt>
      <trkpt lat="43.34653" lon="-0.54612">
        <ele>133.28</ele>
        <time>2017-03-11T06:47:57Z</time>
      </trkpt>
      <trkpt lat="43.3466" lon="-0.54565">
        <ele>133.28</ele>
        <time>2017-03-11T06:48:07Z</time>
      </trkpt>
      <trkpt lat="43.34662" lon="-0.54554">
        <ele>133.76</ele>
        <time>2017-03-11T06:48:09Z</time>
      </trkpt>
      <trkpt lat="43.34662" lon="-0.54548">
        <ele>133.76</ele>
        <time>2017-03-11T06:48:10Z</time>
      </trkpt>
      <trkpt lat="43.34666" lon="-0.54502">
        <ele>133.28</ele>
        <time>2017-03-11T06:48:18Z</time>
      </trkpt>
      <trkpt lat="43.34666" lon="-0.54496">
        <ele>133.28</ele>
        <time>2017-03-11T06:48:19Z</time>
      </trkpt>
      <trkpt lat="43.34674" lon="-0.54435">
        <ele>131.84</ele>
        <time>2017-03-11T06:48:28Z</time>
      </trkpt>
      <trkpt lat="43.34677" lon="-0.54415">
        <ele>132.32</ele>
        <time>2017-03-11T06:48:31Z</time>
      </trkpt>
      <trkpt lat="43.34677" lon="-0.54409">
        <ele>132.32</ele>
        <time>2017-03-11T06:48:32Z</time>
      </trkpt>
      <trkpt lat="43.34676" lon="-0.54403">
        <ele>132.32</ele>
        <time>2017-03-11T06:48:33Z</time>
      </trkpt>
      <trkpt lat="43.34675" lon="-0.54398">
        <ele>132.8</ele>
        <time>2017-03-11T06:48:34Z</time>
      </trkpt>
      <trkpt lat="43.34674" lon="-0.54393">
        <ele>132.8</ele>
        <time>2017-03-11T06:48:35Z</time>
      </trkpt>
      <trkpt lat="43.34673" lon="-0.54388">
        <ele>132.8</ele>
        <time>2017-03-11T06:48:36Z</time>
      </trkpt>
      <trkpt lat="43.34673" lon="-0.54384">
        <ele>132.8</ele>
        <time>2017-03-11T06:48:37Z</time>
      </trkpt>
      <trkpt lat="43.34673" lon="-0.5438">
        <ele>133.28</ele>
        <time>2017-03-11T06:48:38Z</time>
      </trkpt>
      <trkpt lat="43.34674" lon="-0.54377">
        <ele>133.76</ele>
        <time>2017-03-11T06:48:39Z</time>
      </trkpt>
      <trkpt lat="43.34675" lon="-0.54374">
        <ele>134.24</ele>
        <time>2017-03-11T06:48:40Z</time>
      </trkpt>
      <trkpt lat="43.34675" lon="-0.54372">
        <ele>134.24</ele>
        <time>2017-03-11T06:48:41Z</time>
      </trkpt>
      <trkpt lat="43.34676" lon="-0.54369">
        <ele>134.72</ele>
        <time>2017-03-11T06:48:42Z</time>
      </trkpt>
      <trkpt lat="43.34677" lon="-0.54367">
        <ele>134.72</ele>
        <time>2017-03-11T06:48:43Z</time>
      </trkpt>
      <trkpt lat="43.34678" lon="-0.54365">
        <ele>135.2</ele>
        <time>2017-03-11T06:48:44Z</time>
      </trkpt>
      <trkpt lat="43.34679" lon="-0.54363">
        <ele>135.2</ele>
        <time>2017-03-11T06:48:45Z</time>
      </trkpt>
      <trkpt lat="43.3468" lon="-0.54361">
        <ele>135.2</ele>
        <time>2017-03-11T06:48:46Z</time>
      </trkpt>
      <trkpt lat="43.3468" lon="-0.54359">
        <ele>135.2</ele>
        <time>2017-03-11T06:48:47Z</time>
      </trkpt>
      <trkpt lat="43.34681" lon="-0.54357">
        <ele>135.68</ele>
        <time>2017-03-11T06:48:48Z</time>
      </trkpt>
      <trkpt lat="43.34681" lon="-0.54355">
        <ele>135.68</ele>
        <time>2017-03-11T06:48:49Z</time>
      </trkpt>
      <trkpt lat="43.34682" lon="-0.54353">
        <ele>136.16</ele>
        <time>2017-03-11T06:48:50Z</time>
      </trkpt>
      <trkpt lat="43.34683" lon="-0.54351">
        <ele>136.64</ele>
        <time>2017-03-11T06:48:51Z</time>
      </trkpt>
      <trkpt lat="43.34692" lon="-0.54319">
        <ele>140.97</ele>
        <time>2017-03-11T06:49:06Z</time>
      </trkpt>
      <trkpt lat="43.34699" lon="-0.54285">
        <ele>149.14</ele>
        <time>2017-03-11T06:49:23Z</time>
      </trkpt>
      <trkpt lat="43.34705" lon="-0.54258">
        <ele>153.47</ele>
        <time>2017-03-11T06:49:37Z</time>
      </trkpt>
      <trkpt lat="43.34709" lon="-0.54226">
        <ele>155.39</ele>
        <time>2017-03-11T06:49:52Z</time>
      </trkpt>
      <trkpt lat="43.34697" lon="-0.54205">
        <ele>157.31</ele>
        <time>2017-03-11T06:50:06Z</time>
      </trkpt>
      <trkpt lat="43.3468" lon="-0.54202">
        <ele>159.24</ele>
        <time>2017-03-11T06:50:18Z</time>
      </trkpt>
      <trkpt lat="43.34675" lon="-0.54204">
        <ele>160.2</ele>
        <time>2017-03-11T06:50:23Z</time>
      </trkpt>
      <trkpt lat="43.34674" lon="-0.54204">
        <ele>160.68</ele>
        <time>2017-03-11T06:50:24Z</time>
      </trkpt>
      <trkpt lat="43.34672" lon="-0.54204">
        <ele>161.16</ele>
        <time>2017-03-11T06:50:26Z</time>
      </trkpt>
      <trkpt lat="43.34671" lon="-0.54205">
        <ele>161.64</ele>
        <time>2017-03-11T06:50:27Z</time>
      </trkpt>
      <trkpt lat="43.34669" lon="-0.54205">
        <ele>161.64</ele>
        <time>2017-03-11T06:50:28Z</time>
      </trkpt>
      <trkpt lat="43.34668" lon="-0.54205">
        <ele>161.64</ele>
        <time>2017-03-11T06:50:29Z</time>
      </trkpt>
      <trkpt lat="43.34661" lon="-0.54199">
        <ele>163.08</ele>
        <time>2017-03-11T06:50:37Z</time>
      </trkpt>
      <trkpt lat="43.34658" lon="-0.54195">
        <ele>163.56</ele>
        <time>2017-03-11T06:50:40Z</time>
      </trkpt>
      <trkpt lat="43.34653" lon="-0.54191">
        <ele>164.04</ele>
        <time>2017-03-11T06:50:45Z</time>
      </trkpt>
      <trkpt lat="43.3464" lon="-0.54187">
        <ele>170.29</ele>
        <time>2017-03-11T06:50:56Z</time>
      </trkpt>
      <trkpt lat="43.3463" lon="-0.54185">
        <ele>172.21</ele>
        <time>2017-03-11T06:51:08Z</time>
      </trkpt>
      <trkpt lat="43.34621" lon="-0.54176">
        <ele>175.1</ele>
        <time>2017-03-11T06:51:19Z</time>
      </trkpt>
      <trkpt lat="43.34615" lon="-0.5417">
        <ele>174.14</ele>
        <time>2017-03-11T06:51:32Z</time>
      </trkpt>
      <trkpt lat="43.34611" lon="-0.54153">
        <ele>175.58</ele>
        <time>2017-03-11T06:51:43Z</time>
      </trkpt>
      <trkpt lat="43.34608" lon="-0.54142">
        <ele>177.02</ele>
        <time>2017-03-11T06:51:50Z</time>
      </trkpt>
      <trkpt lat="43.34609" lon="-0.54135">
        <ele>177.98</ele>
        <time>2017-03-11T06:51:54Z</time>
      </trkpt>
      <trkpt lat="43.34601" lon="-0.54119">
        <ele>180.38</ele>
        <time>2017-03-11T06:52:06Z</time>
      </trkpt>
      <trkpt lat="43.34591" lon="-0.54113">
        <ele>181.35</ele>
        <time>2017-03-11T06:52:15Z</time>
      </trkpt>
      <trkpt lat="43.34592" lon="-0.54102">
        <ele>180.38</ele>
        <time>2017-03-11T06:52:21Z</time>
      </trkpt>
      <trkpt lat="43.34587" lon="-0.54093">
        <ele>180.38</ele>
        <time>2017-03-11T06:52:26Z</time>
      </trkpt>
      <trkpt lat="43.34578" lon="-0.54089">
        <ele>181.83</ele>
        <time>2017-03-11T06:52:34Z</time>
      </trkpt>
      <trkpt lat="43.34577" lon="-0.54086">
        <ele>183.27</ele>
        <time>2017-03-11T06:52:36Z</time>
      </trkpt>
      <trkpt lat="43.34577" lon="-0.54081">
        <ele>184.23</ele>
        <time>2017-03-11T06:52:40Z</time>
      </trkpt>
      <trkpt lat="43.34566" lon="-0.54071">
        <ele>187.11</ele>
        <time>2017-03-11T06:52:52Z</time>
      </trkpt>
      <trkpt lat="43.34554" lon="-0.54061">
        <ele>190</ele>
        <time>2017-03-11T06:53:05Z</time>
      </trkpt>
      <trkpt lat="43.34536" lon="-0.54051">
        <ele>192.4</ele>
        <time>2017-03-11T06:53:20Z</time>
      </trkpt>
      <trkpt lat="43.34533" lon="-0.54047">
        <ele>193.36</ele>
        <time>2017-03-11T06:53:25Z</time>
      </trkpt>
      <trkpt lat="43.3453" lon="-0.54019">
        <ele>197.21</ele>
        <time>2017-03-11T06:53:42Z</time>
      </trkpt>
      <trkpt lat="43.34529" lon="-0.53997">
        <ele>198.17</ele>
        <time>2017-03-11T06:53:55Z</time>
      </trkpt>
      <trkpt lat="43.34529" lon="-0.53995">
        <ele>198.17</ele>
        <time>2017-03-11T06:53:56Z</time>
      </trkpt>
      <trkpt lat="43.34531" lon="-0.53985">
        <ele>198.65</ele>
        <time>2017-03-11T06:54:02Z</time>
      </trkpt>
      <trkpt lat="43.3453" lon="-0.53956">
        <ele>202.49</ele>
        <time>2017-03-11T06:54:18Z</time>
      </trkpt>
      <trkpt lat="43.34527" lon="-0.53934">
        <ele>204.42</ele>
        <time>2017-03-11T06:54:32Z</time>
      </trkpt>
      <trkpt lat="43.34523" lon="-0.5391">
        <ele>206.82</ele>
        <time>2017-03-11T06:54:46Z</time>
      </trkpt>
      <trkpt lat="43.34517" lon="-0.53888">
        <ele>207.78</ele>
        <time>2017-03-11T06:54:59Z</time>
      </trkpt>
      <trkpt lat="43.34517" lon="-0.53886">
        <ele>207.78</ele>
        <time>2017-03-11T06:55:00Z</time>
      </trkpt>
      <trkpt lat="43.34515" lon="-0.53878">
        <ele>207.3</ele>
        <time>2017-03-11T06:55:04Z</time>
      </trkpt>
      <trkpt lat="43.34513" lon="-0.53839">
        <ele>209.22</ele>
        <time>2017-03-11T06:55:18Z</time>
      </trkpt>
      <trkpt lat="43.34522" lon="-0.53801">
        <ele>210.19</ele>
        <time>2017-03-11T06:55:30Z</time>
      </trkpt>
      <trkpt lat="43.34534" lon="-0.5376">
        <ele>211.15</ele>
        <time>2017-03-11T06:55:44Z</time>
      </trkpt>
      <trkpt lat="43.34547" lon="-0.53731">
        <ele>214.99</ele>
        <time>2017-03-11T06:55:59Z</time>
      </trkpt>
      <trkpt lat="43.34556" lon="-0.537">
        <ele>217.4</ele>
        <time>2017-03-11T06:56:14Z</time>
      </trkpt>
      <trkpt lat="43.34564" lon="-0.53669">
        <ele>222.2</ele>
        <time>2017-03-11T06:56:31Z</time>
      </trkpt>
      <trkpt lat="43.34568" lon="-0.53657">
        <ele>224.12</ele>
        <time>2017-03-11T06:56:39Z</time>
      </trkpt>
      <trkpt lat="43.34568" lon="-0.53656">
        <ele>224.12</ele>
        <time>2017-03-11T06:56:40Z</time>
      </trkpt>
      <trkpt lat="43.34574" lon="-0.53635">
        <ele>225.57</ele>
        <time>2017-03-11T06:56:54Z</time>
      </trkpt>
      <trkpt lat="43.34581" lon="-0.53599">
        <ele>230.37</ele>
        <time>2017-03-11T06:57:12Z</time>
      </trkpt>
      <trkpt lat="43.34588" lon="-0.53565">
        <ele>232.3</ele>
        <time>2017-03-11T06:57:28Z</time>
      </trkpt>
      <trkpt lat="43.34591" lon="-0.53529">
        <ele>232.78</ele>
        <time>2017-03-11T06:57:44Z</time>
      </trkpt>
      <trkpt lat="43.3459" lon="-0.53493">
        <ele>232.78</ele>
        <time>2017-03-11T06:58:01Z</time>
      </trkpt>
      <trkpt lat="43.34587" lon="-0.53455">
        <ele>232.78</ele>
        <time>2017-03-11T06:58:19Z</time>
      </trkpt>
      <trkpt lat="43.34584" lon="-0.53429">
        <ele>233.74</ele>
        <time>2017-03-11T06:58:33Z</time>
      </trkpt>
      <trkpt lat="43.34582" lon="-0.53414">
        <ele>235.66</ele>
        <time>2017-03-11T06:58:41Z</time>
      </trkpt>
      <trkpt lat="43.3458" lon="-0.53386">
        <ele>238.54</ele>
        <time>2017-03-11T06:58:56Z</time>
      </trkpt>
      <trkpt lat="43.34579" lon="-0.53375">
        <ele>239.51</ele>
        <time>2017-03-11T06:59:02Z</time>
      </trkpt>
      <trkpt lat="43.34579" lon="-0.53374">
        <ele>239.99</ele>
        <time>2017-03-11T06:59:03Z</time>
      </trkpt>
      <trkpt lat="43.34579" lon="-0.53372">
        <ele>239.99</ele>
        <time>2017-03-11T06:59:04Z</time>
      </trkpt>
      <trkpt lat="43.34577" lon="-0.53356">
        <ele>241.43</ele>
        <time>2017-03-11T06:59:12Z</time>
      </trkpt>
      <trkpt lat="43.34577" lon="-0.53354">
        <ele>241.43</ele>
        <time>2017-03-11T06:59:13Z</time>
      </trkpt>
      <trkpt lat="43.34576" lon="-0.53352">
        <ele>241.43</ele>
        <time>2017-03-11T06:59:14Z</time>
      </trkpt>
      <trkpt lat="43.34576" lon="-0.53349">
        <ele>241.91</ele>
        <time>2017-03-11T06:59:15Z</time>
      </trkpt>
      <trkpt lat="43.34576" lon="-0.53348">
        <ele>241.91</ele>
        <time>2017-03-11T06:59:16Z</time>
      </trkpt>
      <trkpt lat="43.34574" lon="-0.53314">
        <ele>241.91</ele>
        <time>2017-03-11T06:59:29Z</time>
      </trkpt>
      <trkpt lat="43.34568" lon="-0.5327">
        <ele>241.91</ele>
        <time>2017-03-11T06:59:41Z</time>
      </trkpt>
      <trkpt lat="43.34561" lon="-0.53229">
        <ele>244.79</ele>
        <time>2017-03-11T06:59:54Z</time>
      </trkpt>
      <trkpt lat="43.34558" lon="-0.53188">
        <ele>248.16</ele>
        <time>2017-03-11T07:00:10Z</time>
      </trkpt>
      <trkpt lat="43.34558" lon="-0.53172">
        <ele>251.04</ele>
        <time>2017-03-11T07:00:17Z</time>
      </trkpt>
      <trkpt lat="43.34558" lon="-0.5317">
        <ele>251.04</ele>
        <time>2017-03-11T07:00:18Z</time>
      </trkpt>
      <trkpt lat="43.34558" lon="-0.53168">
        <ele>251.04</ele>
        <time>2017-03-11T07:00:19Z</time>
      </trkpt>
      <trkpt lat="43.34556" lon="-0.53155">
        <ele>251.52</ele>
        <time>2017-03-11T07:00:25Z</time>
      </trkpt>
      <trkpt lat="43.34556" lon="-0.53153">
        <ele>251.52</ele>
        <time>2017-03-11T07:00:26Z</time>
      </trkpt>
      <trkpt lat="43.34555" lon="-0.53151">
        <ele>251.52</ele>
        <time>2017-03-11T07:00:27Z</time>
      </trkpt>
      <trkpt lat="43.3455" lon="-0.53112">
        <ele>253.44</ele>
        <time>2017-03-11T07:00:44Z</time>
      </trkpt>
      <trkpt lat="43.3455" lon="-0.53095">
        <ele>254.41</ele>
        <time>2017-03-11T07:00:52Z</time>
      </trkpt>
      <trkpt lat="43.3455" lon="-0.53093">
        <ele>254.89</ele>
        <time>2017-03-11T07:00:53Z</time>
      </trkpt>
      <trkpt lat="43.3455" lon="-0.53091">
        <ele>254.89</ele>
        <time>2017-03-11T07:00:54Z</time>
      </trkpt>
      <trkpt lat="43.3455" lon="-0.53089">
        <ele>254.89</ele>
        <time>2017-03-11T07:00:55Z</time>
      </trkpt>
      <trkpt lat="43.34549" lon="-0.53086">
        <ele>254.89</ele>
        <time>2017-03-11T07:00:56Z</time>
      </trkpt>
      <trkpt lat="43.34549" lon="-0.53084">
        <ele>254.89</ele>
        <time>2017-03-11T07:00:57Z</time>
      </trkpt>
      <trkpt lat="43.34538" lon="-0.53049">
        <ele>256.33</ele>
        <time>2017-03-11T07:01:12Z</time>
      </trkpt>
      <trkpt lat="43.34523" lon="-0.53017">
        <ele>253.93</ele>
        <time>2017-03-11T07:01:24Z</time>
      </trkpt>
      <trkpt lat="43.34514" lon="-0.53007">
        <ele>252</ele>
        <time>2017-03-11T07:01:27Z</time>
      </trkpt>
      <trkpt lat="43.34512" lon="-0.53003">
        <ele>251.52</ele>
        <time>2017-03-11T07:01:28Z</time>
      </trkpt>
      <trkpt lat="43.34492" lon="-0.52967">
        <ele>244.79</ele>
        <time>2017-03-11T07:01:37Z</time>
      </trkpt>
      <trkpt lat="43.34473" lon="-0.52941">
        <ele>239.51</ele>
        <time>2017-03-11T07:01:46Z</time>
      </trkpt>
      <trkpt lat="43.3445" lon="-0.52907">
        <ele>236.14</ele>
        <time>2017-03-11T07:01:55Z</time>
      </trkpt>
      <trkpt lat="43.34448" lon="-0.52902">
        <ele>235.66</ele>
        <time>2017-03-11T07:01:56Z</time>
      </trkpt>
      <trkpt lat="43.34429" lon="-0.52847">
        <ele>232.3</ele>
        <time>2017-03-11T07:02:05Z</time>
      </trkpt>
      <trkpt lat="43.34417" lon="-0.52815">
        <ele>231.81</ele>
        <time>2017-03-11T07:02:14Z</time>
      </trkpt>
      <trkpt lat="43.34416" lon="-0.52813">
        <ele>231.81</ele>
        <time>2017-03-11T07:02:15Z</time>
      </trkpt>
      <trkpt lat="43.34391" lon="-0.52812">
        <ele>232.78</ele>
        <time>2017-03-11T07:02:27Z</time>
      </trkpt>
      <trkpt lat="43.34378" lon="-0.52828">
        <ele>234.7</ele>
        <time>2017-03-11T07:02:36Z</time>
      </trkpt>
      <trkpt lat="43.34361" lon="-0.52861">
        <ele>236.62</ele>
        <time>2017-03-11T07:02:48Z</time>
      </trkpt>
      <trkpt lat="43.34353" lon="-0.52865">
        <ele>238.06</ele>
        <time>2017-03-11T07:02:53Z</time>
      </trkpt>
      <trkpt lat="43.34344" lon="-0.52879">
        <ele>238.54</ele>
        <time>2017-03-11T07:02:58Z</time>
      </trkpt>
      <trkpt lat="43.34321" lon="-0.52904">
        <ele>238.06</ele>
        <time>2017-03-11T07:03:07Z</time>
      </trkpt>
      <trkpt lat="43.34289" lon="-0.52929">
        <ele>235.18</ele>
        <time>2017-03-11T07:03:16Z</time>
      </trkpt>
      <trkpt lat="43.34275" lon="-0.52961">
        <ele>230.85</ele>
        <time>2017-03-11T07:03:22Z</time>
      </trkpt>
      <trkpt lat="43.34263" lon="-0.52987">
        <ele>227.49</ele>
        <time>2017-03-11T07:03:26Z</time>
      </trkpt>
      <trkpt lat="43.34224" lon="-0.53029">
        <ele>222.68</ele>
        <time>2017-03-11T07:03:35Z</time>
      </trkpt>
      <trkpt lat="43.34205" lon="-0.5306">
        <ele>223.16</ele>
        <time>2017-03-11T07:03:46Z</time>
      </trkpt>
      <trkpt lat="43.34202" lon="-0.53066">
        <ele>222.68</ele>
        <time>2017-03-11T07:03:47Z</time>
      </trkpt>
      <trkpt lat="43.34198" lon="-0.53071">
        <ele>222.2</ele>
        <time>2017-03-11T07:03:48Z</time>
      </trkpt>
      <trkpt lat="43.34184" lon="-0.5309">
        <ele>220.28</ele>
        <time>2017-03-11T07:03:51Z</time>
      </trkpt>
      <trkpt lat="43.34161" lon="-0.53144">
        <ele>214.99</ele>
        <time>2017-03-11T07:03:58Z</time>
      </trkpt>
      <trkpt lat="43.34159" lon="-0.53151">
        <ele>214.03</ele>
        <time>2017-03-11T07:03:59Z</time>
      </trkpt>
      <trkpt lat="43.34159" lon="-0.53159">
        <ele>213.55</ele>
        <time>2017-03-11T07:04:00Z</time>
      </trkpt>
      <trkpt lat="43.34158" lon="-0.53164">
        <ele>213.07</ele>
        <time>2017-03-11T07:04:01Z</time>
      </trkpt>
      <trkpt lat="43.34158" lon="-0.53169">
        <ele>213.07</ele>
        <time>2017-03-11T07:04:02Z</time>
      </trkpt>
      <trkpt lat="43.34157" lon="-0.53172">
        <ele>213.07</ele>
        <time>2017-03-11T07:04:03Z</time>
      </trkpt>
      <trkpt lat="43.34155" lon="-0.53174">
        <ele>213.07</ele>
        <time>2017-03-11T07:04:04Z</time>
      </trkpt>
      <trkpt lat="43.34154" lon="-0.53176">
        <ele>213.07</ele>
        <time>2017-03-11T07:04:05Z</time>
      </trkpt>
      <trkpt lat="43.3415" lon="-0.53177">
        <ele>213.07</ele>
        <time>2017-03-11T07:04:06Z</time>
      </trkpt>
      <trkpt lat="43.34147" lon="-0.53177">
        <ele>213.07</ele>
        <time>2017-03-11T07:04:07Z</time>
      </trkpt>
      <trkpt lat="43.34144" lon="-0.53176">
        <ele>213.07</ele>
        <time>2017-03-11T07:04:08Z</time>
      </trkpt>
      <trkpt lat="43.34139" lon="-0.53175">
        <ele>213.07</ele>
        <time>2017-03-11T07:04:09Z</time>
      </trkpt>
      <trkpt lat="43.34134" lon="-0.53174">
        <ele>213.07</ele>
        <time>2017-03-11T07:04:10Z</time>
      </trkpt>
      <trkpt lat="43.34125" lon="-0.53172">
        <ele>212.59</ele>
        <time>2017-03-11T07:04:12Z</time>
      </trkpt>
      <trkpt lat="43.34073" lon="-0.53175">
        <ele>209.22</ele>
        <time>2017-03-11T07:04:26Z</time>
      </trkpt>
      <trkpt lat="43.34057" lon="-0.53178">
        <ele>208.74</ele>
        <time>2017-03-11T07:04:35Z</time>
      </trkpt>
      <trkpt lat="43.34034" lon="-0.53178">
        <ele>207.78</ele>
        <time>2017-03-11T07:04:45Z</time>
      </trkpt>
      <trkpt lat="43.3402" lon="-0.53176">
        <ele>206.82</ele>
        <time>2017-03-11T07:04:48Z</time>
      </trkpt>
      <trkpt lat="43.33995" lon="-0.53167">
        <ele>205.38</ele>
        <time>2017-03-11T07:04:54Z</time>
      </trkpt>
      <trkpt lat="43.33993" lon="-0.53168">
        <ele>204.9</ele>
        <time>2017-03-11T07:04:55Z</time>
      </trkpt>
      <trkpt lat="43.33991" lon="-0.5317">
        <ele>204.42</ele>
        <time>2017-03-11T07:04:56Z</time>
      </trkpt>
      <trkpt lat="43.3399" lon="-0.53175">
        <ele>203.94</ele>
        <time>2017-03-11T07:04:58Z</time>
      </trkpt>
      <trkpt lat="43.33987" lon="-0.53192">
        <ele>202.49</ele>
        <time>2017-03-11T07:05:02Z</time>
      </trkpt>
      <trkpt lat="43.33979" lon="-0.53201">
        <ele>201.53</ele>
        <time>2017-03-11T07:05:05Z</time>
      </trkpt>
      <trkpt lat="43.33972" lon="-0.53207">
        <ele>200.57</ele>
        <time>2017-03-11T07:05:07Z</time>
      </trkpt>
      <trkpt lat="43.33956" lon="-0.53214">
        <ele>198.17</ele>
        <time>2017-03-11T07:05:11Z</time>
      </trkpt>
      <trkpt lat="43.3394" lon="-0.53217">
        <ele>194.8</ele>
        <time>2017-03-11T07:05:16Z</time>
      </trkpt>
      <trkpt lat="43.33938" lon="-0.53215">
        <ele>193.84</ele>
        <time>2017-03-11T07:05:18Z</time>
      </trkpt>
      <trkpt lat="43.33925" lon="-0.53212">
        <ele>190.48</ele>
        <time>2017-03-11T07:05:24Z</time>
      </trkpt>
      <trkpt lat="43.33916" lon="-0.53196">
        <ele>187.11</ele>
        <time>2017-03-11T07:05:30Z</time>
      </trkpt>
      <trkpt lat="43.33897" lon="-0.53201">
        <ele>182.79</ele>
        <time>2017-03-11T07:05:38Z</time>
      </trkpt>
      <trkpt lat="43.33887" lon="-0.53202">
        <ele>181.83</ele>
        <time>2017-03-11T07:05:40Z</time>
      </trkpt>
      <trkpt lat="43.33877" lon="-0.53199">
        <ele>180.38</ele>
        <time>2017-03-11T07:05:43Z</time>
      </trkpt>
      <trkpt lat="43.33852" lon="-0.53189">
        <ele>177.98</ele>
        <time>2017-03-11T07:05:55Z</time>
      </trkpt>
      <trkpt lat="43.33848" lon="-0.5318">
        <ele>177.5</ele>
        <time>2017-03-11T07:05:58Z</time>
      </trkpt>
      <trkpt lat="43.33831" lon="-0.53169">
        <ele>175.1</ele>
        <time>2017-03-11T07:06:06Z</time>
      </trkpt>
      <trkpt lat="43.3382" lon="-0.53157">
        <ele>171.25</ele>
        <time>2017-03-11T07:06:14Z</time>
      </trkpt>
      <trkpt lat="43.33801" lon="-0.53156">
        <ele>166.93</ele>
        <time>2017-03-11T07:06:20Z</time>
      </trkpt>
      <trkpt lat="43.3377" lon="-0.53162">
        <ele>162.12</ele>
        <time>2017-03-11T07:06:28Z</time>
      </trkpt>
      <trkpt lat="43.33726" lon="-0.53152">
        <ele>157.79</ele>
        <time>2017-03-11T07:06:37Z</time>
      </trkpt>
      <trkpt lat="43.33708" lon="-0.53137">
        <ele>154.43</ele>
        <time>2017-03-11T07:06:42Z</time>
      </trkpt>
      <trkpt lat="43.33685" lon="-0.53129">
        <ele>151.54</ele>
        <time>2017-03-11T07:06:48Z</time>
      </trkpt>
      <trkpt lat="43.33648" lon="-0.53159">
        <ele>148.66</ele>
        <time>2017-03-11T07:06:56Z</time>
      </trkpt>
      <trkpt lat="43.33636" lon="-0.53159">
        <ele>147.22</ele>
        <time>2017-03-11T07:06:58Z</time>
      </trkpt>
      <trkpt lat="43.3361" lon="-0.53178">
        <ele>143.37</ele>
        <time>2017-03-11T07:07:06Z</time>
      </trkpt>
      <trkpt lat="43.33581" lon="-0.53168">
        <ele>140.49</ele>
        <time>2017-03-11T07:07:13Z</time>
      </trkpt>
      <trkpt lat="43.33555" lon="-0.53176">
        <ele>140.01</ele>
        <time>2017-03-11T07:07:20Z</time>
      </trkpt>
      <trkpt lat="43.33532" lon="-0.532">
        <ele>139.05</ele>
        <time>2017-03-11T07:07:26Z</time>
      </trkpt>
      <trkpt lat="43.33512" lon="-0.53208">
        <ele>137.61</ele>
        <time>2017-03-11T07:07:30Z</time>
      </trkpt>
      <trkpt lat="43.33496" lon="-0.53221">
        <ele>136.16</ele>
        <time>2017-03-11T07:07:35Z</time>
      </trkpt>
      <trkpt lat="43.33494" lon="-0.53224">
        <ele>136.16</ele>
        <time>2017-03-11T07:07:36Z</time>
      </trkpt>
      <trkpt lat="43.33492" lon="-0.53227">
        <ele>135.68</ele>
        <time>2017-03-11T07:07:37Z</time>
      </trkpt>
      <trkpt lat="43.33486" lon="-0.53231">
        <ele>135.68</ele>
        <time>2017-03-11T07:07:48Z</time>
      </trkpt>
      <trkpt lat="43.33482" lon="-0.53236">
        <ele>138.57</ele>
        <time>2017-03-11T07:08:14Z</time>
      </trkpt>
      <trkpt lat="43.33477" lon="-0.53237">
        <ele>138.09</ele>
        <time>2017-03-11T07:08:40Z</time>
      </trkpt>
      <trkpt lat="43.33467" lon="-0.53244">
        <ele>135.2</ele>
        <time>2017-03-11T07:08:45Z</time>
      </trkpt>
      <trkpt lat="43.33461" lon="-0.53237">
        <ele>134.24</ele>
        <time>2017-03-11T07:08:50Z</time>
      </trkpt>
      <trkpt lat="43.3346" lon="-0.53234">
        <ele>133.76</ele>
        <time>2017-03-11T07:08:51Z</time>
      </trkpt>
      <trkpt lat="43.33461" lon="-0.53232">
        <ele>133.76</ele>
        <time>2017-03-11T07:08:52Z</time>
      </trkpt>
      <trkpt lat="43.33462" lon="-0.5323">
        <ele>133.76</ele>
        <time>2017-03-11T07:08:53Z</time>
      </trkpt>
      <trkpt lat="43.33463" lon="-0.53227">
        <ele>133.76</ele>
        <time>2017-03-11T07:08:54Z</time>
      </trkpt>
      <trkpt lat="43.33465" lon="-0.53224">
        <ele>133.76</ele>
        <time>2017-03-11T07:08:55Z</time>
      </trkpt>
      <trkpt lat="43.33467" lon="-0.53222">
        <ele>133.76</ele>
        <time>2017-03-11T07:08:56Z</time>
      </trkpt>
      <trkpt lat="43.33469" lon="-0.53219">
        <ele>133.76</ele>
        <time>2017-03-11T07:08:57Z</time>
      </trkpt>
      <trkpt lat="43.3347" lon="-0.53216">
        <ele>134.24</ele>
        <time>2017-03-11T07:08:58Z</time>
      </trkpt>
      <trkpt lat="43.33472" lon="-0.53214">
        <ele>134.24</ele>
        <time>2017-03-11T07:08:59Z</time>
      </trkpt>
      <trkpt lat="43.33475" lon="-0.53196">
        <ele>134.72</ele>
        <time>2017-03-11T07:09:05Z</time>
      </trkpt>
      <trkpt lat="43.33474" lon="-0.53193">
        <ele>135.2</ele>
        <time>2017-03-11T07:09:06Z</time>
      </trkpt>
      <trkpt lat="43.33472" lon="-0.53191">
        <ele>135.68</ele>
        <time>2017-03-11T07:09:07Z</time>
      </trkpt>
      <trkpt lat="43.3347" lon="-0.53189">
        <ele>135.68</ele>
        <time>2017-03-11T07:09:08Z</time>
      </trkpt>
      <trkpt lat="43.33468" lon="-0.53187">
        <ele>135.68</ele>
        <time>2017-03-11T07:09:09Z</time>
      </trkpt>
      <trkpt lat="43.33434" lon="-0.53194">
        <ele>134.72</ele>
        <time>2017-03-11T07:09:21Z</time>
      </trkpt>
      <trkpt lat="43.33397" lon="-0.53207">
        <ele>129.92</ele>
        <time>2017-03-11T07:09:34Z</time>
      </trkpt>
      <trkpt lat="43.33354" lon="-0.53203">
        <ele>131.36</ele>
        <time>2017-03-11T07:09:49Z</time>
      </trkpt>
      <trkpt lat="43.33334" lon="-0.53162">
        <ele>131.36</ele>
        <time>2017-03-11T07:10:00Z</time>
      </trkpt>
      <trkpt lat="43.33314" lon="-0.53089">
        <ele>135.68</ele>
        <time>2017-03-11T07:10:15Z</time>
      </trkpt>
      <trkpt lat="43.33302" lon="-0.53051">
        <ele>135.68</ele>
        <time>2017-03-11T07:10:23Z</time>
      </trkpt>
      <trkpt lat="43.33299" lon="-0.53046">
        <ele>135.68</ele>
        <time>2017-03-11T07:10:24Z</time>
      </trkpt>
      <trkpt lat="43.33296" lon="-0.5304">
        <ele>136.16</ele>
        <time>2017-03-11T07:10:25Z</time>
      </trkpt>
      <trkpt lat="43.33277" lon="-0.53013">
        <ele>135.68</ele>
        <time>2017-03-11T07:10:30Z</time>
      </trkpt>
      <trkpt lat="43.33221" lon="-0.52958">
        <ele>134.72</ele>
        <time>2017-03-11T07:10:43Z</time>
      </trkpt>
      <trkpt lat="43.33199" lon="-0.5294">
        <ele>133.28</ele>
        <time>2017-03-11T07:10:49Z</time>
      </trkpt>
      <trkpt lat="43.33196" lon="-0.52936">
        <ele>133.28</ele>
        <time>2017-03-11T07:10:50Z</time>
      </trkpt>
      <trkpt lat="43.33193" lon="-0.52932">
        <ele>133.76</ele>
        <time>2017-03-11T07:10:51Z</time>
      </trkpt>
      <trkpt lat="43.33173" lon="-0.52906">
        <ele>134.72</ele>
        <time>2017-03-11T07:10:57Z</time>
      </trkpt>
      <trkpt lat="43.33134" lon="-0.52839">
        <ele>137.13</ele>
        <time>2017-03-11T07:11:11Z</time>
      </trkpt>
      <trkpt lat="43.33101" lon="-0.52797">
        <ele>137.13</ele>
        <time>2017-03-11T07:11:22Z</time>
      </trkpt>
      <trkpt lat="43.33084" lon="-0.52768">
        <ele>137.13</ele>
        <time>2017-03-11T07:11:28Z</time>
      </trkpt>
      <trkpt lat="43.33081" lon="-0.52764">
        <ele>137.13</ele>
        <time>2017-03-11T07:11:29Z</time>
      </trkpt>
      <trkpt lat="43.33079" lon="-0.52759">
        <ele>137.61</ele>
        <time>2017-03-11T07:11:30Z</time>
      </trkpt>
      <trkpt lat="43.33076" lon="-0.52754">
        <ele>137.61</ele>
        <time>2017-03-11T07:11:31Z</time>
      </trkpt>
      <trkpt lat="43.33075" lon="-0.52749">
        <ele>138.09</ele>
        <time>2017-03-11T07:11:32Z</time>
      </trkpt>
      <trkpt lat="43.33073" lon="-0.52744">
        <ele>138.57</ele>
        <time>2017-03-11T07:11:33Z</time>
      </trkpt>
      <trkpt lat="43.33071" lon="-0.52739">
        <ele>139.05</ele>
        <time>2017-03-11T07:11:34Z</time>
      </trkpt>
      <trkpt lat="43.3307" lon="-0.52734">
        <ele>139.05</ele>
        <time>2017-03-11T07:11:35Z</time>
      </trkpt>
      <trkpt lat="43.3305" lon="-0.52661">
        <ele>140.01</ele>
        <time>2017-03-11T07:11:48Z</time>
      </trkpt>
      <trkpt lat="43.33027" lon="-0.52608">
        <ele>143.37</ele>
        <time>2017-03-11T07:11:59Z</time>
      </trkpt>
      <trkpt lat="43.33008" lon="-0.52561">
        <ele>145.78</ele>
        <time>2017-03-11T07:12:10Z</time>
      </trkpt>
      <trkpt lat="43.32982" lon="-0.52502">
        <ele>147.7</ele>
        <time>2017-03-11T07:12:23Z</time>
      </trkpt>
      <trkpt lat="43.32962" lon="-0.52437">
        <ele>147.22</ele>
        <time>2017-03-11T07:12:37Z</time>
      </trkpt>
      <trkpt lat="43.32947" lon="-0.52359">
        <ele>145.78</ele>
        <time>2017-03-11T07:12:52Z</time>
      </trkpt>
      <trkpt lat="43.32934" lon="-0.52307">
        <ele>147.22</ele>
        <time>2017-03-11T07:13:02Z</time>
      </trkpt>
      <trkpt lat="43.3293" lon="-0.52302">
        <ele>147.22</ele>
        <time>2017-03-11T07:13:03Z</time>
      </trkpt>
      <trkpt lat="43.32926" lon="-0.52297">
        <ele>146.74</ele>
        <time>2017-03-11T07:13:04Z</time>
      </trkpt>
      <trkpt lat="43.32916" lon="-0.52291">
        <ele>145.78</ele>
        <time>2017-03-11T07:13:06Z</time>
      </trkpt>
      <trkpt lat="43.32911" lon="-0.52288">
        <ele>145.78</ele>
        <time>2017-03-11T07:13:07Z</time>
      </trkpt>
      <trkpt lat="43.32905" lon="-0.52287">
        <ele>144.82</ele>
        <time>2017-03-11T07:13:08Z</time>
      </trkpt>
      <trkpt lat="43.32823" lon="-0.52285">
        <ele>137.61</ele>
        <time>2017-03-11T07:13:20Z</time>
      </trkpt>
      <trkpt lat="43.32816" lon="-0.52282">
        <ele>136.64</ele>
        <time>2017-03-11T07:13:21Z</time>
      </trkpt>
      <trkpt lat="43.32762" lon="-0.5225">
        <ele>130.4</ele>
        <time>2017-03-11T07:13:29Z</time>
      </trkpt>
      <trkpt lat="43.32707" lon="-0.52216">
        <ele>126.07</ele>
        <time>2017-03-11T07:13:40Z</time>
      </trkpt>
      <trkpt lat="43.32676" lon="-0.52192">
        <ele>126.07</ele>
        <time>2017-03-11T07:13:48Z</time>
      </trkpt>
      <trkpt lat="43.32672" lon="-0.52189">
        <ele>126.55</ele>
        <time>2017-03-11T07:13:49Z</time>
      </trkpt>
      <trkpt lat="43.32668" lon="-0.52185">
        <ele>127.03</ele>
        <time>2017-03-11T07:13:50Z</time>
      </trkpt>
      <trkpt lat="43.32665" lon="-0.52181">
        <ele>127.03</ele>
        <time>2017-03-11T07:13:51Z</time>
      </trkpt>
      <trkpt lat="43.32661" lon="-0.52177">
        <ele>127.51</ele>
        <time>2017-03-11T07:13:52Z</time>
      </trkpt>
      <trkpt lat="43.32658" lon="-0.52173">
        <ele>127.51</ele>
        <time>2017-03-11T07:13:53Z</time>
      </trkpt>
      <trkpt lat="43.32607" lon="-0.52102">
        <ele>130.4</ele>
        <time>2017-03-11T07:14:09Z</time>
      </trkpt>
      <trkpt lat="43.32569" lon="-0.52041">
        <ele>134.24</ele>
        <time>2017-03-11T07:14:24Z</time>
      </trkpt>
      <trkpt lat="43.32533" lon="-0.51989">
        <ele>138.57</ele>
        <time>2017-03-11T07:14:39Z</time>
      </trkpt>
      <trkpt lat="43.32488" lon="-0.51949">
        <ele>138.57</ele>
        <time>2017-03-11T07:14:53Z</time>
      </trkpt>
      <trkpt lat="43.32477" lon="-0.51941">
        <ele>138.09</ele>
        <time>2017-03-11T07:14:56Z</time>
      </trkpt>
      <trkpt lat="43.32414" lon="-0.51891">
        <ele>133.28</ele>
        <time>2017-03-11T07:15:10Z</time>
      </trkpt>
      <trkpt lat="43.32341" lon="-0.51826">
        <ele>126.55</ele>
        <time>2017-03-11T07:15:24Z</time>
      </trkpt>
      <trkpt lat="43.32337" lon="-0.51822">
        <ele>126.55</ele>
        <time>2017-03-11T07:15:25Z</time>
      </trkpt>
      <trkpt lat="43.32311" lon="-0.51797">
        <ele>128.47</ele>
        <time>2017-03-11T07:15:32Z</time>
      </trkpt>
      <trkpt lat="43.32308" lon="-0.51793">
        <ele>128.95</ele>
        <time>2017-03-11T07:15:33Z</time>
      </trkpt>
      <trkpt lat="43.32281" lon="-0.51747">
        <ele>131.36</ele>
        <time>2017-03-11T07:15:45Z</time>
      </trkpt>
      <trkpt lat="43.3225" lon="-0.51691">
        <ele>139.05</ele>
        <time>2017-03-11T07:15:59Z</time>
      </trkpt>
      <trkpt lat="43.32209" lon="-0.51643">
        <ele>142.41</ele>
        <time>2017-03-11T07:16:13Z</time>
      </trkpt>
      <trkpt lat="43.32172" lon="-0.51604">
        <ele>141.93</ele>
        <time>2017-03-11T07:16:25Z</time>
      </trkpt>
      <trkpt lat="43.3213" lon="-0.51572">
        <ele>144.34</ele>
        <time>2017-03-11T07:16:38Z</time>
      </trkpt>
      <trkpt lat="43.32093" lon="-0.51537">
        <ele>145.78</ele>
        <time>2017-03-11T07:16:52Z</time>
      </trkpt>
      <trkpt lat="43.32052" lon="-0.51499">
        <ele>148.18</ele>
        <time>2017-03-11T07:17:06Z</time>
      </trkpt>
      <trkpt lat="43.32029" lon="-0.51453">
        <ele>150.1</ele>
        <time>2017-03-11T07:17:19Z</time>
      </trkpt>
      <trkpt lat="43.32022" lon="-0.51446">
        <ele>149.62</ele>
        <time>2017-03-11T07:17:21Z</time>
      </trkpt>
      <trkpt lat="43.32017" lon="-0.51443">
        <ele>149.14</ele>
        <time>2017-03-11T07:17:22Z</time>
      </trkpt>
      <trkpt lat="43.32012" lon="-0.51441">
        <ele>148.66</ele>
        <time>2017-03-11T07:17:23Z</time>
      </trkpt>
      <trkpt lat="43.32008" lon="-0.51439">
        <ele>148.18</ele>
        <time>2017-03-11T07:17:24Z</time>
      </trkpt>
      <trkpt lat="43.32003" lon="-0.51438">
        <ele>147.22</ele>
        <time>2017-03-11T07:17:25Z</time>
      </trkpt>
      <trkpt lat="43.31999" lon="-0.51438">
        <ele>147.22</ele>
        <time>2017-03-11T07:17:26Z</time>
      </trkpt>
      <trkpt lat="43.31989" lon="-0.51436">
        <ele>146.26</ele>
        <time>2017-03-11T07:17:28Z</time>
      </trkpt>
      <trkpt lat="43.31984" lon="-0.51434">
        <ele>145.78</ele>
        <time>2017-03-11T07:17:29Z</time>
      </trkpt>
      <trkpt lat="43.31979" lon="-0.5143">
        <ele>145.78</ele>
        <time>2017-03-11T07:17:30Z</time>
      </trkpt>
      <trkpt lat="43.31971" lon="-0.51421">
        <ele>144.82</ele>
        <time>2017-03-11T07:17:32Z</time>
      </trkpt>
      <trkpt lat="43.31966" lon="-0.51419">
        <ele>144.34</ele>
        <time>2017-03-11T07:17:33Z</time>
      </trkpt>
      <trkpt lat="43.31956" lon="-0.51415">
        <ele>144.34</ele>
        <time>2017-03-11T07:17:35Z</time>
      </trkpt>
      <trkpt lat="43.31947" lon="-0.51412">
        <ele>144.34</ele>
        <time>2017-03-11T07:17:37Z</time>
      </trkpt>
      <trkpt lat="43.31931" lon="-0.51402">
        <ele>143.85</ele>
        <time>2017-03-11T07:17:41Z</time>
      </trkpt>
      <trkpt lat="43.31928" lon="-0.51399">
        <ele>143.85</ele>
        <time>2017-03-11T07:17:42Z</time>
      </trkpt>
      <trkpt lat="43.31926" lon="-0.51395">
        <ele>143.85</ele>
        <time>2017-03-11T07:17:43Z</time>
      </trkpt>
      <trkpt lat="43.31924" lon="-0.51391">
        <ele>143.85</ele>
        <time>2017-03-11T07:17:44Z</time>
      </trkpt>
      <trkpt lat="43.31923" lon="-0.51387">
        <ele>143.37</ele>
        <time>2017-03-11T07:17:45Z</time>
      </trkpt>
      <trkpt lat="43.31907" lon="-0.51354">
        <ele>146.26</ele>
        <time>2017-03-11T07:17:58Z</time>
      </trkpt>
      <trkpt lat="43.31907" lon="-0.51308">
        <ele>149.62</ele>
        <time>2017-03-11T07:18:11Z</time>
      </trkpt>
      <trkpt lat="43.31912" lon="-0.51259">
        <ele>152.99</ele>
        <time>2017-03-11T07:18:25Z</time>
      </trkpt>
      <trkpt lat="43.31911" lon="-0.51257">
        <ele>153.47</ele>
        <time>2017-03-11T07:18:26Z</time>
      </trkpt>
      <trkpt lat="43.31911" lon="-0.51255">
        <ele>153.95</ele>
        <time>2017-03-11T07:18:27Z</time>
      </trkpt>
      <trkpt lat="43.31911" lon="-0.51252">
        <ele>153.47</ele>
        <time>2017-03-11T07:18:28Z</time>
      </trkpt>
      <trkpt lat="43.31911" lon="-0.5125">
        <ele>153.95</ele>
        <time>2017-03-11T07:18:29Z</time>
      </trkpt>
      <trkpt lat="43.31911" lon="-0.51247">
        <ele>153.95</ele>
        <time>2017-03-11T07:18:30Z</time>
      </trkpt>
      <trkpt lat="43.3191" lon="-0.51244">
        <ele>153.95</ele>
        <time>2017-03-11T07:18:31Z</time>
      </trkpt>
      <trkpt lat="43.3191" lon="-0.51242">
        <ele>153.47</ele>
        <time>2017-03-11T07:18:32Z</time>
      </trkpt>
      <trkpt lat="43.3191" lon="-0.51239">
        <ele>153.47</ele>
        <time>2017-03-11T07:18:33Z</time>
      </trkpt>
      <trkpt lat="43.3191" lon="-0.51236">
        <ele>153.47</ele>
        <time>2017-03-11T07:18:34Z</time>
      </trkpt>
      <trkpt lat="43.3191" lon="-0.51232">
        <ele>153.47</ele>
        <time>2017-03-11T07:18:35Z</time>
      </trkpt>
      <trkpt lat="43.3191" lon="-0.51229">
        <ele>152.99</ele>
        <time>2017-03-11T07:18:36Z</time>
      </trkpt>
      <trkpt lat="43.31907" lon="-0.51184">
        <ele>152.51</ele>
        <time>2017-03-11T07:18:49Z</time>
      </trkpt>
      <trkpt lat="43.31907" lon="-0.51163">
        <ele>151.54</ele>
        <time>2017-03-11T07:18:55Z</time>
      </trkpt>
      <trkpt lat="43.31907" lon="-0.5116">
        <ele>151.54</ele>
        <time>2017-03-11T07:18:56Z</time>
      </trkpt>
      <trkpt lat="43.31907" lon="-0.51157">
        <ele>151.54</ele>
        <time>2017-03-11T07:18:57Z</time>
      </trkpt>
      <trkpt lat="43.31908" lon="-0.51153">
        <ele>152.03</ele>
        <time>2017-03-11T07:18:58Z</time>
      </trkpt>
      <trkpt lat="43.31908" lon="-0.5115">
        <ele>152.03</ele>
        <time>2017-03-11T07:18:59Z</time>
      </trkpt>
      <trkpt lat="43.3191" lon="-0.51238">
        <ele>189.04</ele>
        <time>2017-03-11T07:22:41Z</time>
      </trkpt>
      <trkpt lat="43.31814" lon="-0.50863">
        <ele>179.42</ele>
        <time>2017-03-11T07:22:52Z</time>
      </trkpt>
      <trkpt lat="43.31812" lon="-0.50859">
        <ele>176.54</ele>
        <time>2017-03-11T07:22:55Z</time>
      </trkpt>
      <trkpt lat="43.31807" lon="-0.5084">
        <ele>174.14</ele>
        <time>2017-03-11T07:23:05Z</time>
      </trkpt>
      <trkpt lat="43.31805" lon="-0.50807">
        <ele>168.85</ele>
        <time>2017-03-11T07:23:14Z</time>
      </trkpt>
      <trkpt lat="43.31809" lon="-0.50776">
        <ele>167.89</ele>
        <time>2017-03-11T07:23:28Z</time>
      </trkpt>
      <trkpt lat="43.31811" lon="-0.50766">
        <ele>166.93</ele>
        <time>2017-03-11T07:23:32Z</time>
      </trkpt>
      <trkpt lat="43.31812" lon="-0.50764">
        <ele>166.45</ele>
        <time>2017-03-11T07:23:33Z</time>
      </trkpt>
      <trkpt lat="43.31813" lon="-0.50761">
        <ele>166.45</ele>
        <time>2017-03-11T07:23:34Z</time>
      </trkpt>
      <trkpt lat="43.31817" lon="-0.50734">
        <ele>165</ele>
        <time>2017-03-11T07:23:47Z</time>
      </trkpt>
      <trkpt lat="43.31817" lon="-0.50731">
        <ele>165</ele>
        <time>2017-03-11T07:23:48Z</time>
      </trkpt>
      <trkpt lat="43.31818" lon="-0.50728">
        <ele>164.52</ele>
        <time>2017-03-11T07:23:49Z</time>
      </trkpt>
      <trkpt lat="43.31821" lon="-0.50719">
        <ele>161.64</ele>
        <time>2017-03-11T07:23:52Z</time>
      </trkpt>
      <trkpt lat="43.31822" lon="-0.50716">
        <ele>160.68</ele>
        <time>2017-03-11T07:23:53Z</time>
      </trkpt>
      <trkpt lat="43.31822" lon="-0.50713">
        <ele>160.2</ele>
        <time>2017-03-11T07:23:54Z</time>
      </trkpt>
      <trkpt lat="43.31823" lon="-0.50711">
        <ele>159.24</ele>
        <time>2017-03-11T07:23:55Z</time>
      </trkpt>
      <trkpt lat="43.31824" lon="-0.50708">
        <ele>158.75</ele>
        <time>2017-03-11T07:23:56Z</time>
      </trkpt>
      <trkpt lat="43.31832" lon="-0.50672">
        <ele>153.47</ele>
        <time>2017-03-11T07:24:08Z</time>
      </trkpt>
      <trkpt lat="43.31828" lon="-0.50653">
        <ele>152.51</ele>
        <time>2017-03-11T07:24:16Z</time>
      </trkpt>
      <trkpt lat="43.31829" lon="-0.50635">
        <ele>153.95</ele>
        <time>2017-03-11T07:24:25Z</time>
      </trkpt>
      <trkpt lat="43.31829" lon="-0.50633">
        <ele>154.43</ele>
        <time>2017-03-11T07:24:26Z</time>
      </trkpt>
      <trkpt lat="43.31831" lon="-0.50621">
        <ele>155.87</ele>
        <time>2017-03-11T07:24:32Z</time>
      </trkpt>
      <trkpt lat="43.31834" lon="-0.50601">
        <ele>156.83</ele>
        <time>2017-03-11T07:24:45Z</time>
      </trkpt>
      <trkpt lat="43.31835" lon="-0.50582">
        <ele>161.16</ele>
        <time>2017-03-11T07:24:57Z</time>
      </trkpt>
      <trkpt lat="43.31834" lon="-0.50562">
        <ele>163.56</ele>
        <time>2017-03-11T07:25:09Z</time>
      </trkpt>
      <trkpt lat="43.31835" lon="-0.50542">
        <ele>165.48</ele>
        <time>2017-03-11T07:25:21Z</time>
      </trkpt>
      <trkpt lat="43.31837" lon="-0.50528">
        <ele>168.85</ele>
        <time>2017-03-11T07:25:32Z</time>
      </trkpt>
      <trkpt lat="43.31839" lon="-0.50512">
        <ele>173.17</ele>
        <time>2017-03-11T07:25:43Z</time>
      </trkpt>
      <trkpt lat="43.31839" lon="-0.50509">
        <ele>173.17</ele>
        <time>2017-03-11T07:25:45Z</time>
      </trkpt>
      <trkpt lat="43.31839" lon="-0.50507">
        <ele>173.17</ele>
        <time>2017-03-11T07:25:46Z</time>
      </trkpt>
      <trkpt lat="43.31838" lon="-0.50505">
        <ele>172.69</ele>
        <time>2017-03-11T07:25:47Z</time>
      </trkpt>
      <trkpt lat="43.31831" lon="-0.5048">
        <ele>170.29</ele>
        <time>2017-03-11T07:26:00Z</time>
      </trkpt>
      <trkpt lat="43.31827" lon="-0.50458">
        <ele>168.85</ele>
        <time>2017-03-11T07:26:12Z</time>
      </trkpt>
      <trkpt lat="43.31827" lon="-0.50457">
        <ele>168.85</ele>
        <time>2017-03-11T07:26:13Z</time>
      </trkpt>
      <trkpt lat="43.31827" lon="-0.50455">
        <ele>169.33</ele>
        <time>2017-03-11T07:26:14Z</time>
      </trkpt>
      <trkpt lat="43.31828" lon="-0.50453">
        <ele>169.33</ele>
        <time>2017-03-11T07:26:15Z</time>
      </trkpt>
      <trkpt lat="43.31828" lon="-0.50451">
        <ele>169.81</ele>
        <time>2017-03-11T07:26:16Z</time>
      </trkpt>
      <trkpt lat="43.31827" lon="-0.5045">
        <ele>169.81</ele>
        <time>2017-03-11T07:26:17Z</time>
      </trkpt>
      <trkpt lat="43.31823" lon="-0.50434">
        <ele>173.66</ele>
        <time>2017-03-11T07:26:29Z</time>
      </trkpt>
      <trkpt lat="43.31819" lon="-0.50411">
        <ele>177.98</ele>
        <time>2017-03-11T07:26:42Z</time>
      </trkpt>
      <trkpt lat="43.31813" lon="-0.50391">
        <ele>178.94</ele>
        <time>2017-03-11T07:26:55Z</time>
      </trkpt>
      <trkpt lat="43.31812" lon="-0.50389">
        <ele>178.94</ele>
        <time>2017-03-11T07:26:56Z</time>
      </trkpt>
      <trkpt lat="43.31809" lon="-0.50375">
        <ele>180.38</ele>
        <time>2017-03-11T07:27:06Z</time>
      </trkpt>
      <trkpt lat="43.31808" lon="-0.50374">
        <ele>180.87</ele>
        <time>2017-03-11T07:27:07Z</time>
      </trkpt>
      <trkpt lat="43.31807" lon="-0.50372">
        <ele>181.35</ele>
        <time>2017-03-11T07:27:08Z</time>
      </trkpt>
      <trkpt lat="43.31806" lon="-0.50371">
        <ele>181.35</ele>
        <time>2017-03-11T07:27:09Z</time>
      </trkpt>
      <trkpt lat="43.31805" lon="-0.50369">
        <ele>181.83</ele>
        <time>2017-03-11T07:27:10Z</time>
      </trkpt>
      <trkpt lat="43.31805" lon="-0.50368">
        <ele>181.83</ele>
        <time>2017-03-11T07:27:11Z</time>
      </trkpt>
      <trkpt lat="43.31804" lon="-0.50366">
        <ele>181.83</ele>
        <time>2017-03-11T07:27:12Z</time>
      </trkpt>
      <trkpt lat="43.31803" lon="-0.50364">
        <ele>182.31</ele>
        <time>2017-03-11T07:27:13Z</time>
      </trkpt>
      <trkpt lat="43.31802" lon="-0.50363">
        <ele>181.83</ele>
        <time>2017-03-11T07:27:14Z</time>
      </trkpt>
      <trkpt lat="43.31801" lon="-0.50361">
        <ele>181.83</ele>
        <time>2017-03-11T07:27:15Z</time>
      </trkpt>
      <trkpt lat="43.31798" lon="-0.50358">
        <ele>181.83</ele>
        <time>2017-03-11T07:27:17Z</time>
      </trkpt>
      <trkpt lat="43.31797" lon="-0.50356">
        <ele>182.31</ele>
        <time>2017-03-11T07:27:18Z</time>
      </trkpt>
      <trkpt lat="43.31792" lon="-0.50345">
        <ele>184.23</ele>
        <time>2017-03-11T07:27:25Z</time>
      </trkpt>
      <trkpt lat="43.31791" lon="-0.50343">
        <ele>184.23</ele>
        <time>2017-03-11T07:27:26Z</time>
      </trkpt>
      <trkpt lat="43.31791" lon="-0.50332">
        <ele>188.08</ele>
        <time>2017-03-11T07:27:33Z</time>
      </trkpt>
      <trkpt lat="43.31791" lon="-0.50331">
        <ele>188.08</ele>
        <time>2017-03-11T07:27:34Z</time>
      </trkpt>
      <trkpt lat="43.31793" lon="-0.50331">
        <ele>188.56</ele>
        <time>2017-03-11T07:27:35Z</time>
      </trkpt>
      <trkpt lat="43.31796" lon="-0.50331">
        <ele>189.52</ele>
        <time>2017-03-11T07:27:39Z</time>
      </trkpt>
      <trkpt lat="43.3182" lon="-0.50339">
        <ele>196.25</ele>
        <time>2017-03-11T07:27:58Z</time>
      </trkpt>
      <trkpt lat="43.31833" lon="-0.50347">
        <ele>200.57</ele>
        <time>2017-03-11T07:28:09Z</time>
      </trkpt>
      <trkpt lat="43.31834" lon="-0.50347">
        <ele>200.57</ele>
        <time>2017-03-11T07:28:10Z</time>
      </trkpt>
      <trkpt lat="43.31849" lon="-0.50359">
        <ele>202.98</ele>
        <time>2017-03-11T07:28:24Z</time>
      </trkpt>
      <trkpt lat="43.31853" lon="-0.50361">
        <ele>204.9</ele>
        <time>2017-03-11T07:28:27Z</time>
      </trkpt>
      <trkpt lat="43.31868" lon="-0.50375">
        <ele>207.3</ele>
        <time>2017-03-11T07:28:42Z</time>
      </trkpt>
      <trkpt lat="43.31878" lon="-0.50383">
        <ele>208.26</ele>
        <time>2017-03-11T07:28:53Z</time>
      </trkpt>
      <trkpt lat="43.31903" lon="-0.50401">
        <ele>203.94</ele>
        <time>2017-03-11T07:29:11Z</time>
      </trkpt>
      <trkpt lat="43.31923" lon="-0.50416">
        <ele>201.53</ele>
        <time>2017-03-11T07:29:27Z</time>
      </trkpt>
      <trkpt lat="43.31945" lon="-0.50431">
        <ele>203.46</ele>
        <time>2017-03-11T07:29:44Z</time>
      </trkpt>
      <trkpt lat="43.31948" lon="-0.50431">
        <ele>204.42</ele>
        <time>2017-03-11T07:29:46Z</time>
      </trkpt>
      <trkpt lat="43.31949" lon="-0.5043">
        <ele>205.38</ele>
        <time>2017-03-11T07:29:47Z</time>
      </trkpt>
      <trkpt lat="43.3195" lon="-0.5043">
        <ele>205.86</ele>
        <time>2017-03-11T07:29:48Z</time>
      </trkpt>
      <trkpt lat="43.31951" lon="-0.50429">
        <ele>205.86</ele>
        <time>2017-03-11T07:29:49Z</time>
      </trkpt>
      <trkpt lat="43.31952" lon="-0.50428">
        <ele>205.86</ele>
        <time>2017-03-11T07:29:50Z</time>
      </trkpt>
      <trkpt lat="43.31953" lon="-0.50426">
        <ele>206.34</ele>
        <time>2017-03-11T07:29:51Z</time>
      </trkpt>
      <trkpt lat="43.31954" lon="-0.50425">
        <ele>206.34</ele>
        <time>2017-03-11T07:29:52Z</time>
      </trkpt>
      <trkpt lat="43.31955" lon="-0.50424">
        <ele>206.82</ele>
        <time>2017-03-11T07:29:53Z</time>
      </trkpt>
      <trkpt lat="43.31956" lon="-0.50422">
        <ele>207.3</ele>
        <time>2017-03-11T07:29:54Z</time>
      </trkpt>
      <trkpt lat="43.31957" lon="-0.5042">
        <ele>207.78</ele>
        <time>2017-03-11T07:29:55Z</time>
      </trkpt>
      <trkpt lat="43.31957" lon="-0.50418">
        <ele>207.78</ele>
        <time>2017-03-11T07:29:56Z</time>
      </trkpt>
      <trkpt lat="43.31958" lon="-0.50416">
        <ele>208.26</ele>
        <time>2017-03-11T07:29:57Z</time>
      </trkpt>
      <trkpt lat="43.31958" lon="-0.50415">
        <ele>208.26</ele>
        <time>2017-03-11T07:29:58Z</time>
      </trkpt>
      <trkpt lat="43.31958" lon="-0.50413">
        <ele>208.26</ele>
        <time>2017-03-11T07:29:59Z</time>
      </trkpt>
      <trkpt lat="43.31959" lon="-0.50412">
        <ele>208.26</ele>
        <time>2017-03-11T07:30:00Z</time>
      </trkpt>
      <trkpt lat="43.31959" lon="-0.5041">
        <ele>208.26</ele>
        <time>2017-03-11T07:30:01Z</time>
      </trkpt>
      <trkpt lat="43.31958" lon="-0.50408">
        <ele>208.26</ele>
        <time>2017-03-11T07:30:02Z</time>
      </trkpt>
      <trkpt lat="43.31958" lon="-0.50407">
        <ele>208.26</ele>
        <time>2017-03-11T07:30:03Z</time>
      </trkpt>
      <trkpt lat="43.31957" lon="-0.50405">
        <ele>207.78</ele>
        <time>2017-03-11T07:30:04Z</time>
      </trkpt>
      <trkpt lat="43.31957" lon="-0.50403">
        <ele>207.3</ele>
        <time>2017-03-11T07:30:05Z</time>
      </trkpt>
      <trkpt lat="43.31956" lon="-0.50401">
        <ele>207.3</ele>
        <time>2017-03-11T07:30:06Z</time>
      </trkpt>
      <trkpt lat="43.31956" lon="-0.50399">
        <ele>207.3</ele>
        <time>2017-03-11T07:30:07Z</time>
      </trkpt>
      <trkpt lat="43.31955" lon="-0.50396">
        <ele>207.3</ele>
        <time>2017-03-11T07:30:08Z</time>
      </trkpt>
      <trkpt lat="43.31948" lon="-0.50369">
        <ele>204.9</ele>
        <time>2017-03-11T07:30:20Z</time>
      </trkpt>
      <trkpt lat="43.31946" lon="-0.50363">
        <ele>203.94</ele>
        <time>2017-03-11T07:30:23Z</time>
      </trkpt>
      <trkpt lat="43.31946" lon="-0.50361">
        <ele>204.42</ele>
        <time>2017-03-11T07:30:24Z</time>
      </trkpt>
      <trkpt lat="43.31946" lon="-0.50358">
        <ele>203.94</ele>
        <time>2017-03-11T07:30:25Z</time>
      </trkpt>
      <trkpt lat="43.31943" lon="-0.50331">
        <ele>203.94</ele>
        <time>2017-03-11T07:30:41Z</time>
      </trkpt>
      <trkpt lat="43.31941" lon="-0.50326">
        <ele>204.42</ele>
        <time>2017-03-11T07:30:44Z</time>
      </trkpt>
      <trkpt lat="43.31941" lon="-0.50325">
        <ele>204.9</ele>
        <time>2017-03-11T07:30:45Z</time>
      </trkpt>
      <trkpt lat="43.3194" lon="-0.50323">
        <ele>205.38</ele>
        <time>2017-03-11T07:30:46Z</time>
      </trkpt>
      <trkpt lat="43.31934" lon="-0.5028">
        <ele>208.26</ele>
        <time>2017-03-11T07:31:03Z</time>
      </trkpt>
      <trkpt lat="43.31923" lon="-0.50232">
        <ele>213.55</ele>
        <time>2017-03-11T07:31:20Z</time>
      </trkpt>
      <trkpt lat="43.31901" lon="-0.50208">
        <ele>212.59</ele>
        <time>2017-03-11T07:31:32Z</time>
      </trkpt>
      <trkpt lat="43.31889" lon="-0.50188">
        <ele>210.67</ele>
        <time>2017-03-11T07:31:41Z</time>
      </trkpt>
      <trkpt lat="43.31888" lon="-0.50185">
        <ele>210.67</ele>
        <time>2017-03-11T07:31:42Z</time>
      </trkpt>
      <trkpt lat="43.31887" lon="-0.50182">
        <ele>210.19</ele>
        <time>2017-03-11T07:31:43Z</time>
      </trkpt>
      <trkpt lat="43.31886" lon="-0.5018">
        <ele>209.22</ele>
        <time>2017-03-11T07:31:44Z</time>
      </trkpt>
      <trkpt lat="43.31885" lon="-0.50177">
        <ele>208.74</ele>
        <time>2017-03-11T07:31:45Z</time>
      </trkpt>
      <trkpt lat="43.31883" lon="-0.50175">
        <ele>208.74</ele>
        <time>2017-03-11T07:31:46Z</time>
      </trkpt>
      <trkpt lat="43.31882" lon="-0.50172">
        <ele>208.26</ele>
        <time>2017-03-11T07:31:47Z</time>
      </trkpt>
      <trkpt lat="43.31861" lon="-0.50151">
        <ele>206.34</ele>
        <time>2017-03-11T07:32:01Z</time>
      </trkpt>
      <trkpt lat="43.31841" lon="-0.50133">
        <ele>206.82</ele>
        <time>2017-03-11T07:32:14Z</time>
      </trkpt>
      <trkpt lat="43.31827" lon="-0.50114">
        <ele>206.82</ele>
        <time>2017-03-11T07:32:27Z</time>
      </trkpt>
      <trkpt lat="43.31812" lon="-0.50099">
        <ele>209.22</ele>
        <time>2017-03-11T07:32:40Z</time>
      </trkpt>
      <trkpt lat="43.3181" lon="-0.50097">
        <ele>209.22</ele>
        <time>2017-03-11T07:32:42Z</time>
      </trkpt>
      <trkpt lat="43.31799" lon="-0.50086">
        <ele>208.74</ele>
        <time>2017-03-11T07:32:54Z</time>
      </trkpt>
      <trkpt lat="43.31788" lon="-0.50072">
        <ele>210.19</ele>
        <time>2017-03-11T07:33:09Z</time>
      </trkpt>
      <trkpt lat="43.31782" lon="-0.5006">
        <ele>212.11</ele>
        <time>2017-03-11T07:33:19Z</time>
      </trkpt>
      <trkpt lat="43.31774" lon="-0.5004">
        <ele>214.51</ele>
        <time>2017-03-11T07:33:32Z</time>
      </trkpt>
      <trkpt lat="43.31769" lon="-0.5002">
        <ele>220.28</ele>
        <time>2017-03-11T07:33:45Z</time>
      </trkpt>
      <trkpt lat="43.31768" lon="-0.50011">
        <ele>225.09</ele>
        <time>2017-03-11T07:33:49Z</time>
      </trkpt>
      <trkpt lat="43.31768" lon="-0.5001">
        <ele>225.57</ele>
        <time>2017-03-11T07:33:50Z</time>
      </trkpt>
      <trkpt lat="43.31768" lon="-0.50008">
        <ele>226.05</ele>
        <time>2017-03-11T07:33:51Z</time>
      </trkpt>
      <trkpt lat="43.31769" lon="-0.50006">
        <ele>226.05</ele>
        <time>2017-03-11T07:33:52Z</time>
      </trkpt>
      <trkpt lat="43.31769" lon="-0.50004">
        <ele>226.05</ele>
        <time>2017-03-11T07:33:53Z</time>
      </trkpt>
      <trkpt lat="43.3177" lon="-0.50002">
        <ele>226.53</ele>
        <time>2017-03-11T07:33:54Z</time>
      </trkpt>
      <trkpt lat="43.31771" lon="-0.50001">
        <ele>226.53</ele>
        <time>2017-03-11T07:33:55Z</time>
      </trkpt>
      <trkpt lat="43.31772" lon="-0.5">
        <ele>227.01</ele>
        <time>2017-03-11T07:33:56Z</time>
      </trkpt>
      <trkpt lat="43.31773" lon="-0.49999">
        <ele>227.97</ele>
        <time>2017-03-11T07:33:57Z</time>
      </trkpt>
      <trkpt lat="43.31774" lon="-0.49998">
        <ele>228.45</ele>
        <time>2017-03-11T07:33:58Z</time>
      </trkpt>
      <trkpt lat="43.31775" lon="-0.49998">
        <ele>228.93</ele>
        <time>2017-03-11T07:33:59Z</time>
      </trkpt>
      <trkpt lat="43.31777" lon="-0.49995">
        <ele>229.41</ele>
        <time>2017-03-11T07:34:01Z</time>
      </trkpt>
      <trkpt lat="43.31777" lon="-0.49993">
        <ele>229.89</ele>
        <time>2017-03-11T07:34:02Z</time>
      </trkpt>
      <trkpt lat="43.31777" lon="-0.49991">
        <ele>230.37</ele>
        <time>2017-03-11T07:34:03Z</time>
      </trkpt>
      <trkpt lat="43.31777" lon="-0.4999">
        <ele>230.85</ele>
        <time>2017-03-11T07:34:04Z</time>
      </trkpt>
      <trkpt lat="43.31776" lon="-0.49989">
        <ele>230.85</ele>
        <time>2017-03-11T07:34:05Z</time>
      </trkpt>
      <trkpt lat="43.31775" lon="-0.49987">
        <ele>230.85</ele>
        <time>2017-03-11T07:34:06Z</time>
      </trkpt>
      <trkpt lat="43.31773" lon="-0.49987">
        <ele>230.85</ele>
        <time>2017-03-11T07:34:07Z</time>
      </trkpt>
      <trkpt lat="43.31772" lon="-0.49986">
        <ele>230.85</ele>
        <time>2017-03-11T07:34:08Z</time>
      </trkpt>
      <trkpt lat="43.31771" lon="-0.49985">
        <ele>230.85</ele>
        <time>2017-03-11T07:34:09Z</time>
      </trkpt>
      <trkpt lat="43.3177" lon="-0.49984">
        <ele>230.85</ele>
        <time>2017-03-11T07:34:10Z</time>
      </trkpt>
      <trkpt lat="43.3177" lon="-0.49984">
        <ele>230.37</ele>
        <time>2017-03-11T07:34:11Z</time>
      </trkpt>
      <trkpt lat="43.31769" lon="-0.49983">
        <ele>230.37</ele>
        <time>2017-03-11T07:34:12Z</time>
      </trkpt>
      <trkpt lat="43.31767" lon="-0.49982">
        <ele>230.37</ele>
        <time>2017-03-11T07:34:13Z</time>
      </trkpt>
      <trkpt lat="43.31759" lon="-0.49975">
        <ele>230.37</ele>
        <time>2017-03-11T07:34:21Z</time>
      </trkpt>
      <trkpt lat="43.31758" lon="-0.49974">
        <ele>230.85</ele>
        <time>2017-03-11T07:34:22Z</time>
      </trkpt>
      <trkpt lat="43.31757" lon="-0.49973">
        <ele>230.85</ele>
        <time>2017-03-11T07:34:23Z</time>
      </trkpt>
      <trkpt lat="43.31756" lon="-0.49972">
        <ele>231.33</ele>
        <time>2017-03-11T07:34:24Z</time>
      </trkpt>
      <trkpt lat="43.31755" lon="-0.49971">
        <ele>231.81</ele>
        <time>2017-03-11T07:34:25Z</time>
      </trkpt>
      <trkpt lat="43.31754" lon="-0.49971">
        <ele>231.81</ele>
        <time>2017-03-11T07:34:26Z</time>
      </trkpt>
      <trkpt lat="43.31753" lon="-0.4997">
        <ele>231.81</ele>
        <time>2017-03-11T07:34:27Z</time>
      </trkpt>
      <trkpt lat="43.31735" lon="-0.4996">
        <ele>244.31</ele>
        <time>2017-03-11T07:34:43Z</time>
      </trkpt>
      <trkpt lat="43.31722" lon="-0.49951">
        <ele>246.72</ele>
        <time>2017-03-11T07:34:54Z</time>
      </trkpt>
      <trkpt lat="43.3172" lon="-0.49951">
        <ele>246.72</ele>
        <time>2017-03-11T07:34:55Z</time>
      </trkpt>
      <trkpt lat="43.31719" lon="-0.4995">
        <ele>247.2</ele>
        <time>2017-03-11T07:34:56Z</time>
      </trkpt>
      <trkpt lat="43.31706" lon="-0.49936">
        <ele>248.16</ele>
        <time>2017-03-11T07:35:08Z</time>
      </trkpt>
      <trkpt lat="43.31706" lon="-0.49934">
        <ele>248.16</ele>
        <time>2017-03-11T07:35:09Z</time>
      </trkpt>
      <trkpt lat="43.31705" lon="-0.49932">
        <ele>248.16</ele>
        <time>2017-03-11T07:35:10Z</time>
      </trkpt>
      <trkpt lat="43.31706" lon="-0.4993">
        <ele>247.68</ele>
        <time>2017-03-11T07:35:11Z</time>
      </trkpt>
      <trkpt lat="43.31707" lon="-0.49927">
        <ele>247.68</ele>
        <time>2017-03-11T07:35:12Z</time>
      </trkpt>
      <trkpt lat="43.31713" lon="-0.49897">
        <ele>243.83</ele>
        <time>2017-03-11T07:35:19Z</time>
      </trkpt>
      <trkpt lat="43.31715" lon="-0.4989">
        <ele>243.35</ele>
        <time>2017-03-11T07:35:20Z</time>
      </trkpt>
      <trkpt lat="43.3173" lon="-0.49835">
        <ele>237.1</ele>
        <time>2017-03-11T07:35:32Z</time>
      </trkpt>
      <trkpt lat="43.31742" lon="-0.49789">
        <ele>230.37</ele>
        <time>2017-03-11T07:35:44Z</time>
      </trkpt>
      <trkpt lat="43.31735" lon="-0.49769">
        <ele>230.37</ele>
        <time>2017-03-11T07:35:52Z</time>
      </trkpt>
      <trkpt lat="43.31723" lon="-0.49745">
        <ele>233.26</ele>
        <time>2017-03-11T07:36:06Z</time>
      </trkpt>
      <trkpt lat="43.31723" lon="-0.49744">
        <ele>233.74</ele>
        <time>2017-03-11T07:36:15Z</time>
      </trkpt>
      <trkpt lat="43.31723" lon="-0.4974">
        <ele>235.18</ele>
        <time>2017-03-11T07:36:31Z</time>
      </trkpt>
      <trkpt lat="43.31721" lon="-0.49741">
        <ele>239.99</ele>
        <time>2017-03-11T07:36:40Z</time>
      </trkpt>
      <trkpt lat="43.31722" lon="-0.49735">
        <ele>239.99</ele>
        <time>2017-03-11T07:36:44Z</time>
      </trkpt>
      <trkpt lat="43.31732" lon="-0.49737">
        <ele>239.51</ele>
        <time>2017-03-11T07:36:50Z</time>
      </trkpt>
      <trkpt lat="43.31753" lon="-0.49723">
        <ele>239.99</ele>
        <time>2017-03-11T07:37:04Z</time>
      </trkpt>
      <trkpt lat="43.3176" lon="-0.4972">
        <ele>239.99</ele>
        <time>2017-03-11T07:37:16Z</time>
      </trkpt>
      <trkpt lat="43.31778" lon="-0.49713">
        <ele>241.43</ele>
        <time>2017-03-11T07:37:28Z</time>
      </trkpt>
      <trkpt lat="43.31789" lon="-0.4971">
        <ele>240.47</ele>
        <time>2017-03-11T07:37:35Z</time>
      </trkpt>
      <trkpt lat="43.31808" lon="-0.49705">
        <ele>240.95</ele>
        <time>2017-03-11T07:37:41Z</time>
      </trkpt>
      <trkpt lat="43.31812" lon="-0.49703">
        <ele>240.95</ele>
        <time>2017-03-11T07:37:42Z</time>
      </trkpt>
      <trkpt lat="43.31816" lon="-0.497">
        <ele>240.47</ele>
        <time>2017-03-11T07:37:43Z</time>
      </trkpt>
      <trkpt lat="43.3182" lon="-0.49697">
        <ele>239.99</ele>
        <time>2017-03-11T07:37:44Z</time>
      </trkpt>
      <trkpt lat="43.31823" lon="-0.49694">
        <ele>239.51</ele>
        <time>2017-03-11T07:37:45Z</time>
      </trkpt>
      <trkpt lat="43.31825" lon="-0.49692">
        <ele>239.51</ele>
        <time>2017-03-11T07:37:46Z</time>
      </trkpt>
      <trkpt lat="43.31828" lon="-0.49689">
        <ele>239.51</ele>
        <time>2017-03-11T07:37:47Z</time>
      </trkpt>
      <trkpt lat="43.3183" lon="-0.49686">
        <ele>239.99</ele>
        <time>2017-03-11T07:37:48Z</time>
      </trkpt>
      <trkpt lat="43.31831" lon="-0.49683">
        <ele>239.99</ele>
        <time>2017-03-11T07:37:49Z</time>
      </trkpt>
      <trkpt lat="43.31832" lon="-0.49681">
        <ele>239.99</ele>
        <time>2017-03-11T07:37:50Z</time>
      </trkpt>
      <trkpt lat="43.31836" lon="-0.49672">
        <ele>240.47</ele>
        <time>2017-03-11T07:37:54Z</time>
      </trkpt>
      <trkpt lat="43.31838" lon="-0.4967">
        <ele>240.47</ele>
        <time>2017-03-11T07:37:55Z</time>
      </trkpt>
      <trkpt lat="43.3184" lon="-0.49667">
        <ele>240.47</ele>
        <time>2017-03-11T07:37:56Z</time>
      </trkpt>
      <trkpt lat="43.31843" lon="-0.49665">
        <ele>240.95</ele>
        <time>2017-03-11T07:37:57Z</time>
      </trkpt>
      <trkpt lat="43.31847" lon="-0.49663">
        <ele>241.43</ele>
        <time>2017-03-11T07:37:58Z</time>
      </trkpt>
      <trkpt lat="43.31849" lon="-0.4966">
        <ele>241.43</ele>
        <time>2017-03-11T07:37:59Z</time>
      </trkpt>
      <trkpt lat="43.31853" lon="-0.49658">
        <ele>241.91</ele>
        <time>2017-03-11T07:38:00Z</time>
      </trkpt>
      <trkpt lat="43.31872" lon="-0.49646">
        <ele>245.27</ele>
        <time>2017-03-11T07:38:05Z</time>
      </trkpt>
      <trkpt lat="43.31887" lon="-0.49637">
        <ele>246.72</ele>
        <time>2017-03-11T07:38:08Z</time>
      </trkpt>
      <trkpt lat="43.31891" lon="-0.49634">
        <ele>246.72</ele>
        <time>2017-03-11T07:38:09Z</time>
      </trkpt>
      <trkpt lat="43.31895" lon="-0.49631">
        <ele>246.72</ele>
        <time>2017-03-11T07:38:10Z</time>
      </trkpt>
      <trkpt lat="43.31899" lon="-0.4963">
        <ele>247.2</ele>
        <time>2017-03-11T07:38:11Z</time>
      </trkpt>
      <trkpt lat="43.31903" lon="-0.49629">
        <ele>247.2</ele>
        <time>2017-03-11T07:38:12Z</time>
      </trkpt>
      <trkpt lat="43.31907" lon="-0.49628">
        <ele>247.68</ele>
        <time>2017-03-11T07:38:13Z</time>
      </trkpt>
      <trkpt lat="43.31912" lon="-0.49627">
        <ele>248.16</ele>
        <time>2017-03-11T07:38:14Z</time>
      </trkpt>
      <trkpt lat="43.31917" lon="-0.49624">
        <ele>247.68</ele>
        <time>2017-03-11T07:38:15Z</time>
      </trkpt>
      <trkpt lat="43.31921" lon="-0.49622">
        <ele>247.68</ele>
        <time>2017-03-11T07:38:16Z</time>
      </trkpt>
      <trkpt lat="43.31941" lon="-0.49605">
        <ele>244.31</ele>
        <time>2017-03-11T07:38:24Z</time>
      </trkpt>
      <trkpt lat="43.31942" lon="-0.49602">
        <ele>243.83</ele>
        <time>2017-03-11T07:38:25Z</time>
      </trkpt>
      <trkpt lat="43.31942" lon="-0.49596">
        <ele>244.31</ele>
        <time>2017-03-11T07:38:27Z</time>
      </trkpt>
      <trkpt lat="43.3193" lon="-0.49564">
        <ele>239.99</ele>
        <time>2017-03-11T07:38:37Z</time>
      </trkpt>
      <trkpt lat="43.31909" lon="-0.49538">
        <ele>231.81</ele>
        <time>2017-03-11T07:38:48Z</time>
      </trkpt>
      <trkpt lat="43.31885" lon="-0.49523">
        <ele>227.01</ele>
        <time>2017-03-11T07:38:57Z</time>
      </trkpt>
      <trkpt lat="43.31856" lon="-0.49504">
        <ele>222.68</ele>
        <time>2017-03-11T07:39:08Z</time>
      </trkpt>
      <trkpt lat="43.31825" lon="-0.4948">
        <ele>221.72</ele>
        <time>2017-03-11T07:39:19Z</time>
      </trkpt>
      <trkpt lat="43.31807" lon="-0.49463">
        <ele>220.76</ele>
        <time>2017-03-11T07:39:26Z</time>
      </trkpt>
      <trkpt lat="43.31805" lon="-0.49459">
        <ele>220.76</ele>
        <time>2017-03-11T07:39:27Z</time>
      </trkpt>
      <trkpt lat="43.31805" lon="-0.49456">
        <ele>220.76</ele>
        <time>2017-03-11T07:39:28Z</time>
      </trkpt>
      <trkpt lat="43.31804" lon="-0.49453">
        <ele>220.76</ele>
        <time>2017-03-11T07:39:29Z</time>
      </trkpt>
      <trkpt lat="43.31803" lon="-0.49449">
        <ele>220.28</ele>
        <time>2017-03-11T07:39:30Z</time>
      </trkpt>
      <trkpt lat="43.31802" lon="-0.49443">
        <ele>220.76</ele>
        <time>2017-03-11T07:39:31Z</time>
      </trkpt>
      <trkpt lat="43.31802" lon="-0.49434">
        <ele>220.76</ele>
        <time>2017-03-11T07:39:33Z</time>
      </trkpt>
      <trkpt lat="43.31801" lon="-0.49426">
        <ele>221.24</ele>
        <time>2017-03-11T07:39:35Z</time>
      </trkpt>
      <trkpt lat="43.31801" lon="-0.49422">
        <ele>221.24</ele>
        <time>2017-03-11T07:39:36Z</time>
      </trkpt>
      <trkpt lat="43.318" lon="-0.49418">
        <ele>221.24</ele>
        <time>2017-03-11T07:39:37Z</time>
      </trkpt>
      <trkpt lat="43.318" lon="-0.49414">
        <ele>220.76</ele>
        <time>2017-03-11T07:39:38Z</time>
      </trkpt>
      <trkpt lat="43.318" lon="-0.4941">
        <ele>220.76</ele>
        <time>2017-03-11T07:39:39Z</time>
      </trkpt>
      <trkpt lat="43.318" lon="-0.49407">
        <ele>220.76</ele>
        <time>2017-03-11T07:39:40Z</time>
      </trkpt>
      <trkpt lat="43.318" lon="-0.49403">
        <ele>221.24</ele>
        <time>2017-03-11T07:39:41Z</time>
      </trkpt>
      <trkpt lat="43.31803" lon="-0.49394">
        <ele>223.16</ele>
        <time>2017-03-11T07:39:46Z</time>
      </trkpt>
      <trkpt lat="43.31795" lon="-0.49384">
        <ele>220.76</ele>
        <time>2017-03-11T07:39:56Z</time>
      </trkpt>
      <trkpt lat="43.31794" lon="-0.49377">
        <ele>220.28</ele>
        <time>2017-03-11T07:40:00Z</time>
      </trkpt>
      <trkpt lat="43.31805" lon="-0.49361">
        <ele>225.57</ele>
        <time>2017-03-11T07:40:14Z</time>
      </trkpt>
      <trkpt lat="43.31813" lon="-0.49345">
        <ele>229.89</ele>
        <time>2017-03-11T07:40:27Z</time>
      </trkpt>
      <trkpt lat="43.31828" lon="-0.49329">
        <ele>240.47</ele>
        <time>2017-03-11T07:40:42Z</time>
      </trkpt>
      <trkpt lat="43.31845" lon="-0.49326">
        <ele>249.6</ele>
        <time>2017-03-11T07:40:56Z</time>
      </trkpt>
      <trkpt lat="43.31862" lon="-0.49326">
        <ele>259.69</ele>
        <time>2017-03-11T07:41:11Z</time>
      </trkpt>
      <trkpt lat="43.31863" lon="-0.49326">
        <ele>259.69</ele>
        <time>2017-03-11T07:41:12Z</time>
      </trkpt>
      <trkpt lat="43.31879" lon="-0.49314">
        <ele>259.69</ele>
        <time>2017-03-11T07:41:26Z</time>
      </trkpt>
      <trkpt lat="43.31894" lon="-0.4931">
        <ele>260.17</ele>
        <time>2017-03-11T07:41:39Z</time>
      </trkpt>
      <trkpt lat="43.3191" lon="-0.49302">
        <ele>257.29</ele>
        <time>2017-03-11T07:41:54Z</time>
      </trkpt>
      <trkpt lat="43.31929" lon="-0.493">
        <ele>259.21</ele>
        <time>2017-03-11T07:42:09Z</time>
      </trkpt>
      <trkpt lat="43.31949" lon="-0.49299">
        <ele>259.21</ele>
        <time>2017-03-11T07:42:25Z</time>
      </trkpt>
      <trkpt lat="43.31966" lon="-0.49288">
        <ele>261.14</ele>
        <time>2017-03-11T07:42:39Z</time>
      </trkpt>
      <trkpt lat="43.31975" lon="-0.4927">
        <ele>260.17</ele>
        <time>2017-03-11T07:42:51Z</time>
      </trkpt>
      <trkpt lat="43.31975" lon="-0.49266">
        <ele>259.69</ele>
        <time>2017-03-11T07:42:53Z</time>
      </trkpt>
      <trkpt lat="43.3197" lon="-0.49262">
        <ele>258.25</ele>
        <time>2017-03-11T07:42:57Z</time>
      </trkpt>
      <trkpt lat="43.31947" lon="-0.4925">
        <ele>255.85</ele>
        <time>2017-03-11T07:43:13Z</time>
      </trkpt>
      <trkpt lat="43.31921" lon="-0.49244">
        <ele>253.44</ele>
        <time>2017-03-11T07:43:28Z</time>
      </trkpt>
      <trkpt lat="43.31886" lon="-0.49243">
        <ele>252.96</ele>
        <time>2017-03-11T07:43:41Z</time>
      </trkpt>
      <trkpt lat="43.31837" lon="-0.49244">
        <ele>250.56</ele>
        <time>2017-03-11T07:43:54Z</time>
      </trkpt>
      <trkpt lat="43.3179" lon="-0.49243">
        <ele>247.2</ele>
        <time>2017-03-11T07:44:06Z</time>
      </trkpt>
      <trkpt lat="43.31786" lon="-0.49243">
        <ele>247.2</ele>
        <time>2017-03-11T07:44:08Z</time>
      </trkpt>
      <trkpt lat="43.31785" lon="-0.49225">
        <ele>250.56</ele>
        <time>2017-03-11T07:44:19Z</time>
      </trkpt>
      <trkpt lat="43.31785" lon="-0.49224">
        <ele>250.56</ele>
        <time>2017-03-11T07:44:20Z</time>
      </trkpt>
      <trkpt lat="43.31778" lon="-0.4921">
        <ele>251.52</ele>
        <time>2017-03-11T07:44:28Z</time>
      </trkpt>
      <trkpt lat="43.31767" lon="-0.49191">
        <ele>251.04</ele>
        <time>2017-03-11T07:44:37Z</time>
      </trkpt>
      <trkpt lat="43.31766" lon="-0.49167">
        <ele>250.08</ele>
        <time>2017-03-11T07:44:45Z</time>
      </trkpt>
      <trkpt lat="43.31764" lon="-0.49158">
        <ele>249.12</ele>
        <time>2017-03-11T07:44:48Z</time>
      </trkpt>
      <trkpt lat="43.31757" lon="-0.49155">
        <ele>248.64</ele>
        <time>2017-03-11T07:44:52Z</time>
      </trkpt>
      <trkpt lat="43.31715" lon="-0.49167">
        <ele>243.35</ele>
        <time>2017-03-11T07:45:04Z</time>
      </trkpt>
      <trkpt lat="43.31694" lon="-0.49168">
        <ele>239.51</ele>
        <time>2017-03-11T07:45:09Z</time>
      </trkpt>
      <trkpt lat="43.31685" lon="-0.49163">
        <ele>237.58</ele>
        <time>2017-03-11T07:45:13Z</time>
      </trkpt>
      <trkpt lat="43.3168" lon="-0.49158">
        <ele>237.1</ele>
        <time>2017-03-11T07:45:15Z</time>
      </trkpt>
      <trkpt lat="43.31663" lon="-0.49159">
        <ele>234.7</ele>
        <time>2017-03-11T07:45:22Z</time>
      </trkpt>
      <trkpt lat="43.31659" lon="-0.4916">
        <ele>234.7</ele>
        <time>2017-03-11T07:45:24Z</time>
      </trkpt>
      <trkpt lat="43.31652" lon="-0.49153">
        <ele>234.7</ele>
        <time>2017-03-11T07:45:28Z</time>
      </trkpt>
      <trkpt lat="43.31642" lon="-0.49134">
        <ele>229.41</ele>
        <time>2017-03-11T07:45:37Z</time>
      </trkpt>
      <trkpt lat="43.31639" lon="-0.49132">
        <ele>228.45</ele>
        <time>2017-03-11T07:45:38Z</time>
      </trkpt>
      <trkpt lat="43.31617" lon="-0.49118">
        <ele>223.64</ele>
        <time>2017-03-11T07:45:46Z</time>
      </trkpt>
      <trkpt lat="43.31606" lon="-0.49112">
        <ele>224.12</ele>
        <time>2017-03-11T07:45:55Z</time>
      </trkpt>
      <trkpt lat="43.31604" lon="-0.4911">
        <ele>224.61</ele>
        <time>2017-03-11T07:45:57Z</time>
      </trkpt>
      <trkpt lat="43.31591" lon="-0.4911">
        <ele>224.61</ele>
        <time>2017-03-11T07:46:05Z</time>
      </trkpt>
      <trkpt lat="43.31572" lon="-0.49126">
        <ele>219.8</ele>
        <time>2017-03-11T07:46:16Z</time>
      </trkpt>
      <trkpt lat="43.31541" lon="-0.49138">
        <ele>216.43</ele>
        <time>2017-03-11T07:46:28Z</time>
      </trkpt>
      <trkpt lat="43.31516" lon="-0.49132">
        <ele>217.4</ele>
        <time>2017-03-11T07:46:39Z</time>
      </trkpt>
      <trkpt lat="43.31515" lon="-0.49129">
        <ele>217.4</ele>
        <time>2017-03-11T07:46:40Z</time>
      </trkpt>
      <trkpt lat="43.31514" lon="-0.49115">
        <ele>219.8</ele>
        <time>2017-03-11T07:46:46Z</time>
      </trkpt>
      <trkpt lat="43.31516" lon="-0.49112">
        <ele>219.8</ele>
        <time>2017-03-11T07:46:47Z</time>
      </trkpt>
      <trkpt lat="43.31526" lon="-0.49092">
        <ele>219.32</ele>
        <time>2017-03-11T07:46:54Z</time>
      </trkpt>
      <trkpt lat="43.31532" lon="-0.49069">
        <ele>217.4</ele>
        <time>2017-03-11T07:46:59Z</time>
      </trkpt>
      <trkpt lat="43.31535" lon="-0.49041">
        <ele>214.51</ele>
        <time>2017-03-11T07:47:05Z</time>
      </trkpt>
      <trkpt lat="43.31529" lon="-0.49023">
        <ele>210.19</ele>
        <time>2017-03-11T07:47:11Z</time>
      </trkpt>
      <trkpt lat="43.31517" lon="-0.48986">
        <ele>198.65</ele>
        <time>2017-03-11T07:47:21Z</time>
      </trkpt>
      <trkpt lat="43.3152" lon="-0.48945">
        <ele>190.96</ele>
        <time>2017-03-11T07:47:30Z</time>
      </trkpt>
      <trkpt lat="43.31548" lon="-0.48909">
        <ele>183.75</ele>
        <time>2017-03-11T07:47:40Z</time>
      </trkpt>
      <trkpt lat="43.31552" lon="-0.48907">
        <ele>183.27</ele>
        <time>2017-03-11T07:47:41Z</time>
      </trkpt>
      <trkpt lat="43.31556" lon="-0.48906">
        <ele>182.79</ele>
        <time>2017-03-11T07:47:42Z</time>
      </trkpt>
      <trkpt lat="43.3156" lon="-0.48905">
        <ele>182.31</ele>
        <time>2017-03-11T07:47:43Z</time>
      </trkpt>
      <trkpt lat="43.31563" lon="-0.48905">
        <ele>182.31</ele>
        <time>2017-03-11T07:47:44Z</time>
      </trkpt>
      <trkpt lat="43.31566" lon="-0.48903">
        <ele>181.83</ele>
        <time>2017-03-11T07:47:45Z</time>
      </trkpt>
      <trkpt lat="43.31569" lon="-0.48901">
        <ele>181.35</ele>
        <time>2017-03-11T07:47:46Z</time>
      </trkpt>
      <trkpt lat="43.31573" lon="-0.48898">
        <ele>180.87</ele>
        <time>2017-03-11T07:47:47Z</time>
      </trkpt>
      <trkpt lat="43.31577" lon="-0.48895">
        <ele>180.38</ele>
        <time>2017-03-11T07:47:48Z</time>
      </trkpt>
      <trkpt lat="43.31604" lon="-0.48885">
        <ele>178.94</ele>
        <time>2017-03-11T07:47:57Z</time>
      </trkpt>
      <trkpt lat="43.31625" lon="-0.48893">
        <ele>177.5</ele>
        <time>2017-03-11T07:48:06Z</time>
      </trkpt>
      <trkpt lat="43.31627" lon="-0.48894">
        <ele>177.98</ele>
        <time>2017-03-11T07:48:07Z</time>
      </trkpt>
      <trkpt lat="43.3163" lon="-0.48894">
        <ele>177.98</ele>
        <time>2017-03-11T07:48:08Z</time>
      </trkpt>
      <trkpt lat="43.3164" lon="-0.48893">
        <ele>177.98</ele>
        <time>2017-03-11T07:48:14Z</time>
      </trkpt>
      <trkpt lat="43.31642" lon="-0.48887">
        <ele>178.46</ele>
        <time>2017-03-11T07:48:21Z</time>
      </trkpt>
      <trkpt lat="43.31643" lon="-0.48885">
        <ele>178.94</ele>
        <time>2017-03-11T07:48:22Z</time>
      </trkpt>
      <trkpt lat="43.31645" lon="-0.48883">
        <ele>178.94</ele>
        <time>2017-03-11T07:48:23Z</time>
      </trkpt>
      <trkpt lat="43.31675" lon="-0.48871">
        <ele>182.31</ele>
        <time>2017-03-11T07:48:35Z</time>
      </trkpt>
      <trkpt lat="43.31684" lon="-0.4887">
        <ele>182.79</ele>
        <time>2017-03-11T07:48:40Z</time>
      </trkpt>
      <trkpt lat="43.31685" lon="-0.48869">
        <ele>182.79</ele>
        <time>2017-03-11T07:48:41Z</time>
      </trkpt>
      <trkpt lat="43.31693" lon="-0.48858">
        <ele>180.87</ele>
        <time>2017-03-11T07:48:52Z</time>
      </trkpt>
      <trkpt lat="43.31697" lon="-0.48853">
        <ele>182.79</ele>
        <time>2017-03-11T07:48:59Z</time>
      </trkpt>
      <trkpt lat="43.31722" lon="-0.48845">
        <ele>182.79</ele>
        <time>2017-03-11T07:49:08Z</time>
      </trkpt>
      <trkpt lat="43.31733" lon="-0.48838">
        <ele>183.27</ele>
        <time>2017-03-11T07:49:18Z</time>
      </trkpt>
      <trkpt lat="43.31742" lon="-0.48834">
        <ele>182.79</ele>
        <time>2017-03-11T07:49:31Z</time>
      </trkpt>
      <trkpt lat="43.31751" lon="-0.48832">
        <ele>181.35</ele>
        <time>2017-03-11T07:49:41Z</time>
      </trkpt>
      <trkpt lat="43.31771" lon="-0.48831">
        <ele>180.87</ele>
        <time>2017-03-11T07:49:50Z</time>
      </trkpt>
      <trkpt lat="43.31796" lon="-0.48802">
        <ele>184.23</ele>
        <time>2017-03-11T07:50:00Z</time>
      </trkpt>
      <trkpt lat="43.31832" lon="-0.48771">
        <ele>191.44</ele>
        <time>2017-03-11T07:50:10Z</time>
      </trkpt>
      <trkpt lat="43.31836" lon="-0.48768">
        <ele>191.92</ele>
        <time>2017-03-11T07:50:11Z</time>
      </trkpt>
      <trkpt lat="43.31841" lon="-0.48765">
        <ele>192.4</ele>
        <time>2017-03-11T07:50:12Z</time>
      </trkpt>
      <trkpt lat="43.31857" lon="-0.48751">
        <ele>193.36</ele>
        <time>2017-03-11T07:50:16Z</time>
      </trkpt>
      <trkpt lat="43.31893" lon="-0.48719">
        <ele>193.36</ele>
        <time>2017-03-11T07:50:26Z</time>
      </trkpt>
      <trkpt lat="43.31903" lon="-0.48706">
        <ele>190</ele>
        <time>2017-03-11T07:50:29Z</time>
      </trkpt>
      <trkpt lat="43.31915" lon="-0.48689">
        <ele>183.27</ele>
        <time>2017-03-11T07:50:32Z</time>
      </trkpt>
      <trkpt lat="43.31954" lon="-0.4864">
        <ele>161.64</ele>
        <time>2017-03-11T07:50:43Z</time>
      </trkpt>
      <trkpt lat="43.31953" lon="-0.48636">
        <ele>160.68</ele>
        <time>2017-03-11T07:50:44Z</time>
      </trkpt>
      <trkpt lat="43.31952" lon="-0.48633">
        <ele>160.2</ele>
        <time>2017-03-11T07:50:45Z</time>
      </trkpt>
      <trkpt lat="43.3195" lon="-0.4863">
        <ele>159.72</ele>
        <time>2017-03-11T07:50:46Z</time>
      </trkpt>
      <trkpt lat="43.31949" lon="-0.48627">
        <ele>159.24</ele>
        <time>2017-03-11T07:50:47Z</time>
      </trkpt>
      <trkpt lat="43.31946" lon="-0.48623">
        <ele>158.27</ele>
        <time>2017-03-11T07:50:48Z</time>
      </trkpt>
      <trkpt lat="43.31915" lon="-0.48576">
        <ele>150.58</ele>
        <time>2017-03-11T07:51:01Z</time>
      </trkpt>
      <trkpt lat="43.31882" lon="-0.4855">
        <ele>149.14</ele>
        <time>2017-03-11T07:51:15Z</time>
      </trkpt>
      <trkpt lat="43.31855" lon="-0.48528">
        <ele>151.06</ele>
        <time>2017-03-11T07:51:28Z</time>
      </trkpt>
      <trkpt lat="43.3184" lon="-0.48506">
        <ele>153.47</ele>
        <time>2017-03-11T07:51:39Z</time>
      </trkpt>
      <trkpt lat="43.31817" lon="-0.48473">
        <ele>153.47</ele>
        <time>2017-03-11T07:51:52Z</time>
      </trkpt>
      <trkpt lat="43.31818" lon="-0.48444">
        <ele>150.1</ele>
        <time>2017-03-11T07:52:01Z</time>
      </trkpt>
      <trkpt lat="43.31822" lon="-0.48415">
        <ele>146.26</ele>
        <time>2017-03-11T07:52:08Z</time>
      </trkpt>
      <trkpt lat="43.3182" lon="-0.48413">
        <ele>145.78</ele>
        <time>2017-03-11T07:52:09Z</time>
      </trkpt>
      <trkpt lat="43.31819" lon="-0.4841">
        <ele>145.3</ele>
        <time>2017-03-11T07:52:10Z</time>
      </trkpt>
      <trkpt lat="43.31802" lon="-0.48393">
        <ele>143.37</ele>
        <time>2017-03-11T07:52:19Z</time>
      </trkpt>
      <trkpt lat="43.318" lon="-0.48392">
        <ele>143.37</ele>
        <time>2017-03-11T07:52:20Z</time>
      </trkpt>
      <trkpt lat="43.31797" lon="-0.48391">
        <ele>143.37</ele>
        <time>2017-03-11T07:52:21Z</time>
      </trkpt>
      <trkpt lat="43.31795" lon="-0.4839">
        <ele>143.37</ele>
        <time>2017-03-11T07:52:22Z</time>
      </trkpt>
      <trkpt lat="43.31793" lon="-0.48388">
        <ele>143.37</ele>
        <time>2017-03-11T07:52:23Z</time>
      </trkpt>
      <trkpt lat="43.31773" lon="-0.4837">
        <ele>141.45</ele>
        <time>2017-03-11T07:52:34Z</time>
      </trkpt>
      <trkpt lat="43.31747" lon="-0.48344">
        <ele>142.41</ele>
        <time>2017-03-11T07:52:46Z</time>
      </trkpt>
      <trkpt lat="43.31718" lon="-0.4832">
        <ele>143.85</ele>
        <time>2017-03-11T07:52:58Z</time>
      </trkpt>
      <trkpt lat="43.3169" lon="-0.48298">
        <ele>145.3</ele>
        <time>2017-03-11T07:53:11Z</time>
      </trkpt>
      <trkpt lat="43.31661" lon="-0.48277">
        <ele>145.78</ele>
        <time>2017-03-11T07:53:27Z</time>
      </trkpt>
      <trkpt lat="43.31638" lon="-0.48259">
        <ele>150.1</ele>
        <time>2017-03-11T07:53:42Z</time>
      </trkpt>
      <trkpt lat="43.31613" lon="-0.48242">
        <ele>152.51</ele>
        <time>2017-03-11T07:53:56Z</time>
      </trkpt>
      <trkpt lat="43.31583" lon="-0.4822">
        <ele>158.27</ele>
        <time>2017-03-11T07:54:12Z</time>
      </trkpt>
      <trkpt lat="43.31554" lon="-0.48195">
        <ele>158.27</ele>
        <time>2017-03-11T07:54:28Z</time>
      </trkpt>
      <trkpt lat="43.31539" lon="-0.48187">
        <ele>158.75</ele>
        <time>2017-03-11T07:54:36Z</time>
      </trkpt>
      <trkpt lat="43.31539" lon="-0.48185">
        <ele>158.75</ele>
        <time>2017-03-11T07:54:37Z</time>
      </trkpt>
      <trkpt lat="43.31538" lon="-0.48181">
        <ele>158.75</ele>
        <time>2017-03-11T07:54:38Z</time>
      </trkpt>
      <trkpt lat="43.31538" lon="-0.48178">
        <ele>158.75</ele>
        <time>2017-03-11T07:54:39Z</time>
      </trkpt>
      <trkpt lat="43.31539" lon="-0.48174">
        <ele>158.27</ele>
        <time>2017-03-11T07:54:40Z</time>
      </trkpt>
      <trkpt lat="43.31541" lon="-0.4817">
        <ele>158.27</ele>
        <time>2017-03-11T07:54:41Z</time>
      </trkpt>
      <trkpt lat="43.31574" lon="-0.4811">
        <ele>152.99</ele>
        <time>2017-03-11T07:54:52Z</time>
      </trkpt>
      <trkpt lat="43.31607" lon="-0.4806">
        <ele>149.14</ele>
        <time>2017-03-11T07:55:00Z</time>
      </trkpt>
      <trkpt lat="43.31609" lon="-0.48054">
        <ele>149.14</ele>
        <time>2017-03-11T07:55:01Z</time>
      </trkpt>
      <trkpt lat="43.31611" lon="-0.48048">
        <ele>149.14</ele>
        <time>2017-03-11T07:55:02Z</time>
      </trkpt>
      <trkpt lat="43.31612" lon="-0.48041">
        <ele>148.66</ele>
        <time>2017-03-11T07:55:03Z</time>
      </trkpt>
      <trkpt lat="43.31612" lon="-0.48034">
        <ele>148.66</ele>
        <time>2017-03-11T07:55:04Z</time>
      </trkpt>
      <trkpt lat="43.31612" lon="-0.48028">
        <ele>148.66</ele>
        <time>2017-03-11T07:55:05Z</time>
      </trkpt>
      <trkpt lat="43.31612" lon="-0.4802">
        <ele>148.66</ele>
        <time>2017-03-11T07:55:06Z</time>
      </trkpt>
      <trkpt lat="43.31613" lon="-0.48013">
        <ele>148.66</ele>
        <time>2017-03-11T07:55:07Z</time>
      </trkpt>
      <trkpt lat="43.31614" lon="-0.48006">
        <ele>148.18</ele>
        <time>2017-03-11T07:55:08Z</time>
      </trkpt>
      <trkpt lat="43.31617" lon="-0.47998">
        <ele>148.18</ele>
        <time>2017-03-11T07:55:09Z</time>
      </trkpt>
      <trkpt lat="43.3162" lon="-0.47992">
        <ele>148.18</ele>
        <time>2017-03-11T07:55:10Z</time>
      </trkpt>
      <trkpt lat="43.31623" lon="-0.47986">
        <ele>147.7</ele>
        <time>2017-03-11T07:55:11Z</time>
      </trkpt>
      <trkpt lat="43.31646" lon="-0.47949">
        <ele>148.66</ele>
        <time>2017-03-11T07:55:19Z</time>
      </trkpt>
      <trkpt lat="43.31646" lon="-0.47946">
        <ele>148.66</ele>
        <time>2017-03-11T07:55:20Z</time>
      </trkpt>
      <trkpt lat="43.31644" lon="-0.47943">
        <ele>148.66</ele>
        <time>2017-03-11T07:55:21Z</time>
      </trkpt>
      <trkpt lat="43.31641" lon="-0.47942">
        <ele>148.18</ele>
        <time>2017-03-11T07:55:22Z</time>
      </trkpt>
      <trkpt lat="43.31639" lon="-0.47942">
        <ele>148.18</ele>
        <time>2017-03-11T07:55:23Z</time>
      </trkpt>
      <trkpt lat="43.31635" lon="-0.47941">
        <ele>147.7</ele>
        <time>2017-03-11T07:55:24Z</time>
      </trkpt>
      <trkpt lat="43.31632" lon="-0.47941">
        <ele>147.7</ele>
        <time>2017-03-11T07:55:25Z</time>
      </trkpt>
      <trkpt lat="43.31576" lon="-0.47913">
        <ele>146.74</ele>
        <time>2017-03-11T07:55:41Z</time>
      </trkpt>
      <trkpt lat="43.3152" lon="-0.47884">
        <ele>147.7</ele>
        <time>2017-03-11T07:55:57Z</time>
      </trkpt>
      <trkpt lat="43.31493" lon="-0.47847">
        <ele>149.62</ele>
        <time>2017-03-11T07:56:08Z</time>
      </trkpt>
      <trkpt lat="43.31459" lon="-0.47788">
        <ele>150.58</ele>
        <time>2017-03-11T07:56:23Z</time>
      </trkpt>
      <trkpt lat="43.31426" lon="-0.47777">
        <ele>150.58</ele>
        <time>2017-03-11T07:56:33Z</time>
      </trkpt>
      <trkpt lat="43.31372" lon="-0.47778">
        <ele>153.95</ele>
        <time>2017-03-11T07:56:48Z</time>
      </trkpt>
      <trkpt lat="43.31312" lon="-0.47784">
        <ele>158.75</ele>
        <time>2017-03-11T07:57:06Z</time>
      </trkpt>
      <trkpt lat="43.31287" lon="-0.47805">
        <ele>164.04</ele>
        <time>2017-03-11T07:57:20Z</time>
      </trkpt>
      <trkpt lat="43.31261" lon="-0.47835">
        <ele>166.45</ele>
        <time>2017-03-11T07:57:36Z</time>
      </trkpt>
      <trkpt lat="43.31235" lon="-0.47878">
        <ele>168.85</ele>
        <time>2017-03-11T07:57:56Z</time>
      </trkpt>
      <trkpt lat="43.3122" lon="-0.47909">
        <ele>173.66</ele>
        <time>2017-03-11T07:58:13Z</time>
      </trkpt>
      <trkpt lat="43.31204" lon="-0.47935">
        <ele>177.02</ele>
        <time>2017-03-11T07:58:32Z</time>
      </trkpt>
      <trkpt lat="43.312" lon="-0.47942">
        <ele>176.54</ele>
        <time>2017-03-11T07:58:37Z</time>
      </trkpt>
      <trkpt lat="43.31199" lon="-0.47943">
        <ele>176.54</ele>
        <time>2017-03-11T07:58:38Z</time>
      </trkpt>
      <trkpt lat="43.31198" lon="-0.47944">
        <ele>176.54</ele>
        <time>2017-03-11T07:58:39Z</time>
      </trkpt>
      <trkpt lat="43.31197" lon="-0.47946">
        <ele>176.54</ele>
        <time>2017-03-11T07:58:40Z</time>
      </trkpt>
      <trkpt lat="43.31196" lon="-0.47947">
        <ele>176.54</ele>
        <time>2017-03-11T07:58:41Z</time>
      </trkpt>
      <trkpt lat="43.31178" lon="-0.4797">
        <ele>176.06</ele>
        <time>2017-03-11T07:58:57Z</time>
      </trkpt>
      <trkpt lat="43.31158" lon="-0.47989">
        <ele>179.42</ele>
        <time>2017-03-11T07:59:12Z</time>
      </trkpt>
      <trkpt lat="43.31153" lon="-0.47993">
        <ele>179.42</ele>
        <time>2017-03-11T07:59:16Z</time>
      </trkpt>
      <trkpt lat="43.31152" lon="-0.47994">
        <ele>179.9</ele>
        <time>2017-03-11T07:59:17Z</time>
      </trkpt>
      <trkpt lat="43.31151" lon="-0.47995">
        <ele>179.42</ele>
        <time>2017-03-11T07:59:18Z</time>
      </trkpt>
      <trkpt lat="43.31149" lon="-0.47997">
        <ele>179.42</ele>
        <time>2017-03-11T07:59:19Z</time>
      </trkpt>
      <trkpt lat="43.31148" lon="-0.47997">
        <ele>179.42</ele>
        <time>2017-03-11T07:59:20Z</time>
      </trkpt>
      <trkpt lat="43.31146" lon="-0.47998">
        <ele>179.42</ele>
        <time>2017-03-11T07:59:21Z</time>
      </trkpt>
      <trkpt lat="43.31145" lon="-0.47999">
        <ele>179.42</ele>
        <time>2017-03-11T07:59:22Z</time>
      </trkpt>
      <trkpt lat="43.31144" lon="-0.48001">
        <ele>179.9</ele>
        <time>2017-03-11T07:59:23Z</time>
      </trkpt>
      <trkpt lat="43.31129" lon="-0.48009">
        <ele>182.31</ele>
        <time>2017-03-11T07:59:33Z</time>
      </trkpt>
      <trkpt lat="43.31128" lon="-0.4801">
        <ele>181.83</ele>
        <time>2017-03-11T07:59:34Z</time>
      </trkpt>
      <trkpt lat="43.31126" lon="-0.48011">
        <ele>181.83</ele>
        <time>2017-03-11T07:59:35Z</time>
      </trkpt>
      <trkpt lat="43.31125" lon="-0.48011">
        <ele>181.83</ele>
        <time>2017-03-11T07:59:36Z</time>
      </trkpt>
      <trkpt lat="43.31124" lon="-0.48012">
        <ele>181.83</ele>
        <time>2017-03-11T07:59:37Z</time>
      </trkpt>
      <trkpt lat="43.31123" lon="-0.48012">
        <ele>181.83</ele>
        <time>2017-03-11T07:59:38Z</time>
      </trkpt>
      <trkpt lat="43.31121" lon="-0.48013">
        <ele>181.83</ele>
        <time>2017-03-11T07:59:39Z</time>
      </trkpt>
      <trkpt lat="43.3112" lon="-0.48014">
        <ele>182.31</ele>
        <time>2017-03-11T07:59:40Z</time>
      </trkpt>
      <trkpt lat="43.31119" lon="-0.48014">
        <ele>182.31</ele>
        <time>2017-03-11T07:59:41Z</time>
      </trkpt>
      <trkpt lat="43.31099" lon="-0.48026">
        <ele>186.63</ele>
        <time>2017-03-11T07:59:57Z</time>
      </trkpt>
      <trkpt lat="43.31093" lon="-0.48029">
        <ele>187.11</ele>
        <time>2017-03-11T08:00:01Z</time>
      </trkpt>
      <trkpt lat="43.31073" lon="-0.48037">
        <ele>188.56</ele>
        <time>2017-03-11T08:00:18Z</time>
      </trkpt>
      <trkpt lat="43.31054" lon="-0.48044">
        <ele>190.48</ele>
        <time>2017-03-11T08:00:33Z</time>
      </trkpt>
      <trkpt lat="43.31041" lon="-0.48063">
        <ele>194.32</ele>
        <time>2017-03-11T08:00:50Z</time>
      </trkpt>
      <trkpt lat="43.31038" lon="-0.4807">
        <ele>194.8</ele>
        <time>2017-03-11T08:00:55Z</time>
      </trkpt>
      <trkpt lat="43.31037" lon="-0.48071">
        <ele>194.8</ele>
        <time>2017-03-11T08:00:56Z</time>
      </trkpt>
      <trkpt lat="43.31036" lon="-0.48073">
        <ele>194.8</ele>
        <time>2017-03-11T08:00:57Z</time>
      </trkpt>
      <trkpt lat="43.31036" lon="-0.48074">
        <ele>194.8</ele>
        <time>2017-03-11T08:00:58Z</time>
      </trkpt>
      <trkpt lat="43.31035" lon="-0.48076">
        <ele>194.8</ele>
        <time>2017-03-11T08:00:59Z</time>
      </trkpt>
      <trkpt lat="43.31035" lon="-0.48077">
        <ele>194.8</ele>
        <time>2017-03-11T08:01:00Z</time>
      </trkpt>
      <trkpt lat="43.31034" lon="-0.48079">
        <ele>194.8</ele>
        <time>2017-03-11T08:01:01Z</time>
      </trkpt>
      <trkpt lat="43.31034" lon="-0.4808">
        <ele>194.32</ele>
        <time>2017-03-11T08:01:02Z</time>
      </trkpt>
      <trkpt lat="43.31033" lon="-0.48082">
        <ele>194.32</ele>
        <time>2017-03-11T08:01:03Z</time>
      </trkpt>
      <trkpt lat="43.31032" lon="-0.48083">
        <ele>194.32</ele>
        <time>2017-03-11T08:01:04Z</time>
      </trkpt>
      <trkpt lat="43.31028" lon="-0.48091">
        <ele>192.4</ele>
        <time>2017-03-11T08:01:11Z</time>
      </trkpt>
      <trkpt lat="43.31027" lon="-0.48092">
        <ele>191.92</ele>
        <time>2017-03-11T08:01:12Z</time>
      </trkpt>
      <trkpt lat="43.31026" lon="-0.48093">
        <ele>191.92</ele>
        <time>2017-03-11T08:01:13Z</time>
      </trkpt>
      <trkpt lat="43.31025" lon="-0.48094">
        <ele>191.44</ele>
        <time>2017-03-11T08:01:14Z</time>
      </trkpt>
      <trkpt lat="43.31024" lon="-0.48095">
        <ele>191.44</ele>
        <time>2017-03-11T08:01:15Z</time>
      </trkpt>
      <trkpt lat="43.31023" lon="-0.48097">
        <ele>191.44</ele>
        <time>2017-03-11T08:01:16Z</time>
      </trkpt>
      <trkpt lat="43.31016" lon="-0.48107">
        <ele>190</ele>
        <time>2017-03-11T08:01:25Z</time>
      </trkpt>
      <trkpt lat="43.31013" lon="-0.4811">
        <ele>190.96</ele>
        <time>2017-03-11T08:01:29Z</time>
      </trkpt>
      <trkpt lat="43.31001" lon="-0.48124">
        <ele>194.8</ele>
        <time>2017-03-11T08:01:43Z</time>
      </trkpt>
      <trkpt lat="43.30988" lon="-0.48137">
        <ele>198.17</ele>
        <time>2017-03-11T08:01:59Z</time>
      </trkpt>
      <trkpt lat="43.30976" lon="-0.48147">
        <ele>202.01</ele>
        <time>2017-03-11T08:02:12Z</time>
      </trkpt>
      <trkpt lat="43.30969" lon="-0.48156">
        <ele>206.34</ele>
        <time>2017-03-11T08:02:23Z</time>
      </trkpt>
      <trkpt lat="43.30957" lon="-0.48167">
        <ele>212.11</ele>
        <time>2017-03-11T08:02:41Z</time>
      </trkpt>
      <trkpt lat="43.30946" lon="-0.48176">
        <ele>214.99</ele>
        <time>2017-03-11T08:02:53Z</time>
      </trkpt>
      <trkpt lat="43.30932" lon="-0.48187">
        <ele>218.84</ele>
        <time>2017-03-11T08:03:08Z</time>
      </trkpt>
      <trkpt lat="43.30922" lon="-0.48195">
        <ele>217.88</ele>
        <time>2017-03-11T08:03:22Z</time>
      </trkpt>
      <trkpt lat="43.30909" lon="-0.48204">
        <ele>217.88</ele>
        <time>2017-03-11T08:03:36Z</time>
      </trkpt>
      <trkpt lat="43.30894" lon="-0.48216">
        <ele>221.72</ele>
        <time>2017-03-11T08:03:54Z</time>
      </trkpt>
      <trkpt lat="43.30881" lon="-0.48224">
        <ele>222.2</ele>
        <time>2017-03-11T08:04:08Z</time>
      </trkpt>
      <trkpt lat="43.30869" lon="-0.48237">
        <ele>225.57</ele>
        <time>2017-03-11T08:04:22Z</time>
      </trkpt>
      <trkpt lat="43.30867" lon="-0.48241">
        <ele>225.57</ele>
        <time>2017-03-11T08:04:25Z</time>
      </trkpt>
      <trkpt lat="43.30858" lon="-0.48255">
        <ele>226.53</ele>
        <time>2017-03-11T08:04:39Z</time>
      </trkpt>
      <trkpt lat="43.30846" lon="-0.48274">
        <ele>234.7</ele>
        <time>2017-03-11T08:04:54Z</time>
      </trkpt>
      <trkpt lat="43.30837" lon="-0.4829">
        <ele>233.74</ele>
        <time>2017-03-11T08:05:09Z</time>
      </trkpt>
      <trkpt lat="43.30827" lon="-0.48308">
        <ele>232.3</ele>
        <time>2017-03-11T08:05:24Z</time>
      </trkpt>
      <trkpt lat="43.30817" lon="-0.48327">
        <ele>231.81</ele>
        <time>2017-03-11T08:05:40Z</time>
      </trkpt>
      <trkpt lat="43.30809" lon="-0.48346">
        <ele>231.33</ele>
        <time>2017-03-11T08:05:54Z</time>
      </trkpt>
      <trkpt lat="43.30808" lon="-0.48366">
        <ele>235.66</ele>
        <time>2017-03-11T08:06:06Z</time>
      </trkpt>
      <trkpt lat="43.30807" lon="-0.48372">
        <ele>238.06</ele>
        <time>2017-03-11T08:06:09Z</time>
      </trkpt>
      <trkpt lat="43.30807" lon="-0.4839">
        <ele>237.58</ele>
        <time>2017-03-11T08:06:19Z</time>
      </trkpt>
      <trkpt lat="43.30806" lon="-0.48415">
        <ele>241.43</ele>
        <time>2017-03-11T08:06:32Z</time>
      </trkpt>
      <trkpt lat="43.30805" lon="-0.48438">
        <ele>245.27</ele>
        <time>2017-03-11T08:06:45Z</time>
      </trkpt>
      <trkpt lat="43.30804" lon="-0.48465">
        <ele>244.31</ele>
        <time>2017-03-11T08:07:01Z</time>
      </trkpt>
      <trkpt lat="43.30805" lon="-0.48487">
        <ele>248.64</ele>
        <time>2017-03-11T08:07:13Z</time>
      </trkpt>
      <trkpt lat="43.30805" lon="-0.48515">
        <ele>253.93</ele>
        <time>2017-03-11T08:07:29Z</time>
      </trkpt>
      <trkpt lat="43.30804" lon="-0.48522">
        <ele>254.41</ele>
        <time>2017-03-11T08:07:33Z</time>
      </trkpt>
      <trkpt lat="43.30804" lon="-0.48524">
        <ele>254.89</ele>
        <time>2017-03-11T08:07:34Z</time>
      </trkpt>
      <trkpt lat="43.30803" lon="-0.48526">
        <ele>255.37</ele>
        <time>2017-03-11T08:07:35Z</time>
      </trkpt>
      <trkpt lat="43.30803" lon="-0.48527">
        <ele>255.85</ele>
        <time>2017-03-11T08:07:36Z</time>
      </trkpt>
      <trkpt lat="43.30799" lon="-0.48553">
        <ele>259.69</ele>
        <time>2017-03-11T08:07:52Z</time>
      </trkpt>
      <trkpt lat="43.30795" lon="-0.48576">
        <ele>259.21</ele>
        <time>2017-03-11T08:08:06Z</time>
      </trkpt>
      <trkpt lat="43.30785" lon="-0.48609">
        <ele>259.69</ele>
        <time>2017-03-11T08:08:20Z</time>
      </trkpt>
      <trkpt lat="43.30781" lon="-0.48642">
        <ele>255.37</ele>
        <time>2017-03-11T08:08:32Z</time>
      </trkpt>
      <trkpt lat="43.30778" lon="-0.48656">
        <ele>251.04</ele>
        <time>2017-03-11T08:08:38Z</time>
      </trkpt>
      <trkpt lat="43.30776" lon="-0.48683">
        <ele>243.83</ele>
        <time>2017-03-11T08:08:50Z</time>
      </trkpt>
      <trkpt lat="43.30774" lon="-0.48711">
        <ele>238.54</ele>
        <time>2017-03-11T08:09:01Z</time>
      </trkpt>
      <trkpt lat="43.30773" lon="-0.48724">
        <ele>238.06</ele>
        <time>2017-03-11T08:09:06Z</time>
      </trkpt>
      <trkpt lat="43.30773" lon="-0.48726">
        <ele>238.06</ele>
        <time>2017-03-11T08:09:07Z</time>
      </trkpt>
      <trkpt lat="43.30773" lon="-0.48729">
        <ele>238.06</ele>
        <time>2017-03-11T08:09:08Z</time>
      </trkpt>
      <trkpt lat="43.30771" lon="-0.48763">
        <ele>240.47</ele>
        <time>2017-03-11T08:09:22Z</time>
      </trkpt>
      <trkpt lat="43.30769" lon="-0.48772">
        <ele>241.91</ele>
        <time>2017-03-11T08:09:25Z</time>
      </trkpt>
      <trkpt lat="43.30768" lon="-0.48774">
        <ele>242.39</ele>
        <time>2017-03-11T08:09:26Z</time>
      </trkpt>
      <trkpt lat="43.30767" lon="-0.48778">
        <ele>243.35</ele>
        <time>2017-03-11T08:09:27Z</time>
      </trkpt>
      <trkpt lat="43.30767" lon="-0.4878">
        <ele>243.35</ele>
        <time>2017-03-11T08:09:28Z</time>
      </trkpt>
      <trkpt lat="43.30767" lon="-0.48783">
        <ele>243.35</ele>
        <time>2017-03-11T08:09:29Z</time>
      </trkpt>
      <trkpt lat="43.30766" lon="-0.48785">
        <ele>243.35</ele>
        <time>2017-03-11T08:09:30Z</time>
      </trkpt>
      <trkpt lat="43.30766" lon="-0.48788">
        <ele>243.35</ele>
        <time>2017-03-11T08:09:31Z</time>
      </trkpt>
      <trkpt lat="43.30766" lon="-0.48791">
        <ele>244.31</ele>
        <time>2017-03-11T08:09:32Z</time>
      </trkpt>
      <trkpt lat="43.30766" lon="-0.48793">
        <ele>245.27</ele>
        <time>2017-03-11T08:09:33Z</time>
      </trkpt>
      <trkpt lat="43.30766" lon="-0.48796">
        <ele>246.23</ele>
        <time>2017-03-11T08:09:34Z</time>
      </trkpt>
      <trkpt lat="43.30765" lon="-0.48799">
        <ele>246.72</ele>
        <time>2017-03-11T08:09:35Z</time>
      </trkpt>
      <trkpt lat="43.30765" lon="-0.48801">
        <ele>247.2</ele>
        <time>2017-03-11T08:09:36Z</time>
      </trkpt>
      <trkpt lat="43.30765" lon="-0.48804">
        <ele>247.68</ele>
        <time>2017-03-11T08:09:37Z</time>
      </trkpt>
      <trkpt lat="43.30765" lon="-0.48806">
        <ele>248.16</ele>
        <time>2017-03-11T08:09:38Z</time>
      </trkpt>
      <trkpt lat="43.30765" lon="-0.48809">
        <ele>249.12</ele>
        <time>2017-03-11T08:09:39Z</time>
      </trkpt>
      <trkpt lat="43.30765" lon="-0.48813">
        <ele>250.08</ele>
        <time>2017-03-11T08:09:40Z</time>
      </trkpt>
      <trkpt lat="43.3075" lon="-0.48853">
        <ele>257.29</ele>
        <time>2017-03-11T08:09:51Z</time>
      </trkpt>
      <trkpt lat="43.30729" lon="-0.48868">
        <ele>258.73</ele>
        <time>2017-03-11T08:10:00Z</time>
      </trkpt>
      <trkpt lat="43.30695" lon="-0.48876">
        <ele>258.73</ele>
        <time>2017-03-11T08:10:11Z</time>
      </trkpt>
      <trkpt lat="43.30655" lon="-0.48883">
        <ele>257.29</ele>
        <time>2017-03-11T08:10:25Z</time>
      </trkpt>
      <trkpt lat="43.30653" lon="-0.48885">
        <ele>256.81</ele>
        <time>2017-03-11T08:10:26Z</time>
      </trkpt>
      <trkpt lat="43.30651" lon="-0.4889">
        <ele>255.85</ele>
        <time>2017-03-11T08:10:28Z</time>
      </trkpt>
      <trkpt lat="43.30651" lon="-0.48894">
        <ele>254.89</ele>
        <time>2017-03-11T08:10:29Z</time>
      </trkpt>
      <trkpt lat="43.30648" lon="-0.48948">
        <ele>250.08</ele>
        <time>2017-03-11T08:10:40Z</time>
      </trkpt>
      <trkpt lat="43.30649" lon="-0.48956">
        <ele>249.6</ele>
        <time>2017-03-11T08:10:42Z</time>
      </trkpt>
      <trkpt lat="43.30649" lon="-0.48959">
        <ele>250.08</ele>
        <time>2017-03-11T08:10:43Z</time>
      </trkpt>
      <trkpt lat="43.30651" lon="-0.48963">
        <ele>250.08</ele>
        <time>2017-03-11T08:10:44Z</time>
      </trkpt>
      <trkpt lat="43.3066" lon="-0.48983">
        <ele>247.68</ele>
        <time>2017-03-11T08:10:48Z</time>
      </trkpt>
      <trkpt lat="43.30666" lon="-0.48997">
        <ele>246.72</ele>
        <time>2017-03-11T08:10:50Z</time>
      </trkpt>
      <trkpt lat="43.30668" lon="-0.49004">
        <ele>247.2</ele>
        <time>2017-03-11T08:10:51Z</time>
      </trkpt>
      <trkpt lat="43.30668" lon="-0.49011">
        <ele>246.72</ele>
        <time>2017-03-11T08:10:52Z</time>
      </trkpt>
      <trkpt lat="43.30668" lon="-0.49018">
        <ele>246.23</ele>
        <time>2017-03-11T08:10:53Z</time>
      </trkpt>
      <trkpt lat="43.30667" lon="-0.49025">
        <ele>246.23</ele>
        <time>2017-03-11T08:10:54Z</time>
      </trkpt>
      <trkpt lat="43.30665" lon="-0.49032">
        <ele>245.75</ele>
        <time>2017-03-11T08:10:55Z</time>
      </trkpt>
      <trkpt lat="43.30662" lon="-0.49047">
        <ele>245.27</ele>
        <time>2017-03-11T08:10:57Z</time>
      </trkpt>
      <trkpt lat="43.30659" lon="-0.49068">
        <ele>243.83</ele>
        <time>2017-03-11T08:11:00Z</time>
      </trkpt>
      <trkpt lat="43.30657" lon="-0.49074">
        <ele>243.83</ele>
        <time>2017-03-11T08:11:01Z</time>
      </trkpt>
      <trkpt lat="43.30656" lon="-0.49078">
        <ele>243.35</ele>
        <time>2017-03-11T08:11:02Z</time>
      </trkpt>
      <trkpt lat="43.30653" lon="-0.49081">
        <ele>242.87</ele>
        <time>2017-03-11T08:11:03Z</time>
      </trkpt>
      <trkpt lat="43.3065" lon="-0.49085">
        <ele>241.91</ele>
        <time>2017-03-11T08:11:04Z</time>
      </trkpt>
      <trkpt lat="43.30648" lon="-0.49089">
        <ele>241.43</ele>
        <time>2017-03-11T08:11:05Z</time>
      </trkpt>
      <trkpt lat="43.30642" lon="-0.49099">
        <ele>239.99</ele>
        <time>2017-03-11T08:11:08Z</time>
      </trkpt>
      <trkpt lat="43.30639" lon="-0.49101">
        <ele>239.51</ele>
        <time>2017-03-11T08:11:09Z</time>
      </trkpt>
      <trkpt lat="43.30636" lon="-0.49103">
        <ele>239.51</ele>
        <time>2017-03-11T08:11:10Z</time>
      </trkpt>
      <trkpt lat="43.30623" lon="-0.49105">
        <ele>236.14</ele>
        <time>2017-03-11T08:11:15Z</time>
      </trkpt>
      <trkpt lat="43.30621" lon="-0.49108">
        <ele>235.18</ele>
        <time>2017-03-11T08:11:16Z</time>
      </trkpt>
      <trkpt lat="43.30619" lon="-0.49112">
        <ele>233.74</ele>
        <time>2017-03-11T08:11:17Z</time>
      </trkpt>
      <trkpt lat="43.30616" lon="-0.49116">
        <ele>232.3</ele>
        <time>2017-03-11T08:11:18Z</time>
      </trkpt>
      <trkpt lat="43.30614" lon="-0.49121">
        <ele>230.85</ele>
        <time>2017-03-11T08:11:19Z</time>
      </trkpt>
      <trkpt lat="43.30613" lon="-0.49127">
        <ele>229.41</ele>
        <time>2017-03-11T08:11:20Z</time>
      </trkpt>
      <trkpt lat="43.30611" lon="-0.49134">
        <ele>228.45</ele>
        <time>2017-03-11T08:11:21Z</time>
      </trkpt>
      <trkpt lat="43.30595" lon="-0.49168">
        <ele>220.76</ele>
        <time>2017-03-11T08:11:29Z</time>
      </trkpt>
      <trkpt lat="43.30568" lon="-0.49199">
        <ele>213.55</ele>
        <time>2017-03-11T08:11:39Z</time>
      </trkpt>
      <trkpt lat="43.30565" lon="-0.49203">
        <ele>213.07</ele>
        <time>2017-03-11T08:11:40Z</time>
      </trkpt>
      <trkpt lat="43.30562" lon="-0.49207">
        <ele>212.11</ele>
        <time>2017-03-11T08:11:41Z</time>
      </trkpt>
      <trkpt lat="43.3056" lon="-0.49212">
        <ele>211.15</ele>
        <time>2017-03-11T08:11:42Z</time>
      </trkpt>
      <trkpt lat="43.30558" lon="-0.49215">
        <ele>210.67</ele>
        <time>2017-03-11T08:11:43Z</time>
      </trkpt>
      <trkpt lat="43.30555" lon="-0.49217">
        <ele>209.7</ele>
        <time>2017-03-11T08:11:44Z</time>
      </trkpt>
      <trkpt lat="43.30554" lon="-0.4922">
        <ele>208.74</ele>
        <time>2017-03-11T08:11:45Z</time>
      </trkpt>
      <trkpt lat="43.30551" lon="-0.49222">
        <ele>207.78</ele>
        <time>2017-03-11T08:11:46Z</time>
      </trkpt>
      <trkpt lat="43.30549" lon="-0.49224">
        <ele>207.3</ele>
        <time>2017-03-11T08:11:47Z</time>
      </trkpt>
      <trkpt lat="43.30547" lon="-0.49225">
        <ele>206.34</ele>
        <time>2017-03-11T08:11:48Z</time>
      </trkpt>
      <trkpt lat="43.30539" lon="-0.49229">
        <ele>203.46</ele>
        <time>2017-03-11T08:11:58Z</time>
      </trkpt>
      <trkpt lat="43.30533" lon="-0.49238">
        <ele>204.9</ele>
        <time>2017-03-11T08:12:11Z</time>
      </trkpt>
      <trkpt lat="43.30532" lon="-0.49241">
        <ele>203.94</ele>
        <time>2017-03-11T08:12:13Z</time>
      </trkpt>
      <trkpt lat="43.3053" lon="-0.49253">
        <ele>207.3</ele>
        <time>2017-03-11T08:12:26Z</time>
      </trkpt>
      <trkpt lat="43.30531" lon="-0.49265">
        <ele>207.78</ele>
        <time>2017-03-11T08:12:41Z</time>
      </trkpt>
      <trkpt lat="43.30534" lon="-0.49272">
        <ele>207.78</ele>
        <time>2017-03-11T08:12:47Z</time>
      </trkpt>
      <trkpt lat="43.30543" lon="-0.49279">
        <ele>210.67</ele>
        <time>2017-03-11T08:12:58Z</time>
      </trkpt>
      <trkpt lat="43.30558" lon="-0.49295">
        <ele>220.28</ele>
        <time>2017-03-11T08:13:14Z</time>
      </trkpt>
      <trkpt lat="43.30562" lon="-0.49298">
        <ele>220.76</ele>
        <time>2017-03-11T08:13:18Z</time>
      </trkpt>
      <trkpt lat="43.30563" lon="-0.49299">
        <ele>220.76</ele>
        <time>2017-03-11T08:13:19Z</time>
      </trkpt>
      <trkpt lat="43.30568" lon="-0.49306">
        <ele>225.57</ele>
        <time>2017-03-11T08:13:36Z</time>
      </trkpt>
      <trkpt lat="43.30575" lon="-0.49316">
        <ele>227.49</ele>
        <time>2017-03-11T08:13:52Z</time>
      </trkpt>
      <trkpt lat="43.30592" lon="-0.49347">
        <ele>230.85</ele>
        <time>2017-03-11T08:14:07Z</time>
      </trkpt>
      <trkpt lat="43.30619" lon="-0.49377">
        <ele>229.41</ele>
        <time>2017-03-11T08:14:20Z</time>
      </trkpt>
      <trkpt lat="43.30637" lon="-0.49397">
        <ele>229.41</ele>
        <time>2017-03-11T08:14:28Z</time>
      </trkpt>
      <trkpt lat="43.30637" lon="-0.49399">
        <ele>229.41</ele>
        <time>2017-03-11T08:14:29Z</time>
      </trkpt>
      <trkpt lat="43.30635" lon="-0.49401">
        <ele>229.41</ele>
        <time>2017-03-11T08:14:32Z</time>
      </trkpt>
      <trkpt lat="43.30633" lon="-0.49401">
        <ele>229.89</ele>
        <time>2017-03-11T08:14:40Z</time>
      </trkpt>
      <trkpt lat="43.30623" lon="-0.49401">
        <ele>232.3</ele>
        <time>2017-03-11T08:14:58Z</time>
      </trkpt>
      <trkpt lat="43.30616" lon="-0.49399">
        <ele>239.02</ele>
        <time>2017-03-11T08:15:15Z</time>
      </trkpt>
      <trkpt lat="43.30608" lon="-0.49396">
        <ele>240.95</ele>
        <time>2017-03-11T08:15:34Z</time>
      </trkpt>
      <trkpt lat="43.30604" lon="-0.49397">
        <ele>241.91</ele>
        <time>2017-03-11T08:15:51Z</time>
      </trkpt>
      <trkpt lat="43.30597" lon="-0.49394">
        <ele>243.83</ele>
        <time>2017-03-11T08:16:05Z</time>
      </trkpt>
      <trkpt lat="43.3059" lon="-0.49394">
        <ele>246.23</ele>
        <time>2017-03-11T08:16:24Z</time>
      </trkpt>
      <trkpt lat="43.30585" lon="-0.49395">
        <ele>247.68</ele>
        <time>2017-03-11T08:16:39Z</time>
      </trkpt>
      <trkpt lat="43.30585" lon="-0.49397">
        <ele>246.72</ele>
        <time>2017-03-11T08:16:58Z</time>
      </trkpt>
      <trkpt lat="43.30585" lon="-0.49395">
        <ele>244.79</ele>
        <time>2017-03-11T08:17:28Z</time>
      </trkpt>
      <trkpt lat="43.30586" lon="-0.49398">
        <ele>245.75</ele>
        <time>2017-03-11T08:17:30Z</time>
      </trkpt>
      <trkpt lat="43.30587" lon="-0.49399">
        <ele>246.23</ele>
        <time>2017-03-11T08:17:31Z</time>
      </trkpt>
      <trkpt lat="43.30616" lon="-0.49418">
        <ele>245.27</ele>
        <time>2017-03-11T08:17:38Z</time>
      </trkpt>
      <trkpt lat="43.30621" lon="-0.49423">
        <ele>244.31</ele>
        <time>2017-03-11T08:17:39Z</time>
      </trkpt>
      <trkpt lat="43.30625" lon="-0.49429">
        <ele>243.83</ele>
        <time>2017-03-11T08:17:40Z</time>
      </trkpt>
      <trkpt lat="43.30628" lon="-0.49435">
        <ele>243.35</ele>
        <time>2017-03-11T08:17:41Z</time>
      </trkpt>
      <trkpt lat="43.3063" lon="-0.49439">
        <ele>242.87</ele>
        <time>2017-03-11T08:17:42Z</time>
      </trkpt>
      <trkpt lat="43.30633" lon="-0.49447">
        <ele>241.91</ele>
        <time>2017-03-11T08:17:51Z</time>
      </trkpt>
      <trkpt lat="43.30637" lon="-0.49466">
        <ele>236.62</ele>
        <time>2017-03-11T08:18:00Z</time>
      </trkpt>
      <trkpt lat="43.30643" lon="-0.49482">
        <ele>237.58</ele>
        <time>2017-03-11T08:18:21Z</time>
      </trkpt>
      <trkpt lat="43.30648" lon="-0.495">
        <ele>236.62</ele>
        <time>2017-03-11T08:18:26Z</time>
      </trkpt>
      <trkpt lat="43.3065" lon="-0.49501">
        <ele>236.62</ele>
        <time>2017-03-11T08:18:27Z</time>
      </trkpt>
      <trkpt lat="43.30653" lon="-0.49502">
        <ele>236.62</ele>
        <time>2017-03-11T08:18:28Z</time>
      </trkpt>
      <trkpt lat="43.30655" lon="-0.49502">
        <ele>236.62</ele>
        <time>2017-03-11T08:18:29Z</time>
      </trkpt>
      <trkpt lat="43.30657" lon="-0.49501">
        <ele>236.14</ele>
        <time>2017-03-11T08:18:30Z</time>
      </trkpt>
      <trkpt lat="43.30658" lon="-0.49498">
        <ele>236.14</ele>
        <time>2017-03-11T08:18:31Z</time>
      </trkpt>
      <trkpt lat="43.30658" lon="-0.49497">
        <ele>236.14</ele>
        <time>2017-03-11T08:18:42Z</time>
      </trkpt>
      <trkpt lat="43.30656" lon="-0.49499">
        <ele>236.62</ele>
        <time>2017-03-11T08:18:45Z</time>
      </trkpt>
      <trkpt lat="43.30655" lon="-0.495">
        <ele>236.62</ele>
        <time>2017-03-11T08:18:46Z</time>
      </trkpt>
      <trkpt lat="43.30654" lon="-0.495">
        <ele>236.62</ele>
        <time>2017-03-11T08:18:47Z</time>
      </trkpt>
      <trkpt lat="43.30653" lon="-0.495">
        <ele>236.62</ele>
        <time>2017-03-11T08:18:48Z</time>
      </trkpt>
      <trkpt lat="43.30652" lon="-0.495">
        <ele>236.62</ele>
        <time>2017-03-11T08:18:49Z</time>
      </trkpt>
      <trkpt lat="43.30651" lon="-0.495">
        <ele>236.62</ele>
        <time>2017-03-11T08:18:50Z</time>
      </trkpt>
      <trkpt lat="43.3065" lon="-0.49499">
        <ele>237.1</ele>
        <time>2017-03-11T08:18:51Z</time>
      </trkpt>
      <trkpt lat="43.30647" lon="-0.49494">
        <ele>237.1</ele>
        <time>2017-03-11T08:18:55Z</time>
      </trkpt>
      <trkpt lat="43.30643" lon="-0.49474">
        <ele>240.47</ele>
        <time>2017-03-11T08:19:09Z</time>
      </trkpt>
      <trkpt lat="43.30638" lon="-0.49454">
        <ele>248.16</ele>
        <time>2017-03-11T08:19:23Z</time>
      </trkpt>
      <trkpt lat="43.30627" lon="-0.49429">
        <ele>250.08</ele>
        <time>2017-03-11T08:19:36Z</time>
      </trkpt>
      <trkpt lat="43.306" lon="-0.49406">
        <ele>246.72</ele>
        <time>2017-03-11T08:19:53Z</time>
      </trkpt>
      <trkpt lat="43.30582" lon="-0.49395">
        <ele>248.64</ele>
        <time>2017-03-11T08:20:10Z</time>
      </trkpt>
      <trkpt lat="43.30568" lon="-0.49387">
        <ele>250.56</ele>
        <time>2017-03-11T08:20:24Z</time>
      </trkpt>
      <trkpt lat="43.30566" lon="-0.49387">
        <ele>251.04</ele>
        <time>2017-03-11T08:20:25Z</time>
      </trkpt>
      <trkpt lat="43.30544" lon="-0.49385">
        <ele>251.52</ele>
        <time>2017-03-11T08:20:43Z</time>
      </trkpt>
      <trkpt lat="43.30523" lon="-0.49392">
        <ele>252.48</ele>
        <time>2017-03-11T08:20:59Z</time>
      </trkpt>
      <trkpt lat="43.3051" lon="-0.49396">
        <ele>252.96</ele>
        <time>2017-03-11T08:21:14Z</time>
      </trkpt>
      <trkpt lat="43.3051" lon="-0.49399">
        <ele>252</ele>
        <time>2017-03-11T08:21:36Z</time>
      </trkpt>
      <trkpt lat="43.30497" lon="-0.49403">
        <ele>253.93</ele>
        <time>2017-03-11T08:21:53Z</time>
      </trkpt>
      <trkpt lat="43.30482" lon="-0.4941">
        <ele>255.37</ele>
        <time>2017-03-11T08:22:07Z</time>
      </trkpt>
      <trkpt lat="43.30466" lon="-0.49419">
        <ele>257.29</ele>
        <time>2017-03-11T08:22:22Z</time>
      </trkpt>
      <trkpt lat="43.30462" lon="-0.49427">
        <ele>257.77</ele>
        <time>2017-03-11T08:22:27Z</time>
      </trkpt>
      <trkpt lat="43.30462" lon="-0.49428">
        <ele>258.25</ele>
        <time>2017-03-11T08:22:28Z</time>
      </trkpt>
      <trkpt lat="43.30464" lon="-0.49432">
        <ele>259.69</ele>
        <time>2017-03-11T08:22:31Z</time>
      </trkpt>
      <trkpt lat="43.30472" lon="-0.49439">
        <ele>261.62</ele>
        <time>2017-03-11T08:22:39Z</time>
      </trkpt>
      <trkpt lat="43.30473" lon="-0.49441">
        <ele>261.62</ele>
        <time>2017-03-11T08:22:40Z</time>
      </trkpt>
      <trkpt lat="43.30474" lon="-0.49442">
        <ele>261.62</ele>
        <time>2017-03-11T08:22:41Z</time>
      </trkpt>
      <trkpt lat="43.30476" lon="-0.49442">
        <ele>262.1</ele>
        <time>2017-03-11T08:22:42Z</time>
      </trkpt>
      <trkpt lat="43.30477" lon="-0.49443">
        <ele>262.1</ele>
        <time>2017-03-11T08:22:43Z</time>
      </trkpt>
      <trkpt lat="43.30478" lon="-0.49444">
        <ele>262.58</ele>
        <time>2017-03-11T08:22:44Z</time>
      </trkpt>
      <trkpt lat="43.30493" lon="-0.49472">
        <ele>268.83</ele>
        <time>2017-03-11T08:23:00Z</time>
      </trkpt>
      <trkpt lat="43.30503" lon="-0.49511">
        <ele>273.15</ele>
        <time>2017-03-11T08:23:18Z</time>
      </trkpt>
      <trkpt lat="43.30518" lon="-0.49573">
        <ele>272.19</ele>
        <time>2017-03-11T08:23:32Z</time>
      </trkpt>
      <trkpt lat="43.30557" lon="-0.49639">
        <ele>272.19</ele>
        <time>2017-03-11T08:23:46Z</time>
      </trkpt>
      <trkpt lat="43.30575" lon="-0.49696">
        <ele>269.79</ele>
        <time>2017-03-11T08:23:58Z</time>
      </trkpt>
      <trkpt lat="43.30575" lon="-0.49709">
        <ele>268.83</ele>
        <time>2017-03-11T08:24:00Z</time>
      </trkpt>
      <trkpt lat="43.30571" lon="-0.49802">
        <ele>262.58</ele>
        <time>2017-03-11T08:24:10Z</time>
      </trkpt>
      <trkpt lat="43.30569" lon="-0.49811">
        <ele>262.58</ele>
        <time>2017-03-11T08:24:11Z</time>
      </trkpt>
      <trkpt lat="43.30566" lon="-0.49819">
        <ele>262.1</ele>
        <time>2017-03-11T08:24:12Z</time>
      </trkpt>
      <trkpt lat="43.30538" lon="-0.49878">
        <ele>257.77</ele>
        <time>2017-03-11T08:24:19Z</time>
      </trkpt>
      <trkpt lat="43.30534" lon="-0.49888">
        <ele>256.81</ele>
        <time>2017-03-11T08:24:20Z</time>
      </trkpt>
      <trkpt lat="43.30532" lon="-0.49898">
        <ele>255.85</ele>
        <time>2017-03-11T08:24:21Z</time>
      </trkpt>
      <trkpt lat="43.30529" lon="-0.4991">
        <ele>254.89</ele>
        <time>2017-03-11T08:24:22Z</time>
      </trkpt>
      <trkpt lat="43.30528" lon="-0.49921">
        <ele>253.93</ele>
        <time>2017-03-11T08:24:23Z</time>
      </trkpt>
      <trkpt lat="43.30522" lon="-0.49973">
        <ele>251.52</ele>
        <time>2017-03-11T08:24:28Z</time>
      </trkpt>
      <trkpt lat="43.30519" lon="-0.49981">
        <ele>251.52</ele>
        <time>2017-03-11T08:24:29Z</time>
      </trkpt>
      <trkpt lat="43.30515" lon="-0.49989">
        <ele>252</ele>
        <time>2017-03-11T08:24:30Z</time>
      </trkpt>
      <trkpt lat="43.30513" lon="-0.49992">
        <ele>252.48</ele>
        <time>2017-03-11T08:24:31Z</time>
      </trkpt>
      <trkpt lat="43.3051" lon="-0.49995">
        <ele>252.48</ele>
        <time>2017-03-11T08:24:32Z</time>
      </trkpt>
      <trkpt lat="43.305" lon="-0.5003">
        <ele>252.48</ele>
        <time>2017-03-11T08:24:40Z</time>
      </trkpt>
      <trkpt lat="43.305" lon="-0.50036">
        <ele>251.52</ele>
        <time>2017-03-11T08:24:41Z</time>
      </trkpt>
      <trkpt lat="43.30497" lon="-0.50078">
        <ele>239.51</ele>
        <time>2017-03-11T08:24:50Z</time>
      </trkpt>
      <trkpt lat="43.30495" lon="-0.50092">
        <ele>234.7</ele>
        <time>2017-03-11T08:24:53Z</time>
      </trkpt>
      <trkpt lat="43.30493" lon="-0.50097">
        <ele>233.26</ele>
        <time>2017-03-11T08:24:54Z</time>
      </trkpt>
      <trkpt lat="43.3047" lon="-0.50136">
        <ele>219.32</ele>
        <time>2017-03-11T08:25:03Z</time>
      </trkpt>
      <trkpt lat="43.30467" lon="-0.50141">
        <ele>217.88</ele>
        <time>2017-03-11T08:25:04Z</time>
      </trkpt>
      <trkpt lat="43.30464" lon="-0.50145">
        <ele>216.43</ele>
        <time>2017-03-11T08:25:05Z</time>
      </trkpt>
      <trkpt lat="43.30462" lon="-0.50149">
        <ele>215.47</ele>
        <time>2017-03-11T08:25:06Z</time>
      </trkpt>
      <trkpt lat="43.30459" lon="-0.50152">
        <ele>214.51</ele>
        <time>2017-03-11T08:25:07Z</time>
      </trkpt>
      <trkpt lat="43.30456" lon="-0.50155">
        <ele>213.07</ele>
        <time>2017-03-11T08:25:08Z</time>
      </trkpt>
      <trkpt lat="43.30453" lon="-0.50159">
        <ele>212.59</ele>
        <time>2017-03-11T08:25:09Z</time>
      </trkpt>
      <trkpt lat="43.30451" lon="-0.50164">
        <ele>211.63</ele>
        <time>2017-03-11T08:25:10Z</time>
      </trkpt>
      <trkpt lat="43.30449" lon="-0.5017">
        <ele>210.67</ele>
        <time>2017-03-11T08:25:11Z</time>
      </trkpt>
      <trkpt lat="43.30448" lon="-0.50175">
        <ele>209.7</ele>
        <time>2017-03-11T08:25:12Z</time>
      </trkpt>
      <trkpt lat="43.30448" lon="-0.5018">
        <ele>208.74</ele>
        <time>2017-03-11T08:25:13Z</time>
      </trkpt>
      <trkpt lat="43.30448" lon="-0.50186">
        <ele>207.78</ele>
        <time>2017-03-11T08:25:14Z</time>
      </trkpt>
      <trkpt lat="43.30449" lon="-0.50194">
        <ele>206.34</ele>
        <time>2017-03-11T08:25:15Z</time>
      </trkpt>
      <trkpt lat="43.30449" lon="-0.50202">
        <ele>205.38</ele>
        <time>2017-03-11T08:25:16Z</time>
      </trkpt>
      <trkpt lat="43.30453" lon="-0.50242">
        <ele>200.57</ele>
        <time>2017-03-11T08:25:22Z</time>
      </trkpt>
      <trkpt lat="43.30455" lon="-0.50247">
        <ele>200.09</ele>
        <time>2017-03-11T08:25:23Z</time>
      </trkpt>
      <trkpt lat="43.30458" lon="-0.50252">
        <ele>199.13</ele>
        <time>2017-03-11T08:25:24Z</time>
      </trkpt>
      <trkpt lat="43.3046" lon="-0.50256">
        <ele>198.65</ele>
        <time>2017-03-11T08:25:25Z</time>
      </trkpt>
      <trkpt lat="43.30463" lon="-0.50262">
        <ele>197.69</ele>
        <time>2017-03-11T08:25:26Z</time>
      </trkpt>
      <trkpt lat="43.30473" lon="-0.50287">
        <ele>193.84</ele>
        <time>2017-03-11T08:25:30Z</time>
      </trkpt>
      <trkpt lat="43.30474" lon="-0.50292">
        <ele>192.88</ele>
        <time>2017-03-11T08:25:31Z</time>
      </trkpt>
      <trkpt lat="43.30474" lon="-0.50296">
        <ele>191.92</ele>
        <time>2017-03-11T08:25:32Z</time>
      </trkpt>
      <trkpt lat="43.30474" lon="-0.50301">
        <ele>191.44</ele>
        <time>2017-03-11T08:25:33Z</time>
      </trkpt>
      <trkpt lat="43.30474" lon="-0.50306">
        <ele>190.48</ele>
        <time>2017-03-11T08:25:34Z</time>
      </trkpt>
      <trkpt lat="43.30481" lon="-0.50352">
        <ele>182.31</ele>
        <time>2017-03-11T08:25:45Z</time>
      </trkpt>
      <trkpt lat="43.30491" lon="-0.50388">
        <ele>175.1</ele>
        <time>2017-03-11T08:25:54Z</time>
      </trkpt>
      <trkpt lat="43.30493" lon="-0.50392">
        <ele>174.14</ele>
        <time>2017-03-11T08:25:55Z</time>
      </trkpt>
      <trkpt lat="43.30495" lon="-0.50396">
        <ele>173.66</ele>
        <time>2017-03-11T08:25:56Z</time>
      </trkpt>
      <trkpt lat="43.30521" lon="-0.50431">
        <ele>172.21</ele>
        <time>2017-03-11T08:26:03Z</time>
      </trkpt>
      <trkpt lat="43.30594" lon="-0.50511">
        <ele>177.98</ele>
        <time>2017-03-11T08:26:16Z</time>
      </trkpt>
      <trkpt lat="43.30639" lon="-0.5054">
        <ele>177.02</ele>
        <time>2017-03-11T08:26:22Z</time>
      </trkpt>
      <trkpt lat="43.30646" lon="-0.50546">
        <ele>176.54</ele>
        <time>2017-03-11T08:26:23Z</time>
      </trkpt>
      <trkpt lat="43.30653" lon="-0.50553">
        <ele>176.54</ele>
        <time>2017-03-11T08:26:24Z</time>
      </trkpt>
      <trkpt lat="43.30725" lon="-0.50631">
        <ele>170.77</ele>
        <time>2017-03-11T08:26:35Z</time>
      </trkpt>
      <trkpt lat="43.30731" lon="-0.50637">
        <ele>169.81</ele>
        <time>2017-03-11T08:26:36Z</time>
      </trkpt>
      <trkpt lat="43.30739" lon="-0.50643">
        <ele>169.33</ele>
        <time>2017-03-11T08:26:37Z</time>
      </trkpt>
      <trkpt lat="43.30748" lon="-0.50648">
        <ele>168.37</ele>
        <time>2017-03-11T08:26:38Z</time>
      </trkpt>
      <trkpt lat="43.30757" lon="-0.50652">
        <ele>167.41</ele>
        <time>2017-03-11T08:26:39Z</time>
      </trkpt>
      <trkpt lat="43.30767" lon="-0.50657">
        <ele>166.45</ele>
        <time>2017-03-11T08:26:40Z</time>
      </trkpt>
      <trkpt lat="43.30865" lon="-0.50704">
        <ele>161.16</ele>
        <time>2017-03-11T08:26:52Z</time>
      </trkpt>
      <trkpt lat="43.30951" lon="-0.50786">
        <ele>161.16</ele>
        <time>2017-03-11T08:27:04Z</time>
      </trkpt>
      <trkpt lat="43.31033" lon="-0.50851">
        <ele>160.68</ele>
        <time>2017-03-11T08:27:15Z</time>
      </trkpt>
      <trkpt lat="43.31038" lon="-0.50858">
        <ele>161.16</ele>
        <time>2017-03-11T08:27:16Z</time>
      </trkpt>
      <trkpt lat="43.31043" lon="-0.50866">
        <ele>161.16</ele>
        <time>2017-03-11T08:27:17Z</time>
      </trkpt>
      <trkpt lat="43.31047" lon="-0.50874">
        <ele>161.64</ele>
        <time>2017-03-11T08:27:18Z</time>
      </trkpt>
      <trkpt lat="43.31051" lon="-0.50883">
        <ele>162.12</ele>
        <time>2017-03-11T08:27:19Z</time>
      </trkpt>
      <trkpt lat="43.31061" lon="-0.50907">
        <ele>162.6</ele>
        <time>2017-03-11T08:27:22Z</time>
      </trkpt>
      <trkpt lat="43.31066" lon="-0.50915">
        <ele>162.6</ele>
        <time>2017-03-11T08:27:23Z</time>
      </trkpt>
      <trkpt lat="43.3114" lon="-0.51004">
        <ele>161.16</ele>
        <time>2017-03-11T08:27:34Z</time>
      </trkpt>
      <trkpt lat="43.31179" lon="-0.51071">
        <ele>160.68</ele>
        <time>2017-03-11T08:27:42Z</time>
      </trkpt>
      <trkpt lat="43.31191" lon="-0.51085">
        <ele>160.2</ele>
        <time>2017-03-11T08:27:44Z</time>
      </trkpt>
      <trkpt lat="43.31265" lon="-0.51153">
        <ele>156.35</ele>
        <time>2017-03-11T08:27:55Z</time>
      </trkpt>
      <trkpt lat="43.31283" lon="-0.51167">
        <ele>155.39</ele>
        <time>2017-03-11T08:27:58Z</time>
      </trkpt>
      <trkpt lat="43.31314" lon="-0.51182">
        <ele>153.95</ele>
        <time>2017-03-11T08:28:03Z</time>
      </trkpt>
      <trkpt lat="43.31411" lon="-0.5122">
        <ele>153.95</ele>
        <time>2017-03-11T08:28:16Z</time>
      </trkpt>
      <trkpt lat="43.31502" lon="-0.51209">
        <ele>146.26</ele>
        <time>2017-03-11T08:28:27Z</time>
      </trkpt>
      <trkpt lat="43.31509" lon="-0.51209">
        <ele>145.78</ele>
        <time>2017-03-11T08:28:28Z</time>
      </trkpt>
      <trkpt lat="43.31515" lon="-0.51212">
        <ele>144.82</ele>
        <time>2017-03-11T08:28:29Z</time>
      </trkpt>
      <trkpt lat="43.31521" lon="-0.51217">
        <ele>144.34</ele>
        <time>2017-03-11T08:28:30Z</time>
      </trkpt>
      <trkpt lat="43.31525" lon="-0.51223">
        <ele>143.37</ele>
        <time>2017-03-11T08:28:31Z</time>
      </trkpt>
      <trkpt lat="43.31529" lon="-0.51231">
        <ele>142.89</ele>
        <time>2017-03-11T08:28:32Z</time>
      </trkpt>
      <trkpt lat="43.31533" lon="-0.51241">
        <ele>142.41</ele>
        <time>2017-03-11T08:28:33Z</time>
      </trkpt>
      <trkpt lat="43.31537" lon="-0.51251">
        <ele>141.93</ele>
        <time>2017-03-11T08:28:34Z</time>
      </trkpt>
      <trkpt lat="43.31542" lon="-0.51262">
        <ele>140.97</ele>
        <time>2017-03-11T08:28:35Z</time>
      </trkpt>
      <trkpt lat="43.31589" lon="-0.51329">
        <ele>136.16</ele>
        <time>2017-03-11T08:28:42Z</time>
      </trkpt>
      <trkpt lat="43.31598" lon="-0.51337">
        <ele>135.68</ele>
        <time>2017-03-11T08:28:43Z</time>
      </trkpt>
      <trkpt lat="43.31607" lon="-0.51344">
        <ele>135.2</ele>
        <time>2017-03-11T08:28:44Z</time>
      </trkpt>
      <trkpt lat="43.31617" lon="-0.5135">
        <ele>134.72</ele>
        <time>2017-03-11T08:28:45Z</time>
      </trkpt>
      <trkpt lat="43.31627" lon="-0.51355">
        <ele>134.24</ele>
        <time>2017-03-11T08:28:46Z</time>
      </trkpt>
      <trkpt lat="43.31713" lon="-0.51389">
        <ele>129.92</ele>
        <time>2017-03-11T08:28:55Z</time>
      </trkpt>
      <trkpt lat="43.31781" lon="-0.51409">
        <ele>128.95</ele>
        <time>2017-03-11T08:29:04Z</time>
      </trkpt>
      <trkpt lat="43.3182" lon="-0.51436">
        <ele>130.4</ele>
        <time>2017-03-11T08:29:14Z</time>
      </trkpt>
      <trkpt lat="43.31833" lon="-0.51438">
        <ele>128.95</ele>
        <time>2017-03-11T08:29:17Z</time>
      </trkpt>
      <trkpt lat="43.31838" lon="-0.51437">
        <ele>128.47</ele>
        <time>2017-03-11T08:29:18Z</time>
      </trkpt>
      <trkpt lat="43.31843" lon="-0.51435">
        <ele>127.99</ele>
        <time>2017-03-11T08:29:19Z</time>
      </trkpt>
      <trkpt lat="43.31849" lon="-0.51432">
        <ele>127.03</ele>
        <time>2017-03-11T08:29:20Z</time>
      </trkpt>
      <trkpt lat="43.31854" lon="-0.51427">
        <ele>126.07</ele>
        <time>2017-03-11T08:29:21Z</time>
      </trkpt>
      <trkpt lat="43.31859" lon="-0.51421">
        <ele>125.59</ele>
        <time>2017-03-11T08:29:22Z</time>
      </trkpt>
      <trkpt lat="43.31871" lon="-0.51407">
        <ele>123.67</ele>
        <time>2017-03-11T08:29:25Z</time>
      </trkpt>
      <trkpt lat="43.31879" lon="-0.51397">
        <ele>122.71</ele>
        <time>2017-03-11T08:29:27Z</time>
      </trkpt>
      <trkpt lat="43.31884" lon="-0.51386">
        <ele>122.22</ele>
        <time>2017-03-11T08:29:29Z</time>
      </trkpt>
      <trkpt lat="43.31891" lon="-0.51369">
        <ele>121.74</ele>
        <time>2017-03-11T08:29:32Z</time>
      </trkpt>
      <trkpt lat="43.31894" lon="-0.51365">
        <ele>121.26</ele>
        <time>2017-03-11T08:29:33Z</time>
      </trkpt>
      <trkpt lat="43.31898" lon="-0.51363">
        <ele>120.3</ele>
        <time>2017-03-11T08:29:34Z</time>
      </trkpt>
      <trkpt lat="43.31903" lon="-0.51364">
        <ele>118.86</ele>
        <time>2017-03-11T08:29:35Z</time>
      </trkpt>
      <trkpt lat="43.31909" lon="-0.51369">
        <ele>117.42</ele>
        <time>2017-03-11T08:29:36Z</time>
      </trkpt>
      <trkpt lat="43.31912" lon="-0.51374">
        <ele>116.94</ele>
        <time>2017-03-11T08:29:37Z</time>
      </trkpt>
      <trkpt lat="43.31916" lon="-0.51383">
        <ele>115.98</ele>
        <time>2017-03-11T08:29:38Z</time>
      </trkpt>
      <trkpt lat="43.3192" lon="-0.5139">
        <ele>115.01</ele>
        <time>2017-03-11T08:29:39Z</time>
      </trkpt>
      <trkpt lat="43.31924" lon="-0.51397">
        <ele>114.05</ele>
        <time>2017-03-11T08:29:40Z</time>
      </trkpt>
      <trkpt lat="43.3193" lon="-0.51402">
        <ele>113.09</ele>
        <time>2017-03-11T08:29:41Z</time>
      </trkpt>
      <trkpt lat="43.31935" lon="-0.51405">
        <ele>112.61</ele>
        <time>2017-03-11T08:29:42Z</time>
      </trkpt>
      <trkpt lat="43.31941" lon="-0.51409">
        <ele>113.09</ele>
        <time>2017-03-11T08:29:43Z</time>
      </trkpt>
      <trkpt lat="43.31947" lon="-0.51412">
        <ele>113.09</ele>
        <time>2017-03-11T08:29:44Z</time>
      </trkpt>
      <trkpt lat="43.31954" lon="-0.51414">
        <ele>113.57</ele>
        <time>2017-03-11T08:29:45Z</time>
      </trkpt>
      <trkpt lat="43.31959" lon="-0.51416">
        <ele>113.57</ele>
        <time>2017-03-11T08:29:46Z</time>
      </trkpt>
      <trkpt lat="43.31965" lon="-0.51419">
        <ele>113.57</ele>
        <time>2017-03-11T08:29:47Z</time>
      </trkpt>
      <trkpt lat="43.3197" lon="-0.51422">
        <ele>113.57</ele>
        <time>2017-03-11T08:29:48Z</time>
      </trkpt>
      <trkpt lat="43.31975" lon="-0.51427">
        <ele>115.01</ele>
        <time>2017-03-11T08:29:49Z</time>
      </trkpt>
      <trkpt lat="43.31983" lon="-0.51434">
        <ele>116.46</ele>
        <time>2017-03-11T08:29:51Z</time>
      </trkpt>
      <trkpt lat="43.31987" lon="-0.51436">
        <ele>116.94</ele>
        <time>2017-03-11T08:29:52Z</time>
      </trkpt>
      <trkpt lat="43.3199" lon="-0.51438">
        <ele>118.86</ele>
        <time>2017-03-11T08:29:53Z</time>
      </trkpt>
      <trkpt lat="43.31994" lon="-0.51438">
        <ele>119.34</ele>
        <time>2017-03-11T08:29:54Z</time>
      </trkpt>
      <trkpt lat="43.31996" lon="-0.51439">
        <ele>120.3</ele>
        <time>2017-03-11T08:29:55Z</time>
      </trkpt>
      <trkpt lat="43.32024" lon="-0.51448">
        <ele>130.4</ele>
        <time>2017-03-11T08:30:11Z</time>
      </trkpt>
      <trkpt lat="43.32042" lon="-0.51462">
        <ele>134.72</ele>
        <time>2017-03-11T08:30:28Z</time>
      </trkpt>
      <trkpt lat="43.32044" lon="-0.51463">
        <ele>133.28</ele>
        <time>2017-03-11T08:30:50Z</time>
      </trkpt>
      <trkpt lat="43.32044" lon="-0.51462">
        <ele>135.2</ele>
        <time>2017-03-11T08:31:17Z</time>
      </trkpt>
      <trkpt lat="43.32045" lon="-0.51463">
        <ele>139.53</ele>
        <time>2017-03-11T08:31:43Z</time>
      </trkpt>
      <trkpt lat="43.32059" lon="-0.51468">
        <ele>141.45</ele>
        <time>2017-03-11T08:31:56Z</time>
      </trkpt>
      <trkpt lat="43.32079" lon="-0.51474">
        <ele>145.78</ele>
        <time>2017-03-11T08:32:12Z</time>
      </trkpt>
      <trkpt lat="43.32095" lon="-0.51478">
        <ele>147.7</ele>
        <time>2017-03-11T08:32:24Z</time>
      </trkpt>
      <trkpt lat="43.32119" lon="-0.51485">
        <ele>151.54</ele>
        <time>2017-03-11T08:32:41Z</time>
      </trkpt>
      <trkpt lat="43.32138" lon="-0.51489">
        <ele>155.87</ele>
        <time>2017-03-11T08:32:56Z</time>
      </trkpt>
      <trkpt lat="43.32154" lon="-0.51489">
        <ele>160.68</ele>
        <time>2017-03-11T08:33:10Z</time>
      </trkpt>
      <trkpt lat="43.32169" lon="-0.51487">
        <ele>164.52</ele>
        <time>2017-03-11T08:33:23Z</time>
      </trkpt>
      <trkpt lat="43.32183" lon="-0.5148">
        <ele>165.48</ele>
        <time>2017-03-11T08:33:38Z</time>
      </trkpt>
      <trkpt lat="43.32193" lon="-0.51473">
        <ele>166.93</ele>
        <time>2017-03-11T08:33:48Z</time>
      </trkpt>
      <trkpt lat="43.32206" lon="-0.51459">
        <ele>168.37</ele>
        <time>2017-03-11T08:34:03Z</time>
      </trkpt>
      <trkpt lat="43.32207" lon="-0.51457">
        <ele>168.85</ele>
        <time>2017-03-11T08:34:04Z</time>
      </trkpt>
      <trkpt lat="43.32213" lon="-0.51449">
        <ele>173.66</ele>
        <time>2017-03-11T08:34:12Z</time>
      </trkpt>
      <trkpt lat="43.32221" lon="-0.51437">
        <ele>178.94</ele>
        <time>2017-03-11T08:34:24Z</time>
      </trkpt>
      <trkpt lat="43.32226" lon="-0.51424">
        <ele>184.71</ele>
        <time>2017-03-11T08:34:35Z</time>
      </trkpt>
      <trkpt lat="43.32233" lon="-0.51406">
        <ele>189.04</ele>
        <time>2017-03-11T08:34:49Z</time>
      </trkpt>
      <trkpt lat="43.32239" lon="-0.514">
        <ele>190.48</ele>
        <time>2017-03-11T08:34:56Z</time>
      </trkpt>
      <trkpt lat="43.32253" lon="-0.51394">
        <ele>190.96</ele>
        <time>2017-03-11T08:35:10Z</time>
      </trkpt>
      <trkpt lat="43.32271" lon="-0.51386">
        <ele>192.4</ele>
        <time>2017-03-11T08:35:26Z</time>
      </trkpt>
      <trkpt lat="43.32282" lon="-0.5138">
        <ele>192.88</ele>
        <time>2017-03-11T08:35:37Z</time>
      </trkpt>
      <trkpt lat="43.32283" lon="-0.51379">
        <ele>192.88</ele>
        <time>2017-03-11T08:35:38Z</time>
      </trkpt>
      <trkpt lat="43.32296" lon="-0.51368">
        <ele>192.4</ele>
        <time>2017-03-11T08:35:51Z</time>
      </trkpt>
      <trkpt lat="43.32306" lon="-0.51358">
        <ele>193.84</ele>
        <time>2017-03-11T08:36:02Z</time>
      </trkpt>
      <trkpt lat="43.32307" lon="-0.51357">
        <ele>193.36</ele>
        <time>2017-03-11T08:36:03Z</time>
      </trkpt>
      <trkpt lat="43.32317" lon="-0.51347">
        <ele>194.32</ele>
        <time>2017-03-11T08:36:15Z</time>
      </trkpt>
      <trkpt lat="43.32318" lon="-0.51346">
        <ele>194.8</ele>
        <time>2017-03-11T08:36:16Z</time>
      </trkpt>
      <trkpt lat="43.32331" lon="-0.51334">
        <ele>195.28</ele>
        <time>2017-03-11T08:36:30Z</time>
      </trkpt>
      <trkpt lat="43.32344" lon="-0.51326">
        <ele>197.69</ele>
        <time>2017-03-11T08:36:45Z</time>
      </trkpt>
      <trkpt lat="43.32363" lon="-0.51321">
        <ele>202.01</ele>
        <time>2017-03-11T08:37:03Z</time>
      </trkpt>
      <trkpt lat="43.32377" lon="-0.51316">
        <ele>204.9</ele>
        <time>2017-03-11T08:37:18Z</time>
      </trkpt>
      <trkpt lat="43.32378" lon="-0.51316">
        <ele>205.38</ele>
        <time>2017-03-11T08:37:19Z</time>
      </trkpt>
      <trkpt lat="43.32392" lon="-0.51319">
        <ele>208.74</ele>
        <time>2017-03-11T08:37:32Z</time>
      </trkpt>
      <trkpt lat="43.32406" lon="-0.51324">
        <ele>209.22</ele>
        <time>2017-03-11T08:37:46Z</time>
      </trkpt>
      <trkpt lat="43.32414" lon="-0.5132">
        <ele>210.19</ele>
        <time>2017-03-11T08:37:54Z</time>
      </trkpt>
      <trkpt lat="43.32424" lon="-0.51305">
        <ele>214.99</ele>
        <time>2017-03-11T08:38:07Z</time>
      </trkpt>
      <trkpt lat="43.32424" lon="-0.51282">
        <ele>215.95</ele>
        <time>2017-03-11T08:38:21Z</time>
      </trkpt>
      <trkpt lat="43.32421" lon="-0.51261">
        <ele>212.59</ele>
        <time>2017-03-11T08:38:36Z</time>
      </trkpt>
      <trkpt lat="43.32418" lon="-0.51237">
        <ele>216.43</ele>
        <time>2017-03-11T08:38:52Z</time>
      </trkpt>
      <trkpt lat="43.32413" lon="-0.51208">
        <ele>221.24</ele>
        <time>2017-03-11T08:39:08Z</time>
      </trkpt>
      <trkpt lat="43.3241" lon="-0.51186">
        <ele>227.97</ele>
        <time>2017-03-11T08:39:20Z</time>
      </trkpt>
      <trkpt lat="43.32409" lon="-0.51162">
        <ele>233.26</ele>
        <time>2017-03-11T08:39:34Z</time>
      </trkpt>
      <trkpt lat="43.32408" lon="-0.51137">
        <ele>241.43</ele>
        <time>2017-03-11T08:39:50Z</time>
      </trkpt>
      <trkpt lat="43.32408" lon="-0.51133">
        <ele>242.39</ele>
        <time>2017-03-11T08:39:53Z</time>
      </trkpt>
      <trkpt lat="43.32409" lon="-0.51125">
        <ele>244.31</ele>
        <time>2017-03-11T08:39:58Z</time>
      </trkpt>
      <trkpt lat="43.3241" lon="-0.51101">
        <ele>250.08</ele>
        <time>2017-03-11T08:40:14Z</time>
      </trkpt>
      <trkpt lat="43.32412" lon="-0.51091">
        <ele>251.52</ele>
        <time>2017-03-11T08:40:20Z</time>
      </trkpt>
      <trkpt lat="43.32412" lon="-0.5109">
        <ele>251.52</ele>
        <time>2017-03-11T08:40:21Z</time>
      </trkpt>
      <trkpt lat="43.32413" lon="-0.51088">
        <ele>251.52</ele>
        <time>2017-03-11T08:40:22Z</time>
      </trkpt>
      <trkpt lat="43.32414" lon="-0.51087">
        <ele>251.52</ele>
        <time>2017-03-11T08:40:23Z</time>
      </trkpt>
      <trkpt lat="43.32414" lon="-0.51085">
        <ele>251.52</ele>
        <time>2017-03-11T08:40:24Z</time>
      </trkpt>
      <trkpt lat="43.32414" lon="-0.51084">
        <ele>251.52</ele>
        <time>2017-03-11T08:40:25Z</time>
      </trkpt>
      <trkpt lat="43.32415" lon="-0.51082">
        <ele>251.52</ele>
        <time>2017-03-11T08:40:26Z</time>
      </trkpt>
      <trkpt lat="43.32415" lon="-0.51081">
        <ele>251.52</ele>
        <time>2017-03-11T08:40:27Z</time>
      </trkpt>
      <trkpt lat="43.32423" lon="-0.51054">
        <ele>256.33</ele>
        <time>2017-03-11T08:40:44Z</time>
      </trkpt>
      <trkpt lat="43.32428" lon="-0.51044">
        <ele>255.85</ele>
        <time>2017-03-11T08:40:52Z</time>
      </trkpt>
      <trkpt lat="43.32434" lon="-0.5103">
        <ele>256.81</ele>
        <time>2017-03-11T08:41:02Z</time>
      </trkpt>
      <trkpt lat="43.32445" lon="-0.51005">
        <ele>257.77</ele>
        <time>2017-03-11T08:41:18Z</time>
      </trkpt>
      <trkpt lat="43.32457" lon="-0.50976">
        <ele>260.17</ele>
        <time>2017-03-11T08:41:36Z</time>
      </trkpt>
      <trkpt lat="43.32458" lon="-0.50974">
        <ele>261.14</ele>
        <time>2017-03-11T08:41:38Z</time>
      </trkpt>
      <trkpt lat="43.3246" lon="-0.50973">
        <ele>261.62</ele>
        <time>2017-03-11T08:41:39Z</time>
      </trkpt>
      <trkpt lat="43.32468" lon="-0.50976">
        <ele>264.02</ele>
        <time>2017-03-11T08:41:45Z</time>
      </trkpt>
      <trkpt lat="43.32481" lon="-0.51006">
        <ele>263.54</ele>
        <time>2017-03-11T08:42:06Z</time>
      </trkpt>
      <trkpt lat="43.32487" lon="-0.51039">
        <ele>261.62</ele>
        <time>2017-03-11T08:42:21Z</time>
      </trkpt>
      <trkpt lat="43.32502" lon="-0.51086">
        <ele>259.69</ele>
        <time>2017-03-11T08:42:36Z</time>
      </trkpt>
      <trkpt lat="43.32533" lon="-0.51136">
        <ele>258.25</ele>
        <time>2017-03-11T08:42:51Z</time>
      </trkpt>
      <trkpt lat="43.32582" lon="-0.5119">
        <ele>258.25</ele>
        <time>2017-03-11T08:43:10Z</time>
      </trkpt>
      <trkpt lat="43.32641" lon="-0.51245">
        <ele>255.37</ele>
        <time>2017-03-11T08:43:26Z</time>
      </trkpt>
      <trkpt lat="43.32695" lon="-0.51294">
        <ele>252</ele>
        <time>2017-03-11T08:43:35Z</time>
      </trkpt>
      <trkpt lat="43.32703" lon="-0.51299">
        <ele>251.52</ele>
        <time>2017-03-11T08:43:36Z</time>
      </trkpt>
      <trkpt lat="43.3278" lon="-0.51365">
        <ele>249.12</ele>
        <time>2017-03-11T08:43:48Z</time>
      </trkpt>
      <trkpt lat="43.32816" lon="-0.51404">
        <ele>252.48</ele>
        <time>2017-03-11T08:43:59Z</time>
      </trkpt>
      <trkpt lat="43.32856" lon="-0.5142">
        <ele>255.37</ele>
        <time>2017-03-11T08:44:13Z</time>
      </trkpt>
      <trkpt lat="43.32909" lon="-0.51449">
        <ele>254.89</ele>
        <time>2017-03-11T08:44:28Z</time>
      </trkpt>
      <trkpt lat="43.32917" lon="-0.51455">
        <ele>253.93</ele>
        <time>2017-03-11T08:44:30Z</time>
      </trkpt>
      <trkpt lat="43.32935" lon="-0.51474">
        <ele>252</ele>
        <time>2017-03-11T08:44:34Z</time>
      </trkpt>
      <trkpt lat="43.32998" lon="-0.51556">
        <ele>247.2</ele>
        <time>2017-03-11T08:44:45Z</time>
      </trkpt>
      <trkpt lat="43.33052" lon="-0.51615">
        <ele>243.35</ele>
        <time>2017-03-11T08:44:54Z</time>
      </trkpt>
      <trkpt lat="43.33079" lon="-0.51645">
        <ele>240.95</ele>
        <time>2017-03-11T08:45:02Z</time>
      </trkpt>
      <trkpt lat="43.33104" lon="-0.51681">
        <ele>234.22</ele>
        <time>2017-03-11T08:45:12Z</time>
      </trkpt>
      <trkpt lat="43.33129" lon="-0.51702">
        <ele>227.01</ele>
        <time>2017-03-11T08:45:22Z</time>
      </trkpt>
      <trkpt lat="43.3313" lon="-0.51705">
        <ele>226.53</ele>
        <time>2017-03-11T08:45:23Z</time>
      </trkpt>
      <trkpt lat="43.33131" lon="-0.51709">
        <ele>226.05</ele>
        <time>2017-03-11T08:45:24Z</time>
      </trkpt>
      <trkpt lat="43.33133" lon="-0.51715">
        <ele>225.09</ele>
        <time>2017-03-11T08:45:25Z</time>
      </trkpt>
      <trkpt lat="43.33137" lon="-0.51722">
        <ele>224.12</ele>
        <time>2017-03-11T08:45:26Z</time>
      </trkpt>
      <trkpt lat="43.33141" lon="-0.51725">
        <ele>223.16</ele>
        <time>2017-03-11T08:45:27Z</time>
      </trkpt>
      <trkpt lat="43.33143" lon="-0.51726">
        <ele>222.68</ele>
        <time>2017-03-11T08:45:28Z</time>
      </trkpt>
      <trkpt lat="43.33145" lon="-0.51726">
        <ele>222.2</ele>
        <time>2017-03-11T08:45:29Z</time>
      </trkpt>
      <trkpt lat="43.33149" lon="-0.51728">
        <ele>223.64</ele>
        <time>2017-03-11T08:45:33Z</time>
      </trkpt>
      <trkpt lat="43.3315" lon="-0.51729">
        <ele>224.61</ele>
        <time>2017-03-11T08:45:34Z</time>
      </trkpt>
      <trkpt lat="43.33151" lon="-0.5173">
        <ele>225.09</ele>
        <time>2017-03-11T08:45:35Z</time>
      </trkpt>
      <trkpt lat="43.33153" lon="-0.51732">
        <ele>226.05</ele>
        <time>2017-03-11T08:45:36Z</time>
      </trkpt>
      <trkpt lat="43.33154" lon="-0.51733">
        <ele>226.53</ele>
        <time>2017-03-11T08:45:37Z</time>
      </trkpt>
      <trkpt lat="43.33156" lon="-0.51734">
        <ele>227.01</ele>
        <time>2017-03-11T08:45:38Z</time>
      </trkpt>
      <trkpt lat="43.33157" lon="-0.51735">
        <ele>227.97</ele>
        <time>2017-03-11T08:45:39Z</time>
      </trkpt>
      <trkpt lat="43.33159" lon="-0.51736">
        <ele>228.45</ele>
        <time>2017-03-11T08:45:40Z</time>
      </trkpt>
      <trkpt lat="43.3316" lon="-0.51736">
        <ele>228.93</ele>
        <time>2017-03-11T08:45:41Z</time>
      </trkpt>
      <trkpt lat="43.33162" lon="-0.51737">
        <ele>229.41</ele>
        <time>2017-03-11T08:45:42Z</time>
      </trkpt>
      <trkpt lat="43.33186" lon="-0.51755">
        <ele>235.66</ele>
        <time>2017-03-11T08:45:59Z</time>
      </trkpt>
      <trkpt lat="43.33203" lon="-0.51768">
        <ele>236.62</ele>
        <time>2017-03-11T08:46:11Z</time>
      </trkpt>
      <trkpt lat="43.33211" lon="-0.51774">
        <ele>237.1</ele>
        <time>2017-03-11T08:46:16Z</time>
      </trkpt>
      <trkpt lat="43.33213" lon="-0.51776">
        <ele>237.1</ele>
        <time>2017-03-11T08:46:17Z</time>
      </trkpt>
      <trkpt lat="43.33232" lon="-0.51806">
        <ele>238.54</ele>
        <time>2017-03-11T08:46:28Z</time>
      </trkpt>
      <trkpt lat="43.33245" lon="-0.51844">
        <ele>240.95</ele>
        <time>2017-03-11T08:46:36Z</time>
      </trkpt>
      <trkpt lat="43.33259" lon="-0.51894">
        <ele>240.47</ele>
        <time>2017-03-11T08:46:47Z</time>
      </trkpt>
      <trkpt lat="43.3327" lon="-0.51948">
        <ele>238.06</ele>
        <time>2017-03-11T08:46:58Z</time>
      </trkpt>
      <trkpt lat="43.33272" lon="-0.51954">
        <ele>238.06</ele>
        <time>2017-03-11T08:46:59Z</time>
      </trkpt>
      <trkpt lat="43.33272" lon="-0.5196">
        <ele>238.06</ele>
        <time>2017-03-11T08:47:00Z</time>
      </trkpt>
      <trkpt lat="43.33272" lon="-0.51965">
        <ele>238.06</ele>
        <time>2017-03-11T08:47:01Z</time>
      </trkpt>
      <trkpt lat="43.33273" lon="-0.51973">
        <ele>238.06</ele>
        <time>2017-03-11T08:47:03Z</time>
      </trkpt>
      <trkpt lat="43.3328" lon="-0.52028">
        <ele>239.02</ele>
        <time>2017-03-11T08:47:14Z</time>
      </trkpt>
      <trkpt lat="43.3328" lon="-0.52051">
        <ele>239.51</ele>
        <time>2017-03-11T08:47:19Z</time>
      </trkpt>
      <trkpt lat="43.33279" lon="-0.52054">
        <ele>239.51</ele>
        <time>2017-03-11T08:47:20Z</time>
      </trkpt>
      <trkpt lat="43.33278" lon="-0.52056">
        <ele>239.51</ele>
        <time>2017-03-11T08:47:21Z</time>
      </trkpt>
      <trkpt lat="43.33278" lon="-0.52059">
        <ele>239.51</ele>
        <time>2017-03-11T08:47:22Z</time>
      </trkpt>
      <trkpt lat="43.33278" lon="-0.52063">
        <ele>239.99</ele>
        <time>2017-03-11T08:47:23Z</time>
      </trkpt>
      <trkpt lat="43.33275" lon="-0.52109">
        <ele>240.95</ele>
        <time>2017-03-11T08:47:35Z</time>
      </trkpt>
      <trkpt lat="43.3328" lon="-0.52161">
        <ele>242.87</ele>
        <time>2017-03-11T08:47:47Z</time>
      </trkpt>
      <trkpt lat="43.33299" lon="-0.52238">
        <ele>236.62</ele>
        <time>2017-03-11T08:48:00Z</time>
      </trkpt>
      <trkpt lat="43.33304" lon="-0.52252">
        <ele>235.66</ele>
        <time>2017-03-11T08:48:02Z</time>
      </trkpt>
      <trkpt lat="43.33338" lon="-0.5236">
        <ele>227.97</ele>
        <time>2017-03-11T08:48:14Z</time>
      </trkpt>
      <trkpt lat="43.33364" lon="-0.52434">
        <ele>221.72</ele>
        <time>2017-03-11T08:48:23Z</time>
      </trkpt>
      <trkpt lat="43.3337" lon="-0.52444">
        <ele>221.72</ele>
        <time>2017-03-11T08:48:31Z</time>
      </trkpt>
      <trkpt lat="43.33367" lon="-0.52442">
        <ele>226.53</ele>
        <time>2017-03-11T08:48:50Z</time>
      </trkpt>
      <trkpt lat="43.33368" lon="-0.5244">
        <ele>221.24</ele>
        <time>2017-03-11T08:49:22Z</time>
      </trkpt>
      <trkpt lat="43.33365" lon="-0.5244">
        <ele>224.61</ele>
        <time>2017-03-11T08:49:56Z</time>
      </trkpt>
      <trkpt lat="43.33368" lon="-0.52442">
        <ele>226.53</ele>
        <time>2017-03-11T08:50:22Z</time>
      </trkpt>
      <trkpt lat="43.33369" lon="-0.52443">
        <ele>224.61</ele>
        <time>2017-03-11T08:50:43Z</time>
      </trkpt>
      <trkpt lat="43.33367" lon="-0.52439">
        <ele>224.61</ele>
        <time>2017-03-11T08:51:12Z</time>
      </trkpt>
      <trkpt lat="43.33366" lon="-0.52439">
        <ele>224.12</ele>
        <time>2017-03-11T08:51:35Z</time>
      </trkpt>
      <trkpt lat="43.33369" lon="-0.52439">
        <ele>222.2</ele>
        <time>2017-03-11T08:52:02Z</time>
      </trkpt>
      <trkpt lat="43.33367" lon="-0.52441">
        <ele>219.32</ele>
        <time>2017-03-11T08:52:32Z</time>
      </trkpt>
      <trkpt lat="43.33369" lon="-0.52441">
        <ele>220.28</ele>
        <time>2017-03-11T08:53:01Z</time>
      </trkpt>
      <trkpt lat="43.33371" lon="-0.5244">
        <ele>218.36</ele>
        <time>2017-03-11T08:53:28Z</time>
      </trkpt>
      <trkpt lat="43.3337" lon="-0.52444">
        <ele>218.36</ele>
        <time>2017-03-11T08:53:43Z</time>
      </trkpt>
      <trkpt lat="43.33368" lon="-0.52447">
        <ele>218.36</ele>
        <time>2017-03-11T08:53:47Z</time>
      </trkpt>
      <trkpt lat="43.33366" lon="-0.52448">
        <ele>218.36</ele>
        <time>2017-03-11T08:53:48Z</time>
      </trkpt>
      <trkpt lat="43.33355" lon="-0.52456">
        <ele>217.4</ele>
        <time>2017-03-11T08:53:57Z</time>
      </trkpt>
      <trkpt lat="43.33355" lon="-0.52458">
        <ele>216.91</ele>
        <time>2017-03-11T08:53:58Z</time>
      </trkpt>
      <trkpt lat="43.33355" lon="-0.5246">
        <ele>216.43</ele>
        <time>2017-03-11T08:53:59Z</time>
      </trkpt>
      <trkpt lat="43.33343" lon="-0.52496">
        <ele>209.7</ele>
        <time>2017-03-11T08:54:12Z</time>
      </trkpt>
      <trkpt lat="43.33342" lon="-0.52499">
        <ele>208.74</ele>
        <time>2017-03-11T08:54:13Z</time>
      </trkpt>
      <trkpt lat="43.33341" lon="-0.52511">
        <ele>206.34</ele>
        <time>2017-03-11T08:54:17Z</time>
      </trkpt>
      <trkpt lat="43.33342" lon="-0.52514">
        <ele>205.38</ele>
        <time>2017-03-11T08:54:18Z</time>
      </trkpt>
      <trkpt lat="43.33345" lon="-0.52547">
        <ele>202.01</ele>
        <time>2017-03-11T08:54:30Z</time>
      </trkpt>
      <trkpt lat="43.33347" lon="-0.52559">
        <ele>202.01</ele>
        <time>2017-03-11T08:54:43Z</time>
      </trkpt>
      <trkpt lat="43.33345" lon="-0.52558">
        <ele>203.46</ele>
        <time>2017-03-11T08:54:49Z</time>
      </trkpt>
      <trkpt lat="43.33344" lon="-0.52551">
        <ele>203.94</ele>
        <time>2017-03-11T08:54:53Z</time>
      </trkpt>
      <trkpt lat="43.3334" lon="-0.52516">
        <ele>206.34</ele>
        <time>2017-03-11T08:55:08Z</time>
      </trkpt>
      <trkpt lat="43.33341" lon="-0.52502">
        <ele>214.03</ele>
        <time>2017-03-11T08:55:25Z</time>
      </trkpt>
      <trkpt lat="43.33345" lon="-0.52495">
        <ele>218.84</ele>
        <time>2017-03-11T08:55:35Z</time>
      </trkpt>
      <trkpt lat="43.33351" lon="-0.52484">
        <ele>223.64</ele>
        <time>2017-03-11T08:55:51Z</time>
      </trkpt>
      <trkpt lat="43.33352" lon="-0.52467">
        <ele>229.89</ele>
        <time>2017-03-11T08:56:07Z</time>
      </trkpt>
      <trkpt lat="43.33357" lon="-0.52455">
        <ele>231.81</ele>
        <time>2017-03-11T08:56:19Z</time>
      </trkpt>
      <trkpt lat="43.33364" lon="-0.52455">
        <ele>233.26</ele>
        <time>2017-03-11T08:56:32Z</time>
      </trkpt>
      <trkpt lat="43.33369" lon="-0.52454">
        <ele>233.74</ele>
        <time>2017-03-11T08:56:37Z</time>
      </trkpt>
      <trkpt lat="43.33378" lon="-0.52479">
        <ele>230.85</ele>
        <time>2017-03-11T08:56:49Z</time>
      </trkpt>
      <trkpt lat="43.33386" lon="-0.52501">
        <ele>227.97</ele>
        <time>2017-03-11T08:56:57Z</time>
      </trkpt>
      <trkpt lat="43.33388" lon="-0.52501">
        <ele>227.49</ele>
        <time>2017-03-11T08:56:58Z</time>
      </trkpt>
      <trkpt lat="43.3339" lon="-0.52501">
        <ele>227.01</ele>
        <time>2017-03-11T08:56:59Z</time>
      </trkpt>
      <trkpt lat="43.33393" lon="-0.52501">
        <ele>226.05</ele>
        <time>2017-03-11T08:57:00Z</time>
      </trkpt>
      <trkpt lat="43.33394" lon="-0.52499">
        <ele>225.09</ele>
        <time>2017-03-11T08:57:01Z</time>
      </trkpt>
      <trkpt lat="43.33396" lon="-0.52497">
        <ele>224.61</ele>
        <time>2017-03-11T08:57:02Z</time>
      </trkpt>
      <trkpt lat="43.33399" lon="-0.52494">
        <ele>223.64</ele>
        <time>2017-03-11T08:57:04Z</time>
      </trkpt>
      <trkpt lat="43.334" lon="-0.52495">
        <ele>222.68</ele>
        <time>2017-03-11T08:57:05Z</time>
      </trkpt>
      <trkpt lat="43.33401" lon="-0.52497">
        <ele>222.2</ele>
        <time>2017-03-11T08:57:06Z</time>
      </trkpt>
      <trkpt lat="43.33403" lon="-0.525">
        <ele>221.72</ele>
        <time>2017-03-11T08:57:07Z</time>
      </trkpt>
      <trkpt lat="43.33404" lon="-0.52502">
        <ele>220.76</ele>
        <time>2017-03-11T08:57:08Z</time>
      </trkpt>
      <trkpt lat="43.33406" lon="-0.52504">
        <ele>220.28</ele>
        <time>2017-03-11T08:57:09Z</time>
      </trkpt>
      <trkpt lat="43.3341" lon="-0.52505">
        <ele>219.8</ele>
        <time>2017-03-11T08:57:10Z</time>
      </trkpt>
      <trkpt lat="43.33415" lon="-0.52506">
        <ele>218.84</ele>
        <time>2017-03-11T08:57:11Z</time>
      </trkpt>
      <trkpt lat="43.3343" lon="-0.5251">
        <ele>215.95</ele>
        <time>2017-03-11T08:57:14Z</time>
      </trkpt>
      <trkpt lat="43.33435" lon="-0.5251">
        <ele>214.99</ele>
        <time>2017-03-11T08:57:15Z</time>
      </trkpt>
      <trkpt lat="43.3344" lon="-0.52508">
        <ele>214.03</ele>
        <time>2017-03-11T08:57:16Z</time>
      </trkpt>
      <trkpt lat="43.33453" lon="-0.52503">
        <ele>211.63</ele>
        <time>2017-03-11T08:57:19Z</time>
      </trkpt>
      <trkpt lat="43.33457" lon="-0.525">
        <ele>210.67</ele>
        <time>2017-03-11T08:57:20Z</time>
      </trkpt>
      <trkpt lat="43.3346" lon="-0.52497">
        <ele>209.7</ele>
        <time>2017-03-11T08:57:21Z</time>
      </trkpt>
      <trkpt lat="43.33467" lon="-0.5249">
        <ele>207.78</ele>
        <time>2017-03-11T08:57:24Z</time>
      </trkpt>
      <trkpt lat="43.33469" lon="-0.52489">
        <ele>207.3</ele>
        <time>2017-03-11T08:57:25Z</time>
      </trkpt>
      <trkpt lat="43.33476" lon="-0.52486">
        <ele>205.86</ele>
        <time>2017-03-11T08:57:28Z</time>
      </trkpt>
      <trkpt lat="43.33479" lon="-0.52487">
        <ele>205.38</ele>
        <time>2017-03-11T08:57:29Z</time>
      </trkpt>
      <trkpt lat="43.33483" lon="-0.52488">
        <ele>204.42</ele>
        <time>2017-03-11T08:57:30Z</time>
      </trkpt>
      <trkpt lat="43.33487" lon="-0.52487">
        <ele>203.46</ele>
        <time>2017-03-11T08:57:31Z</time>
      </trkpt>
      <trkpt lat="43.33491" lon="-0.52486">
        <ele>202.49</ele>
        <time>2017-03-11T08:57:32Z</time>
      </trkpt>
      <trkpt lat="43.33495" lon="-0.52483">
        <ele>201.05</ele>
        <time>2017-03-11T08:57:33Z</time>
      </trkpt>
      <trkpt lat="43.33499" lon="-0.5248">
        <ele>199.61</ele>
        <time>2017-03-11T08:57:34Z</time>
      </trkpt>
      <trkpt lat="43.33504" lon="-0.52478">
        <ele>198.17</ele>
        <time>2017-03-11T08:57:35Z</time>
      </trkpt>
      <trkpt lat="43.33509" lon="-0.52477">
        <ele>196.73</ele>
        <time>2017-03-11T08:57:36Z</time>
      </trkpt>
      <trkpt lat="43.33514" lon="-0.52476">
        <ele>195.77</ele>
        <time>2017-03-11T08:57:37Z</time>
      </trkpt>
      <trkpt lat="43.33518" lon="-0.52477">
        <ele>194.8</ele>
        <time>2017-03-11T08:57:38Z</time>
      </trkpt>
      <trkpt lat="43.33522" lon="-0.52476">
        <ele>193.84</ele>
        <time>2017-03-11T08:57:39Z</time>
      </trkpt>
      <trkpt lat="43.33525" lon="-0.52475">
        <ele>192.88</ele>
        <time>2017-03-11T08:57:40Z</time>
      </trkpt>
      <trkpt lat="43.33527" lon="-0.52475">
        <ele>191.92</ele>
        <time>2017-03-11T08:57:41Z</time>
      </trkpt>
      <trkpt lat="43.33529" lon="-0.52475">
        <ele>190.96</ele>
        <time>2017-03-11T08:57:42Z</time>
      </trkpt>
      <trkpt lat="43.33535" lon="-0.52476">
        <ele>188.08</ele>
        <time>2017-03-11T08:57:46Z</time>
      </trkpt>
      <trkpt lat="43.33538" lon="-0.52475">
        <ele>187.59</ele>
        <time>2017-03-11T08:57:47Z</time>
      </trkpt>
      <trkpt lat="43.33539" lon="-0.52473">
        <ele>187.11</ele>
        <time>2017-03-11T08:57:48Z</time>
      </trkpt>
      <trkpt lat="43.3354" lon="-0.52472">
        <ele>187.59</ele>
        <time>2017-03-11T08:57:49Z</time>
      </trkpt>
      <trkpt lat="43.3354" lon="-0.52471">
        <ele>187.11</ele>
        <time>2017-03-11T08:57:50Z</time>
      </trkpt>
      <trkpt lat="43.3354" lon="-0.52469">
        <ele>187.11</ele>
        <time>2017-03-11T08:57:51Z</time>
      </trkpt>
      <trkpt lat="43.33539" lon="-0.52467">
        <ele>187.11</ele>
        <time>2017-03-11T08:57:52Z</time>
      </trkpt>
      <trkpt lat="43.3353" lon="-0.5243">
        <ele>184.71</ele>
        <time>2017-03-11T08:58:04Z</time>
      </trkpt>
      <trkpt lat="43.33524" lon="-0.52393">
        <ele>182.31</ele>
        <time>2017-03-11T08:58:14Z</time>
      </trkpt>
      <trkpt lat="43.33519" lon="-0.52343">
        <ele>181.83</ele>
        <time>2017-03-11T08:58:26Z</time>
      </trkpt>
      <trkpt lat="43.3351" lon="-0.52306">
        <ele>181.83</ele>
        <time>2017-03-11T08:58:33Z</time>
      </trkpt>
      <trkpt lat="43.33508" lon="-0.523">
        <ele>181.83</ele>
        <time>2017-03-11T08:58:34Z</time>
      </trkpt>
      <trkpt lat="43.33508" lon="-0.52294">
        <ele>181.83</ele>
        <time>2017-03-11T08:58:35Z</time>
      </trkpt>
      <trkpt lat="43.33508" lon="-0.52289">
        <ele>181.83</ele>
        <time>2017-03-11T08:58:36Z</time>
      </trkpt>
      <trkpt lat="43.33508" lon="-0.52285">
        <ele>181.83</ele>
        <time>2017-03-11T08:58:37Z</time>
      </trkpt>
      <trkpt lat="43.33509" lon="-0.52281">
        <ele>181.83</ele>
        <time>2017-03-11T08:58:38Z</time>
      </trkpt>
      <trkpt lat="43.33511" lon="-0.52277">
        <ele>181.83</ele>
        <time>2017-03-11T08:58:39Z</time>
      </trkpt>
      <trkpt lat="43.33512" lon="-0.52272">
        <ele>181.83</ele>
        <time>2017-03-11T08:58:40Z</time>
      </trkpt>
      <trkpt lat="43.33515" lon="-0.52221">
        <ele>182.31</ele>
        <time>2017-03-11T08:58:51Z</time>
      </trkpt>
      <trkpt lat="43.33515" lon="-0.5217">
        <ele>181.35</ele>
        <time>2017-03-11T08:58:58Z</time>
      </trkpt>
      <trkpt lat="43.3352" lon="-0.52123">
        <ele>181.35</ele>
        <time>2017-03-11T08:59:06Z</time>
      </trkpt>
      <trkpt lat="43.33521" lon="-0.52116">
        <ele>181.35</ele>
        <time>2017-03-11T08:59:07Z</time>
      </trkpt>
      <trkpt lat="43.33522" lon="-0.52109">
        <ele>180.87</ele>
        <time>2017-03-11T08:59:08Z</time>
      </trkpt>
      <trkpt lat="43.33528" lon="-0.52069">
        <ele>179.9</ele>
        <time>2017-03-11T08:59:14Z</time>
      </trkpt>
      <trkpt lat="43.33527" lon="-0.52062">
        <ele>179.42</ele>
        <time>2017-03-11T08:59:15Z</time>
      </trkpt>
      <trkpt lat="43.33526" lon="-0.52054">
        <ele>178.94</ele>
        <time>2017-03-11T08:59:16Z</time>
      </trkpt>
      <trkpt lat="43.33524" lon="-0.52047">
        <ele>178.94</ele>
        <time>2017-03-11T08:59:17Z</time>
      </trkpt>
      <trkpt lat="43.33523" lon="-0.5204">
        <ele>178.46</ele>
        <time>2017-03-11T08:59:18Z</time>
      </trkpt>
      <trkpt lat="43.33522" lon="-0.52033">
        <ele>177.98</ele>
        <time>2017-03-11T08:59:19Z</time>
      </trkpt>
      <trkpt lat="43.33522" lon="-0.52027">
        <ele>177.5</ele>
        <time>2017-03-11T08:59:20Z</time>
      </trkpt>
      <trkpt lat="43.33523" lon="-0.52021">
        <ele>177.5</ele>
        <time>2017-03-11T08:59:21Z</time>
      </trkpt>
      <trkpt lat="43.33525" lon="-0.52001">
        <ele>177.5</ele>
        <time>2017-03-11T08:59:24Z</time>
      </trkpt>
      <trkpt lat="43.33531" lon="-0.51944">
        <ele>177.02</ele>
        <time>2017-03-11T08:59:34Z</time>
      </trkpt>
      <trkpt lat="43.33538" lon="-0.519">
        <ele>175.1</ele>
        <time>2017-03-11T08:59:40Z</time>
      </trkpt>
      <trkpt lat="43.33537" lon="-0.51893">
        <ele>175.1</ele>
        <time>2017-03-11T08:59:41Z</time>
      </trkpt>
      <trkpt lat="43.33536" lon="-0.51887">
        <ele>174.62</ele>
        <time>2017-03-11T08:59:42Z</time>
      </trkpt>
      <trkpt lat="43.33534" lon="-0.51881">
        <ele>174.62</ele>
        <time>2017-03-11T08:59:43Z</time>
      </trkpt>
      <trkpt lat="43.33532" lon="-0.51876">
        <ele>174.14</ele>
        <time>2017-03-11T08:59:44Z</time>
      </trkpt>
      <trkpt lat="43.33529" lon="-0.51871">
        <ele>174.14</ele>
        <time>2017-03-11T08:59:45Z</time>
      </trkpt>
      <trkpt lat="43.33526" lon="-0.51866">
        <ele>174.14</ele>
        <time>2017-03-11T08:59:46Z</time>
      </trkpt>
      <trkpt lat="43.33524" lon="-0.5186">
        <ele>173.66</ele>
        <time>2017-03-11T08:59:47Z</time>
      </trkpt>
      <trkpt lat="43.33522" lon="-0.51855">
        <ele>174.14</ele>
        <time>2017-03-11T08:59:48Z</time>
      </trkpt>
      <trkpt lat="43.3352" lon="-0.5185">
        <ele>174.62</ele>
        <time>2017-03-11T08:59:49Z</time>
      </trkpt>
      <trkpt lat="43.33519" lon="-0.51846">
        <ele>174.62</ele>
        <time>2017-03-11T08:59:50Z</time>
      </trkpt>
      <trkpt lat="43.33518" lon="-0.51842">
        <ele>175.1</ele>
        <time>2017-03-11T08:59:51Z</time>
      </trkpt>
      <trkpt lat="43.33504" lon="-0.5179">
        <ele>177.98</ele>
        <time>2017-03-11T09:00:05Z</time>
      </trkpt>
      <trkpt lat="43.33495" lon="-0.51757">
        <ele>180.38</ele>
        <time>2017-03-11T09:00:19Z</time>
      </trkpt>
      <trkpt lat="43.33489" lon="-0.51735">
        <ele>184.71</ele>
        <time>2017-03-11T09:00:31Z</time>
      </trkpt>
      <trkpt lat="43.33483" lon="-0.51702">
        <ele>189.52</ele>
        <time>2017-03-11T09:00:45Z</time>
      </trkpt>
      <trkpt lat="43.33481" lon="-0.51698">
        <ele>190.48</ele>
        <time>2017-03-11T09:00:47Z</time>
      </trkpt>
      <trkpt lat="43.3348" lon="-0.51695">
        <ele>190.48</ele>
        <time>2017-03-11T09:00:48Z</time>
      </trkpt>
      <trkpt lat="43.3348" lon="-0.51694">
        <ele>190.96</ele>
        <time>2017-03-11T09:00:49Z</time>
      </trkpt>
      <trkpt lat="43.3347" lon="-0.51673">
        <ele>195.28</ele>
        <time>2017-03-11T09:00:59Z</time>
      </trkpt>
      <trkpt lat="43.33468" lon="-0.51671">
        <ele>195.77</ele>
        <time>2017-03-11T09:01:00Z</time>
      </trkpt>
      <trkpt lat="43.33448" lon="-0.51646">
        <ele>202.98</ele>
        <time>2017-03-11T09:01:14Z</time>
      </trkpt>
      <trkpt lat="43.33428" lon="-0.51621">
        <ele>202.49</ele>
        <time>2017-03-11T09:01:26Z</time>
      </trkpt>
      <trkpt lat="43.33418" lon="-0.51612">
        <ele>199.61</ele>
        <time>2017-03-11T09:01:32Z</time>
      </trkpt>
      <trkpt lat="43.33416" lon="-0.51611">
        <ele>199.61</ele>
        <time>2017-03-11T09:01:33Z</time>
      </trkpt>
      <trkpt lat="43.33415" lon="-0.51609">
        <ele>199.61</ele>
        <time>2017-03-11T09:01:34Z</time>
      </trkpt>
      <trkpt lat="43.33413" lon="-0.51606">
        <ele>199.61</ele>
        <time>2017-03-11T09:01:35Z</time>
      </trkpt>
      <trkpt lat="43.33413" lon="-0.51604">
        <ele>199.13</ele>
        <time>2017-03-11T09:01:36Z</time>
      </trkpt>
      <trkpt lat="43.33412" lon="-0.51602">
        <ele>199.13</ele>
        <time>2017-03-11T09:01:37Z</time>
      </trkpt>
      <trkpt lat="43.33413" lon="-0.516">
        <ele>198.65</ele>
        <time>2017-03-11T09:01:38Z</time>
      </trkpt>
      <trkpt lat="43.33414" lon="-0.51599">
        <ele>198.65</ele>
        <time>2017-03-11T09:01:39Z</time>
      </trkpt>
      <trkpt lat="43.33415" lon="-0.51598">
        <ele>197.69</ele>
        <time>2017-03-11T09:01:40Z</time>
      </trkpt>
      <trkpt lat="43.33417" lon="-0.51598">
        <ele>197.21</ele>
        <time>2017-03-11T09:01:41Z</time>
      </trkpt>
      <trkpt lat="43.33418" lon="-0.51598">
        <ele>196.73</ele>
        <time>2017-03-11T09:01:42Z</time>
      </trkpt>
      <trkpt lat="43.33418" lon="-0.51598">
        <ele>196.25</ele>
        <time>2017-03-11T09:01:43Z</time>
      </trkpt>
      <trkpt lat="43.3342" lon="-0.51598">
        <ele>196.25</ele>
        <time>2017-03-11T09:01:44Z</time>
      </trkpt>
      <trkpt lat="43.33421" lon="-0.51599">
        <ele>195.77</ele>
        <time>2017-03-11T09:01:45Z</time>
      </trkpt>
      <trkpt lat="43.33422" lon="-0.51598">
        <ele>194.8</ele>
        <time>2017-03-11T09:01:46Z</time>
      </trkpt>
      <trkpt lat="43.33423" lon="-0.51598">
        <ele>194.8</ele>
        <time>2017-03-11T09:01:47Z</time>
      </trkpt>
      <trkpt lat="43.33442" lon="-0.51599">
        <ele>194.32</ele>
        <time>2017-03-11T09:02:01Z</time>
      </trkpt>
      <trkpt lat="43.33447" lon="-0.51599">
        <ele>193.36</ele>
        <time>2017-03-11T09:02:05Z</time>
      </trkpt>
      <trkpt lat="43.33448" lon="-0.516">
        <ele>192.88</ele>
        <time>2017-03-11T09:02:06Z</time>
      </trkpt>
      <trkpt lat="43.3345" lon="-0.516">
        <ele>193.36</ele>
        <time>2017-03-11T09:02:07Z</time>
      </trkpt>
      <trkpt lat="43.33451" lon="-0.516">
        <ele>192.88</ele>
        <time>2017-03-11T09:02:08Z</time>
      </trkpt>
      <trkpt lat="43.33453" lon="-0.51601">
        <ele>193.36</ele>
        <time>2017-03-11T09:02:09Z</time>
      </trkpt>
      <trkpt lat="43.33454" lon="-0.51602">
        <ele>193.36</ele>
        <time>2017-03-11T09:02:10Z</time>
      </trkpt>
      <trkpt lat="43.33456" lon="-0.51603">
        <ele>193.36</ele>
        <time>2017-03-11T09:02:11Z</time>
      </trkpt>
      <trkpt lat="43.33457" lon="-0.51603">
        <ele>193.36</ele>
        <time>2017-03-11T09:02:12Z</time>
      </trkpt>
      <trkpt lat="43.33459" lon="-0.51604">
        <ele>192.88</ele>
        <time>2017-03-11T09:02:13Z</time>
      </trkpt>
      <trkpt lat="43.3346" lon="-0.51605">
        <ele>192.88</ele>
        <time>2017-03-11T09:02:14Z</time>
      </trkpt>
      <trkpt lat="43.33462" lon="-0.51606">
        <ele>192.88</ele>
        <time>2017-03-11T09:02:15Z</time>
      </trkpt>
      <trkpt lat="43.33474" lon="-0.51615">
        <ele>194.8</ele>
        <time>2017-03-11T09:02:25Z</time>
      </trkpt>
      <trkpt lat="43.33475" lon="-0.51616">
        <ele>194.8</ele>
        <time>2017-03-11T09:02:26Z</time>
      </trkpt>
      <trkpt lat="43.33476" lon="-0.51617">
        <ele>194.8</ele>
        <time>2017-03-11T09:02:27Z</time>
      </trkpt>
      <trkpt lat="43.33496" lon="-0.51631">
        <ele>195.77</ele>
        <time>2017-03-11T09:02:43Z</time>
      </trkpt>
      <trkpt lat="43.3352" lon="-0.5164">
        <ele>197.21</ele>
        <time>2017-03-11T09:02:59Z</time>
      </trkpt>
      <trkpt lat="43.33546" lon="-0.51645">
        <ele>199.13</ele>
        <time>2017-03-11T09:03:15Z</time>
      </trkpt>
      <trkpt lat="43.3357" lon="-0.51652">
        <ele>202.98</ele>
        <time>2017-03-11T09:03:31Z</time>
      </trkpt>
      <trkpt lat="43.3359" lon="-0.51661">
        <ele>204.9</ele>
        <time>2017-03-11T09:03:46Z</time>
      </trkpt>
      <trkpt lat="43.33617" lon="-0.5168">
        <ele>205.38</ele>
        <time>2017-03-11T09:03:59Z</time>
      </trkpt>
      <trkpt lat="43.33649" lon="-0.51702">
        <ele>206.34</ele>
        <time>2017-03-11T09:04:12Z</time>
      </trkpt>
      <trkpt lat="43.33673" lon="-0.51719">
        <ele>207.3</ele>
        <time>2017-03-11T09:04:24Z</time>
      </trkpt>
      <trkpt lat="43.33707" lon="-0.51757">
        <ele>208.74</ele>
        <time>2017-03-11T09:04:39Z</time>
      </trkpt>
      <trkpt lat="43.33733" lon="-0.51789">
        <ele>210.19</ele>
        <time>2017-03-11T09:04:52Z</time>
      </trkpt>
      <trkpt lat="43.3376" lon="-0.51814">
        <ele>209.7</ele>
        <time>2017-03-11T09:05:04Z</time>
      </trkpt>
      <trkpt lat="43.33766" lon="-0.51819">
        <ele>210.67</ele>
        <time>2017-03-11T09:05:09Z</time>
      </trkpt>
      <trkpt lat="43.33767" lon="-0.51821">
        <ele>211.15</ele>
        <time>2017-03-11T09:05:10Z</time>
      </trkpt>
      <trkpt lat="43.33768" lon="-0.51824">
        <ele>211.63</ele>
        <time>2017-03-11T09:05:11Z</time>
      </trkpt>
      <trkpt lat="43.33781" lon="-0.5186">
        <ele>211.63</ele>
        <time>2017-03-11T09:05:20Z</time>
      </trkpt>
      <trkpt lat="43.33804" lon="-0.51902">
        <ele>213.07</ele>
        <time>2017-03-11T09:05:35Z</time>
      </trkpt>
      <trkpt lat="43.33814" lon="-0.51918">
        <ele>211.15</ele>
        <time>2017-03-11T09:05:43Z</time>
      </trkpt>
      <trkpt lat="43.33814" lon="-0.5192">
        <ele>211.15</ele>
        <time>2017-03-11T09:05:44Z</time>
      </trkpt>
      <trkpt lat="43.33812" lon="-0.51929">
        <ele>209.22</ele>
        <time>2017-03-11T09:05:47Z</time>
      </trkpt>
      <trkpt lat="43.33813" lon="-0.51934">
        <ele>208.74</ele>
        <time>2017-03-11T09:05:48Z</time>
      </trkpt>
      <trkpt lat="43.3382" lon="-0.51976">
        <ele>204.42</ele>
        <time>2017-03-11T09:05:59Z</time>
      </trkpt>
      <trkpt lat="43.33824" lon="-0.52009">
        <ele>202.98</ele>
        <time>2017-03-11T09:06:06Z</time>
      </trkpt>
      <trkpt lat="43.33825" lon="-0.52015">
        <ele>202.49</ele>
        <time>2017-03-11T09:06:07Z</time>
      </trkpt>
      <trkpt lat="43.33828" lon="-0.52021">
        <ele>202.01</ele>
        <time>2017-03-11T09:06:08Z</time>
      </trkpt>
      <trkpt lat="43.3383" lon="-0.52027">
        <ele>202.01</ele>
        <time>2017-03-11T09:06:09Z</time>
      </trkpt>
      <trkpt lat="43.33833" lon="-0.52033">
        <ele>202.01</ele>
        <time>2017-03-11T09:06:10Z</time>
      </trkpt>
      <trkpt lat="43.33837" lon="-0.52039">
        <ele>202.01</ele>
        <time>2017-03-11T09:06:11Z</time>
      </trkpt>
      <trkpt lat="43.33879" lon="-0.52095">
        <ele>204.9</ele>
        <time>2017-03-11T09:06:24Z</time>
      </trkpt>
      <trkpt lat="43.33884" lon="-0.52103">
        <ele>205.38</ele>
        <time>2017-03-11T09:06:26Z</time>
      </trkpt>
      <trkpt lat="43.33923" lon="-0.52144">
        <ele>209.22</ele>
        <time>2017-03-11T09:06:39Z</time>
      </trkpt>
      <trkpt lat="43.33927" lon="-0.52146">
        <ele>208.74</ele>
        <time>2017-03-11T09:06:40Z</time>
      </trkpt>
      <trkpt lat="43.33931" lon="-0.52147">
        <ele>208.26</ele>
        <time>2017-03-11T09:06:41Z</time>
      </trkpt>
      <trkpt lat="43.33951" lon="-0.52151">
        <ele>206.34</ele>
        <time>2017-03-11T09:06:45Z</time>
      </trkpt>
      <trkpt lat="43.33956" lon="-0.5215">
        <ele>205.86</ele>
        <time>2017-03-11T09:06:46Z</time>
      </trkpt>
      <trkpt lat="43.33961" lon="-0.52148">
        <ele>205.86</ele>
        <time>2017-03-11T09:06:47Z</time>
      </trkpt>
      <trkpt lat="43.33994" lon="-0.52132">
        <ele>208.26</ele>
        <time>2017-03-11T09:06:58Z</time>
      </trkpt>
      <trkpt lat="43.34025" lon="-0.52149">
        <ele>209.22</ele>
        <time>2017-03-11T09:07:11Z</time>
      </trkpt>
      <trkpt lat="43.34026" lon="-0.52152">
        <ele>209.22</ele>
        <time>2017-03-11T09:07:12Z</time>
      </trkpt>
      <trkpt lat="43.34028" lon="-0.52155">
        <ele>209.22</ele>
        <time>2017-03-11T09:07:13Z</time>
      </trkpt>
      <trkpt lat="43.34029" lon="-0.52158">
        <ele>209.7</ele>
        <time>2017-03-11T09:07:14Z</time>
      </trkpt>
      <trkpt lat="43.3403" lon="-0.52161">
        <ele>209.22</ele>
        <time>2017-03-11T09:07:15Z</time>
      </trkpt>
      <trkpt lat="43.3403" lon="-0.5218">
        <ele>205.86</ele>
        <time>2017-03-11T09:07:25Z</time>
      </trkpt>
      <trkpt lat="43.34028" lon="-0.52181">
        <ele>205.38</ele>
        <time>2017-03-11T09:07:26Z</time>
      </trkpt>
      <trkpt lat="43.34027" lon="-0.5218">
        <ele>205.38</ele>
        <time>2017-03-11T09:07:27Z</time>
      </trkpt>
      <trkpt lat="43.34013" lon="-0.52172">
        <ele>208.26</ele>
        <time>2017-03-11T09:07:35Z</time>
      </trkpt>
      <trkpt lat="43.34011" lon="-0.52172">
        <ele>208.74</ele>
        <time>2017-03-11T09:07:36Z</time>
      </trkpt>
      <trkpt lat="43.3401" lon="-0.52175">
        <ele>209.22</ele>
        <time>2017-03-11T09:07:37Z</time>
      </trkpt>
      <trkpt lat="43.34011" lon="-0.52177">
        <ele>208.74</ele>
        <time>2017-03-11T09:07:38Z</time>
      </trkpt>
      <trkpt lat="43.34012" lon="-0.52182">
        <ele>208.26</ele>
        <time>2017-03-11T09:07:39Z</time>
      </trkpt>
      <trkpt lat="43.34014" lon="-0.52187">
        <ele>207.78</ele>
        <time>2017-03-11T09:07:40Z</time>
      </trkpt>
      <trkpt lat="43.34016" lon="-0.52193">
        <ele>207.3</ele>
        <time>2017-03-11T09:07:41Z</time>
      </trkpt>
      <trkpt lat="43.34019" lon="-0.52202">
        <ele>206.34</ele>
        <time>2017-03-11T09:07:42Z</time>
      </trkpt>
      <trkpt lat="43.34039" lon="-0.52253">
        <ele>201.05</ele>
        <time>2017-03-11T09:07:48Z</time>
      </trkpt>
      <trkpt lat="43.34042" lon="-0.52259">
        <ele>200.57</ele>
        <time>2017-03-11T09:07:49Z</time>
      </trkpt>
      <trkpt lat="43.34046" lon="-0.52264">
        <ele>200.09</ele>
        <time>2017-03-11T09:07:50Z</time>
      </trkpt>
      <trkpt lat="43.3405" lon="-0.52269">
        <ele>199.61</ele>
        <time>2017-03-11T09:07:51Z</time>
      </trkpt>
      <trkpt lat="43.34053" lon="-0.52273">
        <ele>199.13</ele>
        <time>2017-03-11T09:07:52Z</time>
      </trkpt>
      <trkpt lat="43.34057" lon="-0.52277">
        <ele>198.65</ele>
        <time>2017-03-11T09:07:53Z</time>
      </trkpt>
      <trkpt lat="43.34059" lon="-0.5228">
        <ele>198.65</ele>
        <time>2017-03-11T09:07:54Z</time>
      </trkpt>
      <trkpt lat="43.34061" lon="-0.52284">
        <ele>198.65</ele>
        <time>2017-03-11T09:07:55Z</time>
      </trkpt>
      <trkpt lat="43.34063" lon="-0.52287">
        <ele>198.65</ele>
        <time>2017-03-11T09:07:56Z</time>
      </trkpt>
      <trkpt lat="43.34066" lon="-0.5229">
        <ele>198.65</ele>
        <time>2017-03-11T09:07:57Z</time>
      </trkpt>
      <trkpt lat="43.34083" lon="-0.52327">
        <ele>198.65</ele>
        <time>2017-03-11T09:08:09Z</time>
      </trkpt>
      <trkpt lat="43.34093" lon="-0.52358">
        <ele>196.25</ele>
        <time>2017-03-11T09:08:20Z</time>
      </trkpt>
      <trkpt lat="43.34113" lon="-0.52409">
        <ele>199.13</ele>
        <time>2017-03-11T09:08:33Z</time>
      </trkpt>
      <trkpt lat="43.34133" lon="-0.52464">
        <ele>197.21</ele>
        <time>2017-03-11T09:08:45Z</time>
      </trkpt>
      <trkpt lat="43.34153" lon="-0.52527">
        <ele>198.65</ele>
        <time>2017-03-11T09:08:58Z</time>
      </trkpt>
      <trkpt lat="43.34148" lon="-0.52553">
        <ele>198.17</ele>
        <time>2017-03-11T09:09:04Z</time>
      </trkpt>
      <trkpt lat="43.34102" lon="-0.52592">
        <ele>195.77</ele>
        <time>2017-03-11T09:09:14Z</time>
      </trkpt>
      <trkpt lat="43.34082" lon="-0.52606">
        <ele>195.28</ele>
        <time>2017-03-11T09:09:19Z</time>
      </trkpt>
      <trkpt lat="43.34078" lon="-0.52607">
        <ele>195.77</ele>
        <time>2017-03-11T09:09:20Z</time>
      </trkpt>
      <trkpt lat="43.34046" lon="-0.52624">
        <ele>198.17</ele>
        <time>2017-03-11T09:09:30Z</time>
      </trkpt>
      <trkpt lat="43.34017" lon="-0.52658">
        <ele>201.05</ele>
        <time>2017-03-11T09:09:41Z</time>
      </trkpt>
      <trkpt lat="43.34001" lon="-0.52699">
        <ele>198.17</ele>
        <time>2017-03-11T09:09:52Z</time>
      </trkpt>
      <trkpt lat="43.33985" lon="-0.52744">
        <ele>200.09</ele>
        <time>2017-03-11T09:10:02Z</time>
      </trkpt>
      <trkpt lat="43.33979" lon="-0.5276">
        <ele>200.09</ele>
        <time>2017-03-11T09:10:05Z</time>
      </trkpt>
      <trkpt lat="43.33976" lon="-0.52765">
        <ele>200.09</ele>
        <time>2017-03-11T09:10:06Z</time>
      </trkpt>
      <trkpt lat="43.33955" lon="-0.52854">
        <ele>198.65</ele>
        <time>2017-03-11T09:10:17Z</time>
      </trkpt>
      <trkpt lat="43.33944" lon="-0.52944">
        <ele>198.17</ele>
        <time>2017-03-11T09:10:28Z</time>
      </trkpt>
      <trkpt lat="43.33947" lon="-0.53">
        <ele>198.65</ele>
        <time>2017-03-11T09:10:39Z</time>
      </trkpt>
      <trkpt lat="43.33956" lon="-0.53077">
        <ele>200.09</ele>
        <time>2017-03-11T09:10:54Z</time>
      </trkpt>
      <trkpt lat="43.33964" lon="-0.53132">
        <ele>201.53</ele>
        <time>2017-03-11T09:11:07Z</time>
      </trkpt>
      <trkpt lat="43.33994" lon="-0.53166">
        <ele>205.86</ele>
        <time>2017-03-11T09:11:23Z</time>
      </trkpt>
      <trkpt lat="43.3402" lon="-0.53176">
        <ele>208.26</ele>
        <time>2017-03-11T09:11:37Z</time>
      </trkpt>
      <trkpt lat="43.34052" lon="-0.53178">
        <ele>206.34</ele>
        <time>2017-03-11T09:11:53Z</time>
      </trkpt>
      <trkpt lat="43.34085" lon="-0.53176">
        <ele>207.78</ele>
        <time>2017-03-11T09:12:09Z</time>
      </trkpt>
      <trkpt lat="43.34113" lon="-0.53174">
        <ele>208.26</ele>
        <time>2017-03-11T09:12:23Z</time>
      </trkpt>
      <trkpt lat="43.34146" lon="-0.53179">
        <ele>209.7</ele>
        <time>2017-03-11T09:12:37Z</time>
      </trkpt>
      <trkpt lat="43.34152" lon="-0.53175">
        <ele>210.19</ele>
        <time>2017-03-11T09:12:41Z</time>
      </trkpt>
      <trkpt lat="43.34153" lon="-0.53172">
        <ele>211.15</ele>
        <time>2017-03-11T09:12:43Z</time>
      </trkpt>
      <trkpt lat="43.34154" lon="-0.5317">
        <ele>211.63</ele>
        <time>2017-03-11T09:12:44Z</time>
      </trkpt>
      <trkpt lat="43.34154" lon="-0.53168">
        <ele>212.11</ele>
        <time>2017-03-11T09:12:45Z</time>
      </trkpt>
      <trkpt lat="43.34155" lon="-0.53165">
        <ele>212.59</ele>
        <time>2017-03-11T09:12:47Z</time>
      </trkpt>
      <trkpt lat="43.34155" lon="-0.53164">
        <ele>213.07</ele>
        <time>2017-03-11T09:12:48Z</time>
      </trkpt>
      <trkpt lat="43.34156" lon="-0.53162">
        <ele>213.07</ele>
        <time>2017-03-11T09:12:49Z</time>
      </trkpt>
      <trkpt lat="43.34156" lon="-0.5316">
        <ele>213.55</ele>
        <time>2017-03-11T09:12:50Z</time>
      </trkpt>
      <trkpt lat="43.34156" lon="-0.53158">
        <ele>213.07</ele>
        <time>2017-03-11T09:12:51Z</time>
      </trkpt>
      <trkpt lat="43.34162" lon="-0.5314">
        <ele>216.43</ele>
        <time>2017-03-11T09:13:02Z</time>
      </trkpt>
      <trkpt lat="43.34162" lon="-0.53137">
        <ele>216.91</ele>
        <time>2017-03-11T09:13:04Z</time>
      </trkpt>
      <trkpt lat="43.34163" lon="-0.53135">
        <ele>216.91</ele>
        <time>2017-03-11T09:13:05Z</time>
      </trkpt>
      <trkpt lat="43.34164" lon="-0.53134">
        <ele>217.4</ele>
        <time>2017-03-11T09:13:06Z</time>
      </trkpt>
      <trkpt lat="43.34169" lon="-0.53116">
        <ele>220.28</ele>
        <time>2017-03-11T09:13:19Z</time>
      </trkpt>
      <trkpt lat="43.34181" lon="-0.53093">
        <ele>225.09</ele>
        <time>2017-03-11T09:13:35Z</time>
      </trkpt>
      <trkpt lat="43.34195" lon="-0.53076">
        <ele>229.41</ele>
        <time>2017-03-11T09:13:51Z</time>
      </trkpt>
      <trkpt lat="43.34199" lon="-0.53067">
        <ele>232.3</ele>
        <time>2017-03-11T09:13:57Z</time>
      </trkpt>
      <trkpt lat="43.342" lon="-0.53065">
        <ele>232.78</ele>
        <time>2017-03-11T09:13:58Z</time>
      </trkpt>
      <trkpt lat="43.34202" lon="-0.53063">
        <ele>233.26</ele>
        <time>2017-03-11T09:13:59Z</time>
      </trkpt>
      <trkpt lat="43.34203" lon="-0.53061">
        <ele>234.22</ele>
        <time>2017-03-11T09:14:01Z</time>
      </trkpt>
      <trkpt lat="43.34204" lon="-0.53059">
        <ele>234.7</ele>
        <time>2017-03-11T09:14:02Z</time>
      </trkpt>
      <trkpt lat="43.34205" lon="-0.53058">
        <ele>235.18</ele>
        <time>2017-03-11T09:14:03Z</time>
      </trkpt>
      <trkpt lat="43.34206" lon="-0.53056">
        <ele>235.18</ele>
        <time>2017-03-11T09:14:04Z</time>
      </trkpt>
      <trkpt lat="43.34213" lon="-0.5304">
        <ele>235.66</ele>
        <time>2017-03-11T09:14:14Z</time>
      </trkpt>
      <trkpt lat="43.3422" lon="-0.53018">
        <ele>235.18</ele>
        <time>2017-03-11T09:14:27Z</time>
      </trkpt>
      <trkpt lat="43.34221" lon="-0.53009">
        <ele>235.18</ele>
        <time>2017-03-11T09:14:32Z</time>
      </trkpt>
      <trkpt lat="43.34218" lon="-0.52995">
        <ele>241.91</ele>
        <time>2017-03-11T09:14:44Z</time>
      </trkpt>
      <trkpt lat="43.3422" lon="-0.52997">
        <ele>241.91</ele>
        <time>2017-03-11T09:14:47Z</time>
      </trkpt>
      <trkpt lat="43.34222" lon="-0.53013">
        <ele>239.02</ele>
        <time>2017-03-11T09:14:52Z</time>
      </trkpt>
      <trkpt lat="43.34221" lon="-0.53019">
        <ele>238.06</ele>
        <time>2017-03-11T09:14:53Z</time>
      </trkpt>
      <trkpt lat="43.3422" lon="-0.53023">
        <ele>237.1</ele>
        <time>2017-03-11T09:14:54Z</time>
      </trkpt>
      <trkpt lat="43.34218" lon="-0.53025">
        <ele>236.14</ele>
        <time>2017-03-11T09:14:55Z</time>
      </trkpt>
      <trkpt lat="43.34218" lon="-0.53028">
        <ele>233.74</ele>
        <time>2017-03-11T09:14:57Z</time>
      </trkpt>
      <trkpt lat="43.34219" lon="-0.5303">
        <ele>231.81</ele>
        <time>2017-03-11T09:14:59Z</time>
      </trkpt>
      <trkpt lat="43.34222" lon="-0.5303">
        <ele>230.85</ele>
        <time>2017-03-11T09:15:01Z</time>
      </trkpt>
      <trkpt lat="43.34249" lon="-0.53009">
        <ele>226.53</ele>
        <time>2017-03-11T09:15:10Z</time>
      </trkpt>
      <trkpt lat="43.34261" lon="-0.52993">
        <ele>226.05</ele>
        <time>2017-03-11T09:15:19Z</time>
      </trkpt>
      <trkpt lat="43.34272" lon="-0.52974">
        <ele>228.93</ele>
        <time>2017-03-11T09:15:31Z</time>
      </trkpt>
      <trkpt lat="43.34274" lon="-0.52969">
        <ele>228.93</ele>
        <time>2017-03-11T09:15:34Z</time>
      </trkpt>
      <trkpt lat="43.3428" lon="-0.52948">
        <ele>230.85</ele>
        <time>2017-03-11T09:15:45Z</time>
      </trkpt>
      <trkpt lat="43.34281" lon="-0.52947">
        <ele>231.81</ele>
        <time>2017-03-11T09:15:46Z</time>
      </trkpt>
      <trkpt lat="43.34286" lon="-0.52935">
        <ele>234.7</ele>
        <time>2017-03-11T09:15:58Z</time>
      </trkpt>
      <trkpt lat="43.343" lon="-0.52922">
        <ele>233.74</ele>
        <time>2017-03-11T09:16:10Z</time>
      </trkpt>
      <trkpt lat="43.34316" lon="-0.52909">
        <ele>234.22</ele>
        <time>2017-03-11T09:16:23Z</time>
      </trkpt>
      <trkpt lat="43.34322" lon="-0.52897">
        <ele>237.58</ele>
        <time>2017-03-11T09:16:32Z</time>
      </trkpt>
      <trkpt lat="43.34329" lon="-0.5289">
        <ele>238.54</ele>
        <time>2017-03-11T09:16:37Z</time>
      </trkpt>
      <trkpt lat="43.34346" lon="-0.5287">
        <ele>239.99</ele>
        <time>2017-03-11T09:16:49Z</time>
      </trkpt>
      <trkpt lat="43.34355" lon="-0.52862">
        <ele>239.02</ele>
        <time>2017-03-11T09:16:53Z</time>
      </trkpt>
      <trkpt lat="43.34364" lon="-0.52834">
        <ele>235.66</ele>
        <time>2017-03-11T09:17:02Z</time>
      </trkpt>
      <trkpt lat="43.34379" lon="-0.52817">
        <ele>234.22</ele>
        <time>2017-03-11T09:17:09Z</time>
      </trkpt>
      <trkpt lat="43.344" lon="-0.52812">
        <ele>233.26</ele>
        <time>2017-03-11T09:17:15Z</time>
      </trkpt>
      <trkpt lat="43.34406" lon="-0.52813">
        <ele>233.26</ele>
        <time>2017-03-11T09:17:17Z</time>
      </trkpt>
      <trkpt lat="43.34408" lon="-0.52815">
        <ele>233.26</ele>
        <time>2017-03-11T09:17:18Z</time>
      </trkpt>
      <trkpt lat="43.34427" lon="-0.52854">
        <ele>232.3</ele>
        <time>2017-03-11T09:17:30Z</time>
      </trkpt>
      <trkpt lat="43.34442" lon="-0.52893">
        <ele>233.74</ele>
        <time>2017-03-11T09:17:42Z</time>
      </trkpt>
      <trkpt lat="43.34446" lon="-0.52903">
        <ele>235.66</ele>
        <time>2017-03-11T09:17:46Z</time>
      </trkpt>
      <trkpt lat="43.34458" lon="-0.52925">
        <ele>238.06</ele>
        <time>2017-03-11T09:18:00Z</time>
      </trkpt>
      <trkpt lat="43.34465" lon="-0.52932">
        <ele>239.99</ele>
        <time>2017-03-11T09:18:07Z</time>
      </trkpt>
      <trkpt lat="43.34478" lon="-0.52948">
        <ele>241.91</ele>
        <time>2017-03-11T09:18:19Z</time>
      </trkpt>
      <trkpt lat="43.34479" lon="-0.52949">
        <ele>242.39</ele>
        <time>2017-03-11T09:18:20Z</time>
      </trkpt>
      <trkpt lat="43.3448" lon="-0.52951">
        <ele>242.87</ele>
        <time>2017-03-11T09:18:21Z</time>
      </trkpt>
      <trkpt lat="43.3448" lon="-0.52953">
        <ele>243.35</ele>
        <time>2017-03-11T09:18:22Z</time>
      </trkpt>
      <trkpt lat="43.34481" lon="-0.52955">
        <ele>243.83</ele>
        <time>2017-03-11T09:18:23Z</time>
      </trkpt>
      <trkpt lat="43.34482" lon="-0.52956">
        <ele>243.83</ele>
        <time>2017-03-11T09:18:24Z</time>
      </trkpt>
      <trkpt lat="43.34483" lon="-0.52958">
        <ele>243.83</ele>
        <time>2017-03-11T09:18:25Z</time>
      </trkpt>
      <trkpt lat="43.34484" lon="-0.52959">
        <ele>243.35</ele>
        <time>2017-03-11T09:18:26Z</time>
      </trkpt>
      <trkpt lat="43.34486" lon="-0.52961">
        <ele>243.35</ele>
        <time>2017-03-11T09:18:28Z</time>
      </trkpt>
      <trkpt lat="43.34487" lon="-0.52962">
        <ele>243.35</ele>
        <time>2017-03-11T09:18:29Z</time>
      </trkpt>
      <trkpt lat="43.34489" lon="-0.52963">
        <ele>242.87</ele>
        <time>2017-03-11T09:18:30Z</time>
      </trkpt>
      <trkpt lat="43.3449" lon="-0.52965">
        <ele>243.35</ele>
        <time>2017-03-11T09:18:31Z</time>
      </trkpt>
      <trkpt lat="43.34491" lon="-0.52966">
        <ele>243.35</ele>
        <time>2017-03-11T09:18:32Z</time>
      </trkpt>
      <trkpt lat="43.34491" lon="-0.52968">
        <ele>243.83</ele>
        <time>2017-03-11T09:18:33Z</time>
      </trkpt>
      <trkpt lat="43.34492" lon="-0.5297">
        <ele>243.83</ele>
        <time>2017-03-11T09:18:34Z</time>
      </trkpt>
      <trkpt lat="43.34494" lon="-0.52975">
        <ele>245.27</ele>
        <time>2017-03-11T09:18:37Z</time>
      </trkpt>
      <trkpt lat="43.34495" lon="-0.52976">
        <ele>245.27</ele>
        <time>2017-03-11T09:18:38Z</time>
      </trkpt>
      <trkpt lat="43.34509" lon="-0.53">
        <ele>248.64</ele>
        <time>2017-03-11T09:18:54Z</time>
      </trkpt>
      <trkpt lat="43.3451" lon="-0.53002">
        <ele>249.12</ele>
        <time>2017-03-11T09:18:55Z</time>
      </trkpt>
      <trkpt lat="43.34511" lon="-0.53003">
        <ele>249.6</ele>
        <time>2017-03-11T09:18:56Z</time>
      </trkpt>
      <trkpt lat="43.34512" lon="-0.53004">
        <ele>249.6</ele>
        <time>2017-03-11T09:18:57Z</time>
      </trkpt>
      <trkpt lat="43.34527" lon="-0.53024">
        <ele>252.48</ele>
        <time>2017-03-11T09:19:12Z</time>
      </trkpt>
      <trkpt lat="43.34532" lon="-0.53038">
        <ele>252</ele>
        <time>2017-03-11T09:19:22Z</time>
      </trkpt>
      <trkpt lat="43.34532" lon="-0.5304">
        <ele>252</ele>
        <time>2017-03-11T09:19:23Z</time>
      </trkpt>
      <trkpt lat="43.34532" lon="-0.53041">
        <ele>252</ele>
        <time>2017-03-11T09:19:24Z</time>
      </trkpt>
      <trkpt lat="43.34545" lon="-0.53076">
        <ele>249.12</ele>
        <time>2017-03-11T09:19:32Z</time>
      </trkpt>
      <trkpt lat="43.34546" lon="-0.53083">
        <ele>249.12</ele>
        <time>2017-03-11T09:19:33Z</time>
      </trkpt>
      <trkpt lat="43.34546" lon="-0.53091">
        <ele>248.64</ele>
        <time>2017-03-11T09:19:34Z</time>
      </trkpt>
      <trkpt lat="43.34557" lon="-0.53165">
        <ele>244.79</ele>
        <time>2017-03-11T09:19:42Z</time>
      </trkpt>
      <trkpt lat="43.34556" lon="-0.53174">
        <ele>244.31</ele>
        <time>2017-03-11T09:19:43Z</time>
      </trkpt>
      <trkpt lat="43.34555" lon="-0.53185">
        <ele>243.35</ele>
        <time>2017-03-11T09:19:44Z</time>
      </trkpt>
      <trkpt lat="43.34555" lon="-0.53196">
        <ele>242.87</ele>
        <time>2017-03-11T09:19:45Z</time>
      </trkpt>
      <trkpt lat="43.34556" lon="-0.53207">
        <ele>241.91</ele>
        <time>2017-03-11T09:19:46Z</time>
      </trkpt>
      <trkpt lat="43.34564" lon="-0.53263">
        <ele>237.58</ele>
        <time>2017-03-11T09:19:51Z</time>
      </trkpt>
      <trkpt lat="43.3457" lon="-0.53288">
        <ele>235.66</ele>
        <time>2017-03-11T09:19:54Z</time>
      </trkpt>
      <trkpt lat="43.34571" lon="-0.53296">
        <ele>234.7</ele>
        <time>2017-03-11T09:19:55Z</time>
      </trkpt>
      <trkpt lat="43.34571" lon="-0.53304">
        <ele>233.74</ele>
        <time>2017-03-11T09:19:56Z</time>
      </trkpt>
      <trkpt lat="43.34573" lon="-0.53319">
        <ele>232.3</ele>
        <time>2017-03-11T09:19:58Z</time>
      </trkpt>
      <trkpt lat="43.34586" lon="-0.53427">
        <ele>223.16</ele>
        <time>2017-03-11T09:20:09Z</time>
      </trkpt>
      <trkpt lat="43.34591" lon="-0.53547">
        <ele>215.47</ele>
        <time>2017-03-11T09:20:17Z</time>
      </trkpt>
      <trkpt lat="43.34588" lon="-0.5356">
        <ele>214.99</ele>
        <time>2017-03-11T09:20:18Z</time>
      </trkpt>
      <trkpt lat="43.3456" lon="-0.53687">
        <ele>205.38</ele>
        <time>2017-03-11T09:20:28Z</time>
      </trkpt>
      <trkpt lat="43.34556" lon="-0.53701">
        <ele>204.42</ele>
        <time>2017-03-11T09:20:29Z</time>
      </trkpt>
      <trkpt lat="43.34513" lon="-0.53839">
        <ele>193.36</ele>
        <time>2017-03-11T09:20:39Z</time>
      </trkpt>
      <trkpt lat="43.34512" lon="-0.53849">
        <ele>192.4</ele>
        <time>2017-03-11T09:20:40Z</time>
      </trkpt>
      <trkpt lat="43.34513" lon="-0.53858">
        <ele>191.92</ele>
        <time>2017-03-11T09:20:41Z</time>
      </trkpt>
      <trkpt lat="43.34514" lon="-0.53867">
        <ele>190.96</ele>
        <time>2017-03-11T09:20:42Z</time>
      </trkpt>
      <trkpt lat="43.34516" lon="-0.53876">
        <ele>190.48</ele>
        <time>2017-03-11T09:20:43Z</time>
      </trkpt>
      <trkpt lat="43.34518" lon="-0.53885">
        <ele>190</ele>
        <time>2017-03-11T09:20:44Z</time>
      </trkpt>
      <trkpt lat="43.34519" lon="-0.53895">
        <ele>189.52</ele>
        <time>2017-03-11T09:20:45Z</time>
      </trkpt>
      <trkpt lat="43.3453" lon="-0.53976">
        <ele>184.23</ele>
        <time>2017-03-11T09:20:52Z</time>
      </trkpt>
      <trkpt lat="43.34529" lon="-0.53987">
        <ele>183.75</ele>
        <time>2017-03-11T09:20:53Z</time>
      </trkpt>
      <trkpt lat="43.34526" lon="-0.53998">
        <ele>182.79</ele>
        <time>2017-03-11T09:20:54Z</time>
      </trkpt>
      <trkpt lat="43.34523" lon="-0.54007">
        <ele>181.83</ele>
        <time>2017-03-11T09:20:55Z</time>
      </trkpt>
      <trkpt lat="43.34519" lon="-0.54016">
        <ele>181.35</ele>
        <time>2017-03-11T09:20:56Z</time>
      </trkpt>
      <trkpt lat="43.34514" lon="-0.54024">
        <ele>180.38</ele>
        <time>2017-03-11T09:20:57Z</time>
      </trkpt>
      <trkpt lat="43.34509" lon="-0.54032">
        <ele>179.9</ele>
        <time>2017-03-11T09:20:58Z</time>
      </trkpt>
      <trkpt lat="43.34502" lon="-0.54039">
        <ele>179.42</ele>
        <time>2017-03-11T09:20:59Z</time>
      </trkpt>
      <trkpt lat="43.34495" lon="-0.54045">
        <ele>178.46</ele>
        <time>2017-03-11T09:21:00Z</time>
      </trkpt>
      <trkpt lat="43.34463" lon="-0.54064">
        <ele>175.58</ele>
        <time>2017-03-11T09:21:04Z</time>
      </trkpt>
      <trkpt lat="43.34458" lon="-0.54066">
        <ele>175.1</ele>
        <time>2017-03-11T09:21:05Z</time>
      </trkpt>
      <trkpt lat="43.34456" lon="-0.54069">
        <ele>174.14</ele>
        <time>2017-03-11T09:21:06Z</time>
      </trkpt>
      <trkpt lat="43.34457" lon="-0.54073">
        <ele>173.17</ele>
        <time>2017-03-11T09:21:07Z</time>
      </trkpt>
      <trkpt lat="43.34459" lon="-0.54077">
        <ele>172.69</ele>
        <time>2017-03-11T09:21:08Z</time>
      </trkpt>
      <trkpt lat="43.34462" lon="-0.54081">
        <ele>171.73</ele>
        <time>2017-03-11T09:21:09Z</time>
      </trkpt>
      <trkpt lat="43.34467" lon="-0.54085">
        <ele>171.25</ele>
        <time>2017-03-11T09:21:10Z</time>
      </trkpt>
      <trkpt lat="43.34492" lon="-0.54107">
        <ele>167.89</ele>
        <time>2017-03-11T09:21:14Z</time>
      </trkpt>
      <trkpt lat="43.345" lon="-0.54111">
        <ele>166.93</ele>
        <time>2017-03-11T09:21:15Z</time>
      </trkpt>
      <trkpt lat="43.34547" lon="-0.54133">
        <ele>162.6</ele>
        <time>2017-03-11T09:21:21Z</time>
      </trkpt>
      <trkpt lat="43.34577" lon="-0.5416">
        <ele>160.2</ele>
        <time>2017-03-11T09:21:25Z</time>
      </trkpt>
      <trkpt lat="43.34581" lon="-0.54166">
        <ele>159.72</ele>
        <time>2017-03-11T09:21:26Z</time>
      </trkpt>
      <trkpt lat="43.34582" lon="-0.54172">
        <ele>159.24</ele>
        <time>2017-03-11T09:21:27Z</time>
      </trkpt>
      <trkpt lat="43.34582" lon="-0.54177">
        <ele>158.75</ele>
        <time>2017-03-11T09:21:28Z</time>
      </trkpt>
      <trkpt lat="43.3458" lon="-0.54182">
        <ele>158.27</ele>
        <time>2017-03-11T09:21:29Z</time>
      </trkpt>
      <trkpt lat="43.34577" lon="-0.54186">
        <ele>157.79</ele>
        <time>2017-03-11T09:21:30Z</time>
      </trkpt>
      <trkpt lat="43.34574" lon="-0.54191">
        <ele>157.31</ele>
        <time>2017-03-11T09:21:31Z</time>
      </trkpt>
      <trkpt lat="43.34563" lon="-0.54205">
        <ele>155.87</ele>
        <time>2017-03-11T09:21:34Z</time>
      </trkpt>
      <trkpt lat="43.3456" lon="-0.54211">
        <ele>154.91</ele>
        <time>2017-03-11T09:21:35Z</time>
      </trkpt>
      <trkpt lat="43.34559" lon="-0.54218">
        <ele>154.43</ele>
        <time>2017-03-11T09:21:36Z</time>
      </trkpt>
      <trkpt lat="43.34559" lon="-0.54225">
        <ele>153.47</ele>
        <time>2017-03-11T09:21:37Z</time>
      </trkpt>
      <trkpt lat="43.34559" lon="-0.54233">
        <ele>152.99</ele>
        <time>2017-03-11T09:21:38Z</time>
      </trkpt>
      <trkpt lat="43.34561" lon="-0.5424">
        <ele>152.99</ele>
        <time>2017-03-11T09:21:39Z</time>
      </trkpt>
      <trkpt lat="43.34566" lon="-0.54247">
        <ele>152.99</ele>
        <time>2017-03-11T09:21:40Z</time>
      </trkpt>
      <trkpt lat="43.34569" lon="-0.5425">
        <ele>152.51</ele>
        <time>2017-03-11T09:21:41Z</time>
      </trkpt>
      <trkpt lat="43.34575" lon="-0.54254">
        <ele>152.03</ele>
        <time>2017-03-11T09:21:42Z</time>
      </trkpt>
      <trkpt lat="43.34582" lon="-0.54257">
        <ele>151.54</ele>
        <time>2017-03-11T09:21:43Z</time>
      </trkpt>
      <trkpt lat="43.34589" lon="-0.54258">
        <ele>151.06</ele>
        <time>2017-03-11T09:21:44Z</time>
      </trkpt>
      <trkpt lat="43.34597" lon="-0.54257">
        <ele>150.1</ele>
        <time>2017-03-11T09:21:45Z</time>
      </trkpt>
      <trkpt lat="43.34604" lon="-0.54254">
        <ele>149.62</ele>
        <time>2017-03-11T09:21:46Z</time>
      </trkpt>
      <trkpt lat="43.34613" lon="-0.54251">
        <ele>149.14</ele>
        <time>2017-03-11T09:21:47Z</time>
      </trkpt>
      <trkpt lat="43.34638" lon="-0.54242">
        <ele>147.22</ele>
        <time>2017-03-11T09:21:50Z</time>
      </trkpt>
      <trkpt lat="43.34695" lon="-0.54211">
        <ele>142.89</ele>
        <time>2017-03-11T09:21:57Z</time>
      </trkpt>
      <trkpt lat="43.34699" lon="-0.54211">
        <ele>142.41</ele>
        <time>2017-03-11T09:21:58Z</time>
      </trkpt>
      <trkpt lat="43.34703" lon="-0.54213">
        <ele>141.93</ele>
        <time>2017-03-11T09:21:59Z</time>
      </trkpt>
      <trkpt lat="43.34705" lon="-0.54219">
        <ele>141.45</ele>
        <time>2017-03-11T09:22:00Z</time>
      </trkpt>
      <trkpt lat="43.34706" lon="-0.54225">
        <ele>140.49</ele>
        <time>2017-03-11T09:22:01Z</time>
      </trkpt>
      <trkpt lat="43.34705" lon="-0.54233">
        <ele>140.01</ele>
        <time>2017-03-11T09:22:02Z</time>
      </trkpt>
      <trkpt lat="43.34704" lon="-0.54241">
        <ele>139.53</ele>
        <time>2017-03-11T09:22:03Z</time>
      </trkpt>
      <trkpt lat="43.34702" lon="-0.54249">
        <ele>138.57</ele>
        <time>2017-03-11T09:22:04Z</time>
      </trkpt>
      <trkpt lat="43.34695" lon="-0.5428">
        <ele>136.16</ele>
        <time>2017-03-11T09:22:07Z</time>
      </trkpt>
      <trkpt lat="43.34674" lon="-0.54359">
        <ele>130.88</ele>
        <time>2017-03-11T09:22:14Z</time>
      </trkpt>
      <trkpt lat="43.34669" lon="-0.54375">
        <ele>129.43</ele>
        <time>2017-03-11T09:22:16Z</time>
      </trkpt>
      <trkpt lat="43.34669" lon="-0.54383">
        <ele>128.95</ele>
        <time>2017-03-11T09:22:17Z</time>
      </trkpt>
      <trkpt lat="43.3467" lon="-0.5439">
        <ele>128.47</ele>
        <time>2017-03-11T09:22:18Z</time>
      </trkpt>
      <trkpt lat="43.34672" lon="-0.54397">
        <ele>127.99</ele>
        <time>2017-03-11T09:22:19Z</time>
      </trkpt>
      <trkpt lat="43.34674" lon="-0.54404">
        <ele>127.51</ele>
        <time>2017-03-11T09:22:20Z</time>
      </trkpt>
      <trkpt lat="43.34674" lon="-0.5441">
        <ele>127.03</ele>
        <time>2017-03-11T09:22:21Z</time>
      </trkpt>
      <trkpt lat="43.34673" lon="-0.54416">
        <ele>126.55</ele>
        <time>2017-03-11T09:22:22Z</time>
      </trkpt>
      <trkpt lat="43.34672" lon="-0.54422">
        <ele>126.07</ele>
        <time>2017-03-11T09:22:23Z</time>
      </trkpt>
      <trkpt lat="43.3467" lon="-0.54427">
        <ele>125.59</ele>
        <time>2017-03-11T09:22:24Z</time>
      </trkpt>
      <trkpt lat="43.34667" lon="-0.54456">
        <ele>124.15</ele>
        <time>2017-03-11T09:22:30Z</time>
      </trkpt>
      <trkpt lat="43.34667" lon="-0.54458">
        <ele>123.67</ele>
        <time>2017-03-11T09:22:31Z</time>
      </trkpt>
      <trkpt lat="43.34668" lon="-0.54504">
        <ele>118.86</ele>
        <time>2017-03-11T09:22:44Z</time>
      </trkpt>
      <trkpt lat="43.34663" lon="-0.54549">
        <ele>122.22</ele>
        <time>2017-03-11T09:22:54Z</time>
      </trkpt>
      <trkpt lat="43.34654" lon="-0.54605">
        <ele>120.78</ele>
        <time>2017-03-11T09:23:06Z</time>
      </trkpt>
      <trkpt lat="43.34655" lon="-0.54609">
        <ele>121.74</ele>
        <time>2017-03-11T09:23:07Z</time>
      </trkpt>
      <trkpt lat="43.34655" lon="-0.54613">
        <ele>123.67</ele>
        <time>2017-03-11T09:23:08Z</time>
      </trkpt>
      <trkpt lat="43.34657" lon="-0.54614">
        <ele>125.11</ele>
        <time>2017-03-11T09:23:09Z</time>
      </trkpt>
      <trkpt lat="43.34658" lon="-0.54614">
        <ele>125.59</ele>
        <time>2017-03-11T09:23:10Z</time>
      </trkpt>
      <trkpt lat="43.34659" lon="-0.54614">
        <ele>126.07</ele>
        <time>2017-03-11T09:23:11Z</time>
      </trkpt>
      <trkpt lat="43.3466" lon="-0.54613">
        <ele>126.55</ele>
        <time>2017-03-11T09:23:12Z</time>
      </trkpt>
      <trkpt lat="43.34661" lon="-0.54611">
        <ele>127.03</ele>
        <time>2017-03-11T09:23:13Z</time>
      </trkpt>
      <trkpt lat="43.34662" lon="-0.5461">
        <ele>127.51</ele>
        <time>2017-03-11T09:23:14Z</time>
      </trkpt>
      <trkpt lat="43.3468" lon="-0.54585">
        <ele>129.92</ele>
        <time>2017-03-11T09:23:32Z</time>
      </trkpt>
      <trkpt lat="43.34704" lon="-0.54558">
        <ele>133.28</ele>
        <time>2017-03-11T09:23:47Z</time>
      </trkpt>
      <trkpt lat="43.34724" lon="-0.54535">
        <ele>134.72</ele>
        <time>2017-03-11T09:24:00Z</time>
      </trkpt>
      <trkpt lat="43.34739" lon="-0.54511">
        <ele>137.61</ele>
        <time>2017-03-11T09:24:11Z</time>
      </trkpt>
      <trkpt lat="43.3474" lon="-0.54509">
        <ele>138.09</ele>
        <time>2017-03-11T09:24:12Z</time>
      </trkpt>
      <trkpt lat="43.34769" lon="-0.54482">
        <ele>144.82</ele>
        <time>2017-03-11T09:24:28Z</time>
      </trkpt>
      <trkpt lat="43.34796" lon="-0.54457">
        <ele>148.18</ele>
        <time>2017-03-11T09:24:45Z</time>
      </trkpt>
      <trkpt lat="43.34814" lon="-0.54432">
        <ele>150.58</ele>
        <time>2017-03-11T09:24:59Z</time>
      </trkpt>
      <trkpt lat="43.34835" lon="-0.54409">
        <ele>150.1</ele>
        <time>2017-03-11T09:25:13Z</time>
      </trkpt>
      <trkpt lat="43.34865" lon="-0.54381">
        <ele>153.47</ele>
        <time>2017-03-11T09:25:29Z</time>
      </trkpt>
      <trkpt lat="43.34891" lon="-0.54371">
        <ele>156.35</ele>
        <time>2017-03-11T09:25:44Z</time>
      </trkpt>
      <trkpt lat="43.34918" lon="-0.5435">
        <ele>157.31</ele>
        <time>2017-03-11T09:25:59Z</time>
      </trkpt>
      <trkpt lat="43.34944" lon="-0.54313">
        <ele>157.31</ele>
        <time>2017-03-11T09:26:16Z</time>
      </trkpt>
      <trkpt lat="43.34963" lon="-0.54288">
        <ele>159.24</ele>
        <time>2017-03-11T09:26:30Z</time>
      </trkpt>
      <trkpt lat="43.34985" lon="-0.54261">
        <ele>162.12</ele>
        <time>2017-03-11T09:26:48Z</time>
      </trkpt>
      <trkpt lat="43.35005" lon="-0.54234">
        <ele>165.48</ele>
        <time>2017-03-11T09:27:07Z</time>
      </trkpt>
      <trkpt lat="43.35005" lon="-0.54208">
        <ele>169.33</ele>
        <time>2017-03-11T09:27:23Z</time>
      </trkpt>
      <trkpt lat="43.35003" lon="-0.54199">
        <ele>170.77</ele>
        <time>2017-03-11T09:27:28Z</time>
      </trkpt>
      <trkpt lat="43.35002" lon="-0.54198">
        <ele>170.77</ele>
        <time>2017-03-11T09:27:29Z</time>
      </trkpt>
      <trkpt lat="43.35001" lon="-0.54196">
        <ele>171.25</ele>
        <time>2017-03-11T09:27:30Z</time>
      </trkpt>
      <trkpt lat="43.35001" lon="-0.54195">
        <ele>170.77</ele>
        <time>2017-03-11T09:27:31Z</time>
      </trkpt>
      <trkpt lat="43.35" lon="-0.54193">
        <ele>170.77</ele>
        <time>2017-03-11T09:27:32Z</time>
      </trkpt>
      <trkpt lat="43.35" lon="-0.54191">
        <ele>171.25</ele>
        <time>2017-03-11T09:27:33Z</time>
      </trkpt>
      <trkpt lat="43.34988" lon="-0.54153">
        <ele>172.69</ele>
        <time>2017-03-11T09:27:49Z</time>
      </trkpt>
      <trkpt lat="43.34988" lon="-0.54098">
        <ele>173.17</ele>
        <time>2017-03-11T09:28:03Z</time>
      </trkpt>
      <trkpt lat="43.34997" lon="-0.54045">
        <ele>172.21</ele>
        <time>2017-03-11T09:28:19Z</time>
      </trkpt>
      <trkpt lat="43.34996" lon="-0.53994">
        <ele>174.14</ele>
        <time>2017-03-11T09:28:31Z</time>
      </trkpt>
      <trkpt lat="43.34978" lon="-0.53933">
        <ele>175.1</ele>
        <time>2017-03-11T09:28:44Z</time>
      </trkpt>
      <trkpt lat="43.34974" lon="-0.53915">
        <ele>175.1</ele>
        <time>2017-03-11T09:28:47Z</time>
      </trkpt>
      <trkpt lat="43.3497" lon="-0.53831">
        <ele>173.17</ele>
        <time>2017-03-11T09:29:01Z</time>
      </trkpt>
      <trkpt lat="43.3497" lon="-0.53825">
        <ele>173.17</ele>
        <time>2017-03-11T09:29:02Z</time>
      </trkpt>
      <trkpt lat="43.34969" lon="-0.5382">
        <ele>173.17</ele>
        <time>2017-03-11T09:29:03Z</time>
      </trkpt>
      <trkpt lat="43.34972" lon="-0.53789">
        <ele>175.1</ele>
        <time>2017-03-11T09:29:14Z</time>
      </trkpt>
      <trkpt lat="43.34988" lon="-0.53766">
        <ele>179.9</ele>
        <time>2017-03-11T09:29:30Z</time>
      </trkpt>
      <trkpt lat="43.35005" lon="-0.53749">
        <ele>183.27</ele>
        <time>2017-03-11T09:29:45Z</time>
      </trkpt>
      <trkpt lat="43.3502" lon="-0.53732">
        <ele>186.63</ele>
        <time>2017-03-11T09:30:00Z</time>
      </trkpt>
      <trkpt lat="43.35021" lon="-0.53731">
        <ele>187.11</ele>
        <time>2017-03-11T09:30:01Z</time>
      </trkpt>
      <trkpt lat="43.35022" lon="-0.5373">
        <ele>187.11</ele>
        <time>2017-03-11T09:30:02Z</time>
      </trkpt>
      <trkpt lat="43.35023" lon="-0.5373">
        <ele>187.59</ele>
        <time>2017-03-11T09:30:03Z</time>
      </trkpt>
      <trkpt lat="43.35024" lon="-0.53729">
        <ele>187.59</ele>
        <time>2017-03-11T09:30:04Z</time>
      </trkpt>
      <trkpt lat="43.35025" lon="-0.53728">
        <ele>188.08</ele>
        <time>2017-03-11T09:30:05Z</time>
      </trkpt>
      <trkpt lat="43.35026" lon="-0.53726">
        <ele>188.08</ele>
        <time>2017-03-11T09:30:06Z</time>
      </trkpt>
      <trkpt lat="43.35027" lon="-0.53725">
        <ele>188.08</ele>
        <time>2017-03-11T09:30:07Z</time>
      </trkpt>
      <trkpt lat="43.35028" lon="-0.53724">
        <ele>188.08</ele>
        <time>2017-03-11T09:30:08Z</time>
      </trkpt>
      <trkpt lat="43.35029" lon="-0.53723">
        <ele>188.56</ele>
        <time>2017-03-11T09:30:09Z</time>
      </trkpt>
      <trkpt lat="43.3503" lon="-0.53722">
        <ele>188.56</ele>
        <time>2017-03-11T09:30:10Z</time>
      </trkpt>
      <trkpt lat="43.35031" lon="-0.53721">
        <ele>188.56</ele>
        <time>2017-03-11T09:30:11Z</time>
      </trkpt>
      <trkpt lat="43.35032" lon="-0.5372">
        <ele>188.56</ele>
        <time>2017-03-11T09:30:12Z</time>
      </trkpt>
      <trkpt lat="43.35033" lon="-0.5372">
        <ele>189.04</ele>
        <time>2017-03-11T09:30:13Z</time>
      </trkpt>
      <trkpt lat="43.35034" lon="-0.5372">
        <ele>189.04</ele>
        <time>2017-03-11T09:30:14Z</time>
      </trkpt>
      <trkpt lat="43.35039" lon="-0.5372">
        <ele>189.52</ele>
        <time>2017-03-11T09:30:18Z</time>
      </trkpt>
      <trkpt lat="43.3504" lon="-0.53721">
        <ele>190</ele>
        <time>2017-03-11T09:30:19Z</time>
      </trkpt>
      <trkpt lat="43.35041" lon="-0.53722">
        <ele>190</ele>
        <time>2017-03-11T09:30:20Z</time>
      </trkpt>
      <trkpt lat="43.35041" lon="-0.53724">
        <ele>190</ele>
        <time>2017-03-11T09:30:21Z</time>
      </trkpt>
      <trkpt lat="43.35041" lon="-0.53726">
        <ele>190</ele>
        <time>2017-03-11T09:30:22Z</time>
      </trkpt>
      <trkpt lat="43.35048" lon="-0.53765">
        <ele>190.48</ele>
        <time>2017-03-11T09:30:36Z</time>
      </trkpt>
      <trkpt lat="43.35051" lon="-0.53778">
        <ele>190</ele>
        <time>2017-03-11T09:30:41Z</time>
      </trkpt>
      <trkpt lat="43.35052" lon="-0.53781">
        <ele>190</ele>
        <time>2017-03-11T09:30:42Z</time>
      </trkpt>
      <trkpt lat="43.35052" lon="-0.53783">
        <ele>189.52</ele>
        <time>2017-03-11T09:30:43Z</time>
      </trkpt>
      <trkpt lat="43.35053" lon="-0.53786">
        <ele>189.52</ele>
        <time>2017-03-11T09:30:44Z</time>
      </trkpt>
      <trkpt lat="43.35054" lon="-0.53788">
        <ele>189.52</ele>
        <time>2017-03-11T09:30:45Z</time>
      </trkpt>
      <trkpt lat="43.35062" lon="-0.53817">
        <ele>188.08</ele>
        <time>2017-03-11T09:30:57Z</time>
      </trkpt>
      <trkpt lat="43.35066" lon="-0.53837">
        <ele>186.15</ele>
        <time>2017-03-11T09:31:05Z</time>
      </trkpt>
      <trkpt lat="43.35066" lon="-0.53839">
        <ele>185.67</ele>
        <time>2017-03-11T09:31:06Z</time>
      </trkpt>
      <trkpt lat="43.35067" lon="-0.53842">
        <ele>185.67</ele>
        <time>2017-03-11T09:31:07Z</time>
      </trkpt>
      <trkpt lat="43.35068" lon="-0.53845">
        <ele>185.67</ele>
        <time>2017-03-11T09:31:08Z</time>
      </trkpt>
      <trkpt lat="43.35069" lon="-0.53848">
        <ele>185.67</ele>
        <time>2017-03-11T09:31:09Z</time>
      </trkpt>
      <trkpt lat="43.3507" lon="-0.53851">
        <ele>185.19</ele>
        <time>2017-03-11T09:31:10Z</time>
      </trkpt>
      <trkpt lat="43.35071" lon="-0.53893">
        <ele>183.75</ele>
        <time>2017-03-11T09:31:22Z</time>
      </trkpt>
      <trkpt lat="43.35076" lon="-0.53936">
        <ele>177.98</ele>
        <time>2017-03-11T09:31:33Z</time>
      </trkpt>
      <trkpt lat="43.35091" lon="-0.53972">
        <ele>177.02</ele>
        <time>2017-03-11T09:31:45Z</time>
      </trkpt>
      <trkpt lat="43.35106" lon="-0.54006">
        <ele>180.38</ele>
        <time>2017-03-11T09:31:57Z</time>
      </trkpt>
      <trkpt lat="43.35134" lon="-0.54028">
        <ele>190.48</ele>
        <time>2017-03-11T09:32:09Z</time>
      </trkpt>
      <trkpt lat="43.35169" lon="-0.54048">
        <ele>191.44</ele>
        <time>2017-03-11T09:32:20Z</time>
      </trkpt>
      <trkpt lat="43.35185" lon="-0.54058">
        <ele>190.96</ele>
        <time>2017-03-11T09:32:23Z</time>
      </trkpt>
      <trkpt lat="43.3519" lon="-0.54059">
        <ele>190.96</ele>
        <time>2017-03-11T09:32:24Z</time>
      </trkpt>
      <trkpt lat="43.35194" lon="-0.54059">
        <ele>191.44</ele>
        <time>2017-03-11T09:32:25Z</time>
      </trkpt>
      <trkpt lat="43.35197" lon="-0.5406">
        <ele>191.44</ele>
        <time>2017-03-11T09:32:26Z</time>
      </trkpt>
      <trkpt lat="43.35199" lon="-0.5406">
        <ele>191.44</ele>
        <time>2017-03-11T09:32:27Z</time>
      </trkpt>
      <trkpt lat="43.35201" lon="-0.54061">
        <ele>191.92</ele>
        <time>2017-03-11T09:32:28Z</time>
      </trkpt>
      <trkpt lat="43.35204" lon="-0.54062">
        <ele>192.4</ele>
        <time>2017-03-11T09:32:29Z</time>
      </trkpt>
      <trkpt lat="43.35206" lon="-0.54063">
        <ele>192.4</ele>
        <time>2017-03-11T09:32:30Z</time>
      </trkpt>
      <trkpt lat="43.35208" lon="-0.54063">
        <ele>192.88</ele>
        <time>2017-03-11T09:32:31Z</time>
      </trkpt>
      <trkpt lat="43.3523" lon="-0.54072">
        <ele>198.17</ele>
        <time>2017-03-11T09:32:42Z</time>
      </trkpt>
      <trkpt lat="43.35239" lon="-0.54089">
        <ele>197.21</ele>
        <time>2017-03-11T09:32:46Z</time>
      </trkpt>
      <trkpt lat="43.35243" lon="-0.54105">
        <ele>195.28</ele>
        <time>2017-03-11T09:32:49Z</time>
      </trkpt>
      <trkpt lat="43.35246" lon="-0.54111">
        <ele>194.8</ele>
        <time>2017-03-11T09:32:50Z</time>
      </trkpt>
      <trkpt lat="43.35262" lon="-0.54151">
        <ele>192.88</ele>
        <time>2017-03-11T09:32:56Z</time>
      </trkpt>
      <trkpt lat="43.35282" lon="-0.54216">
        <ele>192.4</ele>
        <time>2017-03-11T09:33:09Z</time>
      </trkpt>
      <trkpt lat="43.35296" lon="-0.54296">
        <ele>192.88</ele>
        <time>2017-03-11T09:33:25Z</time>
      </trkpt>
      <trkpt lat="43.353" lon="-0.54375">
        <ele>195.28</ele>
        <time>2017-03-11T09:33:42Z</time>
      </trkpt>
      <trkpt lat="43.35298" lon="-0.5446">
        <ele>197.69</ele>
        <time>2017-03-11T09:33:58Z</time>
      </trkpt>
      <trkpt lat="43.35299" lon="-0.54529">
        <ele>198.17</ele>
        <time>2017-03-11T09:34:11Z</time>
      </trkpt>
      <trkpt lat="43.35299" lon="-0.54535">
        <ele>198.65</ele>
        <time>2017-03-11T09:34:12Z</time>
      </trkpt>
      <trkpt lat="43.35296" lon="-0.5459">
        <ele>198.65</ele>
        <time>2017-03-11T09:34:25Z</time>
      </trkpt>
      <trkpt lat="43.35292" lon="-0.54642">
        <ele>196.25</ele>
        <time>2017-03-11T09:34:37Z</time>
      </trkpt>
      <trkpt lat="43.35303" lon="-0.5471">
        <ele>198.65</ele>
        <time>2017-03-11T09:34:50Z</time>
      </trkpt>
      <trkpt lat="43.35333" lon="-0.54746">
        <ele>200.09</ele>
        <time>2017-03-11T09:35:03Z</time>
      </trkpt>
      <trkpt lat="43.35364" lon="-0.5476">
        <ele>202.98</ele>
        <time>2017-03-11T09:35:15Z</time>
      </trkpt>
      <trkpt lat="43.35374" lon="-0.54763">
        <ele>202.49</ele>
        <time>2017-03-11T09:35:19Z</time>
      </trkpt>
      <trkpt lat="43.35376" lon="-0.54764">
        <ele>202.98</ele>
        <time>2017-03-11T09:35:20Z</time>
      </trkpt>
      <trkpt lat="43.35378" lon="-0.54765">
        <ele>202.98</ele>
        <time>2017-03-11T09:35:21Z</time>
      </trkpt>
      <trkpt lat="43.35381" lon="-0.54765">
        <ele>203.46</ele>
        <time>2017-03-11T09:35:22Z</time>
      </trkpt>
      <trkpt lat="43.35384" lon="-0.54766">
        <ele>203.46</ele>
        <time>2017-03-11T09:35:23Z</time>
      </trkpt>
      <trkpt lat="43.35386" lon="-0.54767">
        <ele>203.94</ele>
        <time>2017-03-11T09:35:24Z</time>
      </trkpt>
      <trkpt lat="43.354" lon="-0.54768">
        <ele>204.9</ele>
        <time>2017-03-11T09:35:31Z</time>
      </trkpt>
      <trkpt lat="43.35401" lon="-0.54768">
        <ele>204.9</ele>
        <time>2017-03-11T09:35:32Z</time>
      </trkpt>
      <trkpt lat="43.35418" lon="-0.54772">
        <ele>204.9</ele>
        <time>2017-03-11T09:35:40Z</time>
      </trkpt>
      <trkpt lat="43.3542" lon="-0.54772">
        <ele>205.38</ele>
        <time>2017-03-11T09:35:41Z</time>
      </trkpt>
      <trkpt lat="43.35423" lon="-0.54773">
        <ele>205.38</ele>
        <time>2017-03-11T09:35:42Z</time>
      </trkpt>
      <trkpt lat="43.35442" lon="-0.54783">
        <ele>205.86</ele>
        <time>2017-03-11T09:35:51Z</time>
      </trkpt>
      <trkpt lat="43.35467" lon="-0.54797">
        <ele>202.49</ele>
        <time>2017-03-11T09:36:01Z</time>
      </trkpt>
      <trkpt lat="43.35471" lon="-0.54799">
        <ele>201.05</ele>
        <time>2017-03-11T09:36:03Z</time>
      </trkpt>
      <trkpt lat="43.35473" lon="-0.54799">
        <ele>200.57</ele>
        <time>2017-03-11T09:36:04Z</time>
      </trkpt>
      <trkpt lat="43.35475" lon="-0.548">
        <ele>200.09</ele>
        <time>2017-03-11T09:36:05Z</time>
      </trkpt>
      <trkpt lat="43.35477" lon="-0.548">
        <ele>199.61</ele>
        <time>2017-03-11T09:36:06Z</time>
      </trkpt>
      <trkpt lat="43.35478" lon="-0.54803">
        <ele>199.61</ele>
        <time>2017-03-11T09:36:07Z</time>
      </trkpt>
      <trkpt lat="43.35479" lon="-0.54807">
        <ele>199.61</ele>
        <time>2017-03-11T09:36:08Z</time>
      </trkpt>
      <trkpt lat="43.35481" lon="-0.54811">
        <ele>199.61</ele>
        <time>2017-03-11T09:36:09Z</time>
      </trkpt>
      <trkpt lat="43.35483" lon="-0.54817">
        <ele>199.13</ele>
        <time>2017-03-11T09:36:10Z</time>
      </trkpt>
      <trkpt lat="43.35485" lon="-0.54824">
        <ele>199.13</ele>
        <time>2017-03-11T09:36:11Z</time>
      </trkpt>
      <trkpt lat="43.35496" lon="-0.54858">
        <ele>197.69</ele>
        <time>2017-03-11T09:36:15Z</time>
      </trkpt>
      <trkpt lat="43.35502" lon="-0.54871">
        <ele>196.73</ele>
        <time>2017-03-11T09:36:17Z</time>
      </trkpt>
      <trkpt lat="43.35504" lon="-0.54878">
        <ele>195.77</ele>
        <time>2017-03-11T09:36:18Z</time>
      </trkpt>
      <trkpt lat="43.35507" lon="-0.54903">
        <ele>193.84</ele>
        <time>2017-03-11T09:36:22Z</time>
      </trkpt>
      <trkpt lat="43.35507" lon="-0.54908">
        <ele>192.88</ele>
        <time>2017-03-11T09:36:23Z</time>
      </trkpt>
      <trkpt lat="43.35509" lon="-0.54913">
        <ele>191.92</ele>
        <time>2017-03-11T09:36:24Z</time>
      </trkpt>
      <trkpt lat="43.3551" lon="-0.54917">
        <ele>190.96</ele>
        <time>2017-03-11T09:36:25Z</time>
      </trkpt>
      <trkpt lat="43.35512" lon="-0.5492">
        <ele>190.96</ele>
        <time>2017-03-11T09:36:26Z</time>
      </trkpt>
      <trkpt lat="43.35514" lon="-0.54923">
        <ele>190.48</ele>
        <time>2017-03-11T09:36:27Z</time>
      </trkpt>
      <trkpt lat="43.35516" lon="-0.54925">
        <ele>190.48</ele>
        <time>2017-03-11T09:36:28Z</time>
      </trkpt>
      <trkpt lat="43.35519" lon="-0.5494">
        <ele>190</ele>
        <time>2017-03-11T09:36:32Z</time>
      </trkpt>
      <trkpt lat="43.3552" lon="-0.54949">
        <ele>190</ele>
        <time>2017-03-11T09:36:35Z</time>
      </trkpt>
      <trkpt lat="43.3552" lon="-0.54972">
        <ele>185.19</ele>
        <time>2017-03-11T09:36:45Z</time>
      </trkpt>
      <trkpt lat="43.3552" lon="-0.54974">
        <ele>184.23</ele>
        <time>2017-03-11T09:36:46Z</time>
      </trkpt>
      <trkpt lat="43.35519" lon="-0.54986">
        <ele>181.35</ele>
        <time>2017-03-11T09:36:50Z</time>
      </trkpt>
      <trkpt lat="43.35511" lon="-0.55006">
        <ele>176.06</ele>
        <time>2017-03-11T09:36:57Z</time>
      </trkpt>
      <trkpt lat="43.35508" lon="-0.55017">
        <ele>170.77</ele>
        <time>2017-03-11T09:37:02Z</time>
      </trkpt>
      <trkpt lat="43.35482" lon="-0.55025">
        <ele>167.41</ele>
        <time>2017-03-11T09:37:13Z</time>
      </trkpt>
      <trkpt lat="43.3548" lon="-0.55023">
        <ele>166.93</ele>
        <time>2017-03-11T09:37:14Z</time>
      </trkpt>
      <trkpt lat="43.35468" lon="-0.55007">
        <ele>166.93</ele>
        <time>2017-03-11T09:37:25Z</time>
      </trkpt>
      <trkpt lat="43.35464" lon="-0.55001">
        <ele>166.45</ele>
        <time>2017-03-11T09:37:29Z</time>
      </trkpt>
      <trkpt lat="43.3546" lon="-0.54989">
        <ele>165</ele>
        <time>2017-03-11T09:37:35Z</time>
      </trkpt>
      <trkpt lat="43.35452" lon="-0.54986">
        <ele>163.56</ele>
        <time>2017-03-11T09:37:39Z</time>
      </trkpt>
      <trkpt lat="43.3545" lon="-0.54987">
        <ele>163.08</ele>
        <time>2017-03-11T09:37:40Z</time>
      </trkpt>
      <trkpt lat="43.35448" lon="-0.54989">
        <ele>163.08</ele>
        <time>2017-03-11T09:37:41Z</time>
      </trkpt>
      <trkpt lat="43.35446" lon="-0.54992">
        <ele>162.12</ele>
        <time>2017-03-11T09:37:42Z</time>
      </trkpt>
      <trkpt lat="43.35443" lon="-0.54995">
        <ele>161.64</ele>
        <time>2017-03-11T09:37:43Z</time>
      </trkpt>
      <trkpt lat="43.3544" lon="-0.54998">
        <ele>160.68</ele>
        <time>2017-03-11T09:37:44Z</time>
      </trkpt>
      <trkpt lat="43.35438" lon="-0.55">
        <ele>160.2</ele>
        <time>2017-03-11T09:37:45Z</time>
      </trkpt>
      <trkpt lat="43.35435" lon="-0.55003">
        <ele>159.24</ele>
        <time>2017-03-11T09:37:46Z</time>
      </trkpt>
      <trkpt lat="43.35432" lon="-0.55006">
        <ele>158.75</ele>
        <time>2017-03-11T09:37:47Z</time>
      </trkpt>
      <trkpt lat="43.35408" lon="-0.55032">
        <ele>152.51</ele>
        <time>2017-03-11T09:37:59Z</time>
      </trkpt>
      <trkpt lat="43.35383" lon="-0.55058">
        <ele>142.41</ele>
        <time>2017-03-11T09:38:10Z</time>
      </trkpt>
      <trkpt lat="43.35377" lon="-0.55062">
        <ele>138.57</ele>
        <time>2017-03-11T09:38:16Z</time>
      </trkpt>
      <trkpt lat="43.35376" lon="-0.55061">
        <ele>138.57</ele>
        <time>2017-03-11T09:38:17Z</time>
      </trkpt>
      <trkpt lat="43.35373" lon="-0.5506">
        <ele>138.57</ele>
        <time>2017-03-11T09:38:22Z</time>
      </trkpt>
      <trkpt lat="43.35369" lon="-0.5506">
        <ele>139.05</ele>
        <time>2017-03-11T09:38:25Z</time>
      </trkpt>
      <trkpt lat="43.35367" lon="-0.55061">
        <ele>139.05</ele>
        <time>2017-03-11T09:38:26Z</time>
      </trkpt>
      <trkpt lat="43.35366" lon="-0.55063">
        <ele>139.05</ele>
        <time>2017-03-11T09:38:27Z</time>
      </trkpt>
      <trkpt lat="43.35365" lon="-0.55064">
        <ele>139.05</ele>
        <time>2017-03-11T09:38:28Z</time>
      </trkpt>
      <trkpt lat="43.35364" lon="-0.55067">
        <ele>139.05</ele>
        <time>2017-03-11T09:38:29Z</time>
      </trkpt>
      <trkpt lat="43.35364" lon="-0.5507">
        <ele>139.05</ele>
        <time>2017-03-11T09:38:30Z</time>
      </trkpt>
      <trkpt lat="43.35363" lon="-0.55072">
        <ele>139.05</ele>
        <time>2017-03-11T09:38:31Z</time>
      </trkpt>
      <trkpt lat="43.35362" lon="-0.55078">
        <ele>140.01</ele>
        <time>2017-03-11T09:38:34Z</time>
      </trkpt>
      <trkpt lat="43.35361" lon="-0.5508">
        <ele>140.49</ele>
        <time>2017-03-11T09:38:35Z</time>
      </trkpt>
      <trkpt lat="43.35333" lon="-0.55111">
        <ele>140.49</ele>
        <time>2017-03-11T09:38:44Z</time>
      </trkpt>
      <trkpt lat="43.35298" lon="-0.55157">
        <ele>135.68</ele>
        <time>2017-03-11T09:38:53Z</time>
      </trkpt>
      <trkpt lat="43.35295" lon="-0.55162">
        <ele>135.2</ele>
        <time>2017-03-11T09:38:54Z</time>
      </trkpt>
      <trkpt lat="43.35275" lon="-0.55195">
        <ele>129.43</ele>
        <time>2017-03-11T09:39:01Z</time>
      </trkpt>
      <trkpt lat="43.35272" lon="-0.55199">
        <ele>128.47</ele>
        <time>2017-03-11T09:39:02Z</time>
      </trkpt>
      <trkpt lat="43.35268" lon="-0.55202">
        <ele>127.51</ele>
        <time>2017-03-11T09:39:03Z</time>
      </trkpt>
      <trkpt lat="43.35263" lon="-0.55206">
        <ele>127.03</ele>
        <time>2017-03-11T09:39:04Z</time>
      </trkpt>
      <trkpt lat="43.35258" lon="-0.55213">
        <ele>126.07</ele>
        <time>2017-03-11T09:39:05Z</time>
      </trkpt>
      <trkpt lat="43.35254" lon="-0.55219">
        <ele>125.11</ele>
        <time>2017-03-11T09:39:06Z</time>
      </trkpt>
      <trkpt lat="43.35249" lon="-0.55226">
        <ele>124.63</ele>
        <time>2017-03-11T09:39:07Z</time>
      </trkpt>
      <trkpt lat="43.35223" lon="-0.55264">
        <ele>119.82</ele>
        <time>2017-03-11T09:39:14Z</time>
      </trkpt>
      <trkpt lat="43.35222" lon="-0.5527">
        <ele>119.34</ele>
        <time>2017-03-11T09:39:15Z</time>
      </trkpt>
      <trkpt lat="43.35222" lon="-0.55276">
        <ele>119.34</ele>
        <time>2017-03-11T09:39:16Z</time>
      </trkpt>
      <trkpt lat="43.35221" lon="-0.55307">
        <ele>118.38</ele>
        <time>2017-03-11T09:39:22Z</time>
      </trkpt>
    </trkseg>
  </trk>
</gpx>